<?xml version="1.0" encoding="UTF-8" standalone="no" ?>
<gpx xmlns="http://www.topografix.com/GPX/1/1" xmlns:xsi="http://www.w3.org/2001/XMLSchema-instance" xsi:schemaLocation="http://www.topografix.com/GPX/1/1 http://www.topografix.com/GPX/1/1/gpx.xsd" version="1.1" creator="VisuGPX - https://www.visugpx.com">
  <metadata>
    <name>Dimanche 22 mars 2026</name>
  </metadata>
  <trk>
    <name><![CDATA[Dimanche 22 mars 2026]]></name>
    <extensions>
      <line xmlns="http://www.topografix.com/GPX/gpx_style/0/2">
        <width>7</width>
      </line>
    </extensions>
    <trkseg>
      <trkpt lat="43.38313" lon="-1.65909">
        <ele>5</ele>
        <time>2026-03-06T13:44:20.000Z</time>
      </trkpt>
      <trkpt lat="43.38309" lon="-1.65902">
        <ele>5</ele>
        <time>2026-03-06T13:44:21.000Z</time>
      </trkpt>
      <trkpt lat="43.38298" lon="-1.65877">
        <ele>4</ele>
        <time>2026-03-06T13:44:25.000Z</time>
      </trkpt>
      <trkpt lat="43.38262" lon="-1.65781">
        <ele>4</ele>
        <time>2026-03-06T13:44:39.000Z</time>
      </trkpt>
      <trkpt lat="43.38234" lon="-1.65703">
        <ele>4</ele>
        <time>2026-03-06T13:44:50.000Z</time>
      </trkpt>
      <trkpt lat="43.38233" lon="-1.65687">
        <ele>4</ele>
        <time>2026-03-06T13:44:52.000Z</time>
      </trkpt>
      <trkpt lat="43.38236" lon="-1.65679">
        <ele>4</ele>
        <time>2026-03-06T13:44:53.000Z</time>
      </trkpt>
      <trkpt lat="43.38252" lon="-1.65655">
        <ele>4</ele>
        <time>2026-03-06T13:44:58.000Z</time>
      </trkpt>
      <trkpt lat="43.38351" lon="-1.65522">
        <ele>4</ele>
        <time>2026-03-06T13:45:22.000Z</time>
      </trkpt>
      <trkpt lat="43.38357" lon="-1.65509">
        <ele>4</ele>
        <time>2026-03-06T13:45:24.000Z</time>
      </trkpt>
      <trkpt lat="43.38352" lon="-1.65508">
        <ele>4</ele>
        <time>2026-03-06T13:45:25.000Z</time>
      </trkpt>
      <trkpt lat="43.38328" lon="-1.65473">
        <ele>4</ele>
        <time>2026-03-06T13:45:31.000Z</time>
      </trkpt>
      <trkpt lat="43.38325" lon="-1.65465">
        <ele>4</ele>
        <time>2026-03-06T13:45:32.000Z</time>
      </trkpt>
      <trkpt lat="43.38326" lon="-1.65462">
        <ele>4</ele>
        <time>2026-03-06T13:45:33.000Z</time>
      </trkpt>
      <trkpt lat="43.38327" lon="-1.65457">
        <ele>4</ele>
        <time>2026-03-06T13:45:34.000Z</time>
      </trkpt>
      <trkpt lat="43.38331" lon="-1.65453">
        <ele>5</ele>
        <time>2026-03-06T13:45:34.000Z</time>
      </trkpt>
      <trkpt lat="43.3837" lon="-1.65376">
        <ele>5</ele>
        <time>2026-03-06T13:45:47.000Z</time>
      </trkpt>
      <trkpt lat="43.3839" lon="-1.65332">
        <ele>6</ele>
        <time>2026-03-06T13:45:53.000Z</time>
      </trkpt>
      <trkpt lat="43.38394" lon="-1.65317">
        <ele>8</ele>
        <time>2026-03-06T13:45:55.000Z</time>
      </trkpt>
      <trkpt lat="43.38392" lon="-1.65295">
        <ele>10</ele>
        <time>2026-03-06T13:45:58.000Z</time>
      </trkpt>
      <trkpt lat="43.38384" lon="-1.65266">
        <ele>13</ele>
        <time>2026-03-06T13:46:02.000Z</time>
      </trkpt>
      <trkpt lat="43.38365" lon="-1.65248">
        <ele>13</ele>
        <time>2026-03-06T13:46:06.000Z</time>
      </trkpt>
      <trkpt lat="43.3836" lon="-1.65239">
        <ele>13</ele>
        <time>2026-03-06T13:46:08.000Z</time>
      </trkpt>
      <trkpt lat="43.38356" lon="-1.65227">
        <ele>13</ele>
        <time>2026-03-06T13:46:10.000Z</time>
      </trkpt>
      <trkpt lat="43.38343" lon="-1.652">
        <ele>12</ele>
        <time>2026-03-06T13:46:14.000Z</time>
      </trkpt>
      <trkpt lat="43.38276" lon="-1.65016">
        <ele>9</ele>
        <time>2026-03-06T13:46:40.000Z</time>
      </trkpt>
      <trkpt lat="43.3826" lon="-1.64971">
        <ele>8</ele>
        <time>2026-03-06T13:46:47.000Z</time>
      </trkpt>
      <trkpt lat="43.38254" lon="-1.64945">
        <ele>8</ele>
        <time>2026-03-06T13:46:50.000Z</time>
      </trkpt>
      <trkpt lat="43.38252" lon="-1.64928">
        <ele>8</ele>
        <time>2026-03-06T13:46:53.000Z</time>
      </trkpt>
      <trkpt lat="43.38255" lon="-1.6488">
        <ele>9</ele>
        <time>2026-03-06T13:46:59.000Z</time>
      </trkpt>
      <trkpt lat="43.38279" lon="-1.64626">
        <ele>7</ele>
        <time>2026-03-06T13:47:32.000Z</time>
      </trkpt>
      <trkpt lat="43.3828" lon="-1.64595">
        <ele>8</ele>
        <time>2026-03-06T13:47:36.000Z</time>
      </trkpt>
      <trkpt lat="43.38277" lon="-1.64488">
        <ele>10</ele>
        <time>2026-03-06T13:47:50.000Z</time>
      </trkpt>
      <trkpt lat="43.38272" lon="-1.64424">
        <ele>8</ele>
        <time>2026-03-06T13:47:58.000Z</time>
      </trkpt>
      <trkpt lat="43.38264" lon="-1.64383">
        <ele>7</ele>
        <time>2026-03-06T13:48:04.000Z</time>
      </trkpt>
      <trkpt lat="43.3825" lon="-1.64341">
        <ele>5</ele>
        <time>2026-03-06T13:48:10.000Z</time>
      </trkpt>
      <trkpt lat="43.38232" lon="-1.64309">
        <ele>5</ele>
        <time>2026-03-06T13:48:15.000Z</time>
      </trkpt>
      <trkpt lat="43.38212" lon="-1.64283">
        <ele>5</ele>
        <time>2026-03-06T13:48:20.000Z</time>
      </trkpt>
      <trkpt lat="43.38155" lon="-1.6423">
        <ele>6</ele>
        <time>2026-03-06T13:48:32.000Z</time>
      </trkpt>
      <trkpt lat="43.3812" lon="-1.64193">
        <ele>6</ele>
        <time>2026-03-06T13:48:40.000Z</time>
      </trkpt>
      <trkpt lat="43.38056" lon="-1.64058">
        <ele>9</ele>
        <time>2026-03-06T13:49:01.000Z</time>
      </trkpt>
      <trkpt lat="43.37906" lon="-1.63917">
        <ele>6</ele>
        <time>2026-03-06T13:49:33.000Z</time>
      </trkpt>
      <trkpt lat="43.37776" lon="-1.63786">
        <ele>8</ele>
        <time>2026-03-06T13:50:02.000Z</time>
      </trkpt>
      <trkpt lat="43.37759" lon="-1.63774">
        <ele>8</ele>
        <time>2026-03-06T13:50:05.000Z</time>
      </trkpt>
      <trkpt lat="43.37738" lon="-1.63772">
        <ele>8</ele>
        <time>2026-03-06T13:50:09.000Z</time>
      </trkpt>
      <trkpt lat="43.37642" lon="-1.63776">
        <ele>6</ele>
        <time>2026-03-06T13:50:26.000Z</time>
      </trkpt>
      <trkpt lat="43.37604" lon="-1.63785">
        <ele>6</ele>
        <time>2026-03-06T13:50:33.000Z</time>
      </trkpt>
      <trkpt lat="43.37541" lon="-1.63786">
        <ele>5</ele>
        <time>2026-03-06T13:50:44.000Z</time>
      </trkpt>
      <trkpt lat="43.37526" lon="-1.63781">
        <ele>5</ele>
        <time>2026-03-06T13:50:47.000Z</time>
      </trkpt>
      <trkpt lat="43.37517" lon="-1.6379">
        <ele>4</ele>
        <time>2026-03-06T13:50:49.000Z</time>
      </trkpt>
      <trkpt lat="43.3751" lon="-1.63791">
        <ele>4</ele>
        <time>2026-03-06T13:50:50.000Z</time>
      </trkpt>
      <trkpt lat="43.37445" lon="-1.63794">
        <ele>4</ele>
        <time>2026-03-06T13:51:01.000Z</time>
      </trkpt>
      <trkpt lat="43.37409" lon="-1.63788">
        <ele>4</ele>
        <time>2026-03-06T13:51:08.000Z</time>
      </trkpt>
      <trkpt lat="43.37111" lon="-1.63806">
        <ele>5</ele>
        <time>2026-03-06T13:52:01.000Z</time>
      </trkpt>
      <trkpt lat="43.37085" lon="-1.63801">
        <ele>6</ele>
        <time>2026-03-06T13:52:06.000Z</time>
      </trkpt>
      <trkpt lat="43.37067" lon="-1.63794">
        <ele>6</ele>
        <time>2026-03-06T13:52:09.000Z</time>
      </trkpt>
      <trkpt lat="43.36967" lon="-1.63732">
        <ele>5</ele>
        <time>2026-03-06T13:52:29.000Z</time>
      </trkpt>
      <trkpt lat="43.36753" lon="-1.63597">
        <ele>7</ele>
        <time>2026-03-06T13:53:10.000Z</time>
      </trkpt>
      <trkpt lat="43.36709" lon="-1.63582">
        <ele>8</ele>
        <time>2026-03-06T13:53:18.000Z</time>
      </trkpt>
      <trkpt lat="43.36675" lon="-1.63576">
        <ele>8</ele>
        <time>2026-03-06T13:53:25.000Z</time>
      </trkpt>
      <trkpt lat="43.36638" lon="-1.63578">
        <ele>7</ele>
        <time>2026-03-06T13:53:31.000Z</time>
      </trkpt>
      <trkpt lat="43.36595" lon="-1.63589">
        <ele>5</ele>
        <time>2026-03-06T13:53:39.000Z</time>
      </trkpt>
      <trkpt lat="43.36349" lon="-1.63669">
        <ele>7</ele>
        <time>2026-03-06T13:54:24.000Z</time>
      </trkpt>
      <trkpt lat="43.36308" lon="-1.63673">
        <ele>7</ele>
        <time>2026-03-06T13:54:31.000Z</time>
      </trkpt>
      <trkpt lat="43.36277" lon="-1.63671">
        <ele>6</ele>
        <time>2026-03-06T13:54:37.000Z</time>
      </trkpt>
      <trkpt lat="43.36255" lon="-1.63666">
        <ele>6</ele>
        <time>2026-03-06T13:54:41.000Z</time>
      </trkpt>
      <trkpt lat="43.36097" lon="-1.63603">
        <ele>5</ele>
        <time>2026-03-06T13:55:10.000Z</time>
      </trkpt>
      <trkpt lat="43.36075" lon="-1.63589">
        <ele>5</ele>
        <time>2026-03-06T13:55:14.000Z</time>
      </trkpt>
      <trkpt lat="43.36061" lon="-1.63577">
        <ele>5</ele>
        <time>2026-03-06T13:55:17.000Z</time>
      </trkpt>
      <trkpt lat="43.36039" lon="-1.63549">
        <ele>6</ele>
        <time>2026-03-06T13:55:23.000Z</time>
      </trkpt>
      <trkpt lat="43.36029" lon="-1.63531">
        <ele>6</ele>
        <time>2026-03-06T13:55:26.000Z</time>
      </trkpt>
      <trkpt lat="43.36014" lon="-1.63501">
        <ele>6</ele>
        <time>2026-03-06T13:55:30.000Z</time>
      </trkpt>
      <trkpt lat="43.35995" lon="-1.63453">
        <ele>8</ele>
        <time>2026-03-06T13:55:37.000Z</time>
      </trkpt>
      <trkpt lat="43.35984" lon="-1.63434">
        <ele>8</ele>
        <time>2026-03-06T13:55:40.000Z</time>
      </trkpt>
      <trkpt lat="43.35935" lon="-1.63358">
        <ele>9</ele>
        <time>2026-03-06T13:55:54.000Z</time>
      </trkpt>
      <trkpt lat="43.35921" lon="-1.63341">
        <ele>8</ele>
        <time>2026-03-06T13:55:57.000Z</time>
      </trkpt>
      <trkpt lat="43.35859" lon="-1.6328">
        <ele>9</ele>
        <time>2026-03-06T13:56:10.000Z</time>
      </trkpt>
      <trkpt lat="43.35789" lon="-1.63219">
        <ele>9</ele>
        <time>2026-03-06T13:56:25.000Z</time>
      </trkpt>
      <trkpt lat="43.3575" lon="-1.63192">
        <ele>7</ele>
        <time>2026-03-06T13:56:33.000Z</time>
      </trkpt>
      <trkpt lat="43.35673" lon="-1.63163">
        <ele>6</ele>
        <time>2026-03-06T13:56:47.000Z</time>
      </trkpt>
      <trkpt lat="43.35667" lon="-1.63163">
        <ele>6</ele>
        <time>2026-03-06T13:56:48.000Z</time>
      </trkpt>
      <trkpt lat="43.35663" lon="-1.63166">
        <ele>6</ele>
        <time>2026-03-06T13:56:49.000Z</time>
      </trkpt>
      <trkpt lat="43.35657" lon="-1.63166">
        <ele>6</ele>
        <time>2026-03-06T13:56:50.000Z</time>
      </trkpt>
      <trkpt lat="43.35638" lon="-1.63154">
        <ele>6</ele>
        <time>2026-03-06T13:56:54.000Z</time>
      </trkpt>
      <trkpt lat="43.35614" lon="-1.63148">
        <ele>5</ele>
        <time>2026-03-06T13:56:58.000Z</time>
      </trkpt>
      <trkpt lat="43.3544" lon="-1.63097">
        <ele>6</ele>
        <time>2026-03-06T13:57:30.000Z</time>
      </trkpt>
      <trkpt lat="43.35452" lon="-1.62999">
        <ele>9</ele>
        <time>2026-03-06T13:57:43.000Z</time>
      </trkpt>
      <trkpt lat="43.3544" lon="-1.63097">
        <ele>6</ele>
        <time>2026-03-06T13:57:56.000Z</time>
      </trkpt>
      <trkpt lat="43.35403" lon="-1.63082">
        <ele>7</ele>
        <time>2026-03-06T13:58:02.000Z</time>
      </trkpt>
      <trkpt lat="43.35386" lon="-1.63073">
        <ele>7</ele>
        <time>2026-03-06T13:58:06.000Z</time>
      </trkpt>
      <trkpt lat="43.3535" lon="-1.63044">
        <ele>7</ele>
        <time>2026-03-06T13:58:13.000Z</time>
      </trkpt>
      <trkpt lat="43.35306" lon="-1.62998">
        <ele>6</ele>
        <time>2026-03-06T13:58:23.000Z</time>
      </trkpt>
      <trkpt lat="43.35289" lon="-1.62974">
        <ele>6</ele>
        <time>2026-03-06T13:58:27.000Z</time>
      </trkpt>
      <trkpt lat="43.35268" lon="-1.62932">
        <ele>6</ele>
        <time>2026-03-06T13:58:34.000Z</time>
      </trkpt>
      <trkpt lat="43.35255" lon="-1.629">
        <ele>6</ele>
        <time>2026-03-06T13:58:39.000Z</time>
      </trkpt>
      <trkpt lat="43.35207" lon="-1.62759">
        <ele>8</ele>
        <time>2026-03-06T13:58:59.000Z</time>
      </trkpt>
      <trkpt lat="43.35118" lon="-1.62528">
        <ele>12</ele>
        <time>2026-03-06T13:59:33.000Z</time>
      </trkpt>
      <trkpt lat="43.35108" lon="-1.62493">
        <ele>11</ele>
        <time>2026-03-06T13:59:37.000Z</time>
      </trkpt>
      <trkpt lat="43.35103" lon="-1.62461">
        <ele>10</ele>
        <time>2026-03-06T13:59:42.000Z</time>
      </trkpt>
      <trkpt lat="43.35103" lon="-1.62402">
        <ele>11</ele>
        <time>2026-03-06T13:59:49.000Z</time>
      </trkpt>
      <trkpt lat="43.35109" lon="-1.62334">
        <ele>10</ele>
        <time>2026-03-06T13:59:58.000Z</time>
      </trkpt>
      <trkpt lat="43.35118" lon="-1.62308">
        <ele>11</ele>
        <time>2026-03-06T14:00:02.000Z</time>
      </trkpt>
      <trkpt lat="43.35127" lon="-1.62289">
        <ele>11</ele>
        <time>2026-03-06T14:00:05.000Z</time>
      </trkpt>
      <trkpt lat="43.35181" lon="-1.62185">
        <ele>11</ele>
        <time>2026-03-06T14:00:21.000Z</time>
      </trkpt>
      <trkpt lat="43.35201" lon="-1.62157">
        <ele>12</ele>
        <time>2026-03-06T14:00:26.000Z</time>
      </trkpt>
      <trkpt lat="43.35214" lon="-1.62143">
        <ele>12</ele>
        <time>2026-03-06T14:00:29.000Z</time>
      </trkpt>
      <trkpt lat="43.3524" lon="-1.62126">
        <ele>14</ele>
        <time>2026-03-06T14:00:34.000Z</time>
      </trkpt>
      <trkpt lat="43.35407" lon="-1.6206">
        <ele>21</ele>
        <time>2026-03-06T14:01:05.000Z</time>
      </trkpt>
      <trkpt lat="43.35432" lon="-1.62045">
        <ele>21</ele>
        <time>2026-03-06T14:01:10.000Z</time>
      </trkpt>
      <trkpt lat="43.35486" lon="-1.62001">
        <ele>18</ele>
        <time>2026-03-06T14:01:21.000Z</time>
      </trkpt>
      <trkpt lat="43.35515" lon="-1.61963">
        <ele>18</ele>
        <time>2026-03-06T14:01:29.000Z</time>
      </trkpt>
      <trkpt lat="43.35609" lon="-1.61816">
        <ele>13</ele>
        <time>2026-03-06T14:01:54.000Z</time>
      </trkpt>
      <trkpt lat="43.35787" lon="-1.61535">
        <ele>14</ele>
        <time>2026-03-06T14:02:42.000Z</time>
      </trkpt>
      <trkpt lat="43.35815" lon="-1.61503">
        <ele>12</ele>
        <time>2026-03-06T14:02:49.000Z</time>
      </trkpt>
      <trkpt lat="43.35913" lon="-1.61419">
        <ele>16</ele>
        <time>2026-03-06T14:03:09.000Z</time>
      </trkpt>
      <trkpt lat="43.35934" lon="-1.61396">
        <ele>16</ele>
        <time>2026-03-06T14:03:14.000Z</time>
      </trkpt>
      <trkpt lat="43.36033" lon="-1.61268">
        <ele>11</ele>
        <time>2026-03-06T14:03:38.000Z</time>
      </trkpt>
      <trkpt lat="43.36058" lon="-1.61226">
        <ele>11</ele>
        <time>2026-03-06T14:03:45.000Z</time>
      </trkpt>
      <trkpt lat="43.36075" lon="-1.61188">
        <ele>12</ele>
        <time>2026-03-06T14:03:51.000Z</time>
      </trkpt>
      <trkpt lat="43.36091" lon="-1.61139">
        <ele>13</ele>
        <time>2026-03-06T14:03:58.000Z</time>
      </trkpt>
      <trkpt lat="43.36101" lon="-1.61078">
        <ele>15</ele>
        <time>2026-03-06T14:04:06.000Z</time>
      </trkpt>
      <trkpt lat="43.36105" lon="-1.61018">
        <ele>17</ele>
        <time>2026-03-06T14:04:14.000Z</time>
      </trkpt>
      <trkpt lat="43.36113" lon="-1.60838">
        <ele>16</ele>
        <time>2026-03-06T14:04:37.000Z</time>
      </trkpt>
      <trkpt lat="43.36119" lon="-1.6075">
        <ele>18</ele>
        <time>2026-03-06T14:04:48.000Z</time>
      </trkpt>
      <trkpt lat="43.36118" lon="-1.60724">
        <ele>18</ele>
        <time>2026-03-06T14:04:52.000Z</time>
      </trkpt>
      <trkpt lat="43.36104" lon="-1.60585">
        <ele>18</ele>
        <time>2026-03-06T14:05:10.000Z</time>
      </trkpt>
      <trkpt lat="43.36102" lon="-1.60551">
        <ele>17</ele>
        <time>2026-03-06T14:05:14.000Z</time>
      </trkpt>
      <trkpt lat="43.36102" lon="-1.60518">
        <ele>17</ele>
        <time>2026-03-06T14:05:19.000Z</time>
      </trkpt>
      <trkpt lat="43.36103" lon="-1.60494">
        <ele>17</ele>
        <time>2026-03-06T14:05:22.000Z</time>
      </trkpt>
      <trkpt lat="43.36109" lon="-1.60462">
        <ele>16</ele>
        <time>2026-03-06T14:05:26.000Z</time>
      </trkpt>
      <trkpt lat="43.36126" lon="-1.60409">
        <ele>15</ele>
        <time>2026-03-06T14:05:34.000Z</time>
      </trkpt>
      <trkpt lat="43.36138" lon="-1.60384">
        <ele>15</ele>
        <time>2026-03-06T14:05:37.000Z</time>
      </trkpt>
      <trkpt lat="43.36153" lon="-1.60362">
        <ele>14</ele>
        <time>2026-03-06T14:05:41.000Z</time>
      </trkpt>
      <trkpt lat="43.36173" lon="-1.60338">
        <ele>13</ele>
        <time>2026-03-06T14:05:46.000Z</time>
      </trkpt>
      <trkpt lat="43.36211" lon="-1.60302">
        <ele>16</ele>
        <time>2026-03-06T14:05:54.000Z</time>
      </trkpt>
      <trkpt lat="43.36264" lon="-1.60257">
        <ele>19</ele>
        <time>2026-03-06T14:06:05.000Z</time>
      </trkpt>
      <trkpt lat="43.36299" lon="-1.60225">
        <ele>21</ele>
        <time>2026-03-06T14:06:13.000Z</time>
      </trkpt>
      <trkpt lat="43.36316" lon="-1.60201">
        <ele>20</ele>
        <time>2026-03-06T14:06:17.000Z</time>
      </trkpt>
      <trkpt lat="43.36336" lon="-1.60166">
        <ele>16</ele>
        <time>2026-03-06T14:06:23.000Z</time>
      </trkpt>
      <trkpt lat="43.36371" lon="-1.60073">
        <ele>15</ele>
        <time>2026-03-06T14:06:36.000Z</time>
      </trkpt>
      <trkpt lat="43.36387" lon="-1.60042">
        <ele>15</ele>
        <time>2026-03-06T14:06:41.000Z</time>
      </trkpt>
      <trkpt lat="43.36404" lon="-1.60015">
        <ele>14</ele>
        <time>2026-03-06T14:06:46.000Z</time>
      </trkpt>
      <trkpt lat="43.36418" lon="-1.59996">
        <ele>13</ele>
        <time>2026-03-06T14:06:49.000Z</time>
      </trkpt>
      <trkpt lat="43.36447" lon="-1.59965">
        <ele>14</ele>
        <time>2026-03-06T14:06:56.000Z</time>
      </trkpt>
      <trkpt lat="43.36476" lon="-1.5994">
        <ele>14</ele>
        <time>2026-03-06T14:07:02.000Z</time>
      </trkpt>
      <trkpt lat="43.36533" lon="-1.59897">
        <ele>16</ele>
        <time>2026-03-06T14:07:14.000Z</time>
      </trkpt>
      <trkpt lat="43.36549" lon="-1.59873">
        <ele>17</ele>
        <time>2026-03-06T14:07:18.000Z</time>
      </trkpt>
      <trkpt lat="43.36562" lon="-1.59843">
        <ele>18</ele>
        <time>2026-03-06T14:07:22.000Z</time>
      </trkpt>
      <trkpt lat="43.36567" lon="-1.59809">
        <ele>18</ele>
        <time>2026-03-06T14:07:27.000Z</time>
      </trkpt>
      <trkpt lat="43.36588" lon="-1.59546">
        <ele>11</ele>
        <time>2026-03-06T14:08:01.000Z</time>
      </trkpt>
      <trkpt lat="43.36592" lon="-1.59482">
        <ele>9</ele>
        <time>2026-03-06T14:08:09.000Z</time>
      </trkpt>
      <trkpt lat="43.36589" lon="-1.5943">
        <ele>9</ele>
        <time>2026-03-06T14:08:16.000Z</time>
      </trkpt>
      <trkpt lat="43.36581" lon="-1.59376">
        <ele>9</ele>
        <time>2026-03-06T14:08:23.000Z</time>
      </trkpt>
      <trkpt lat="43.36538" lon="-1.59228">
        <ele>10</ele>
        <time>2026-03-06T14:08:44.000Z</time>
      </trkpt>
      <trkpt lat="43.36482" lon="-1.59044">
        <ele>9</ele>
        <time>2026-03-06T14:09:10.000Z</time>
      </trkpt>
      <trkpt lat="43.3646" lon="-1.58976">
        <ele>11</ele>
        <time>2026-03-06T14:09:19.000Z</time>
      </trkpt>
      <trkpt lat="43.36444" lon="-1.58941">
        <ele>12</ele>
        <time>2026-03-06T14:09:25.000Z</time>
      </trkpt>
      <trkpt lat="43.36427" lon="-1.58913">
        <ele>13</ele>
        <time>2026-03-06T14:09:29.000Z</time>
      </trkpt>
      <trkpt lat="43.36402" lon="-1.58885">
        <ele>17</ele>
        <time>2026-03-06T14:09:35.000Z</time>
      </trkpt>
      <trkpt lat="43.36308" lon="-1.58801">
        <ele>19</ele>
        <time>2026-03-06T14:09:55.000Z</time>
      </trkpt>
      <trkpt lat="43.3628" lon="-1.58766">
        <ele>18</ele>
        <time>2026-03-06T14:10:02.000Z</time>
      </trkpt>
      <trkpt lat="43.36257" lon="-1.58723">
        <ele>14</ele>
        <time>2026-03-06T14:10:09.000Z</time>
      </trkpt>
      <trkpt lat="43.36164" lon="-1.58429">
        <ele>12</ele>
        <time>2026-03-06T14:10:50.000Z</time>
      </trkpt>
      <trkpt lat="43.36139" lon="-1.58363">
        <ele>12</ele>
        <time>2026-03-06T14:11:00.000Z</time>
      </trkpt>
      <trkpt lat="43.36129" lon="-1.58341">
        <ele>12</ele>
        <time>2026-03-06T14:11:03.000Z</time>
      </trkpt>
      <trkpt lat="43.36109" lon="-1.58303">
        <ele>12</ele>
        <time>2026-03-06T14:11:09.000Z</time>
      </trkpt>
      <trkpt lat="43.36003" lon="-1.58148">
        <ele>11</ele>
        <time>2026-03-06T14:11:37.000Z</time>
      </trkpt>
      <trkpt lat="43.35894" lon="-1.57993">
        <ele>11</ele>
        <time>2026-03-06T14:12:05.000Z</time>
      </trkpt>
      <trkpt lat="43.35882" lon="-1.57972">
        <ele>11</ele>
        <time>2026-03-06T14:12:08.000Z</time>
      </trkpt>
      <trkpt lat="43.35852" lon="-1.57913">
        <ele>12</ele>
        <time>2026-03-06T14:12:17.000Z</time>
      </trkpt>
      <trkpt lat="43.35838" lon="-1.57869">
        <ele>11</ele>
        <time>2026-03-06T14:12:24.000Z</time>
      </trkpt>
      <trkpt lat="43.35807" lon="-1.5772">
        <ele>12</ele>
        <time>2026-03-06T14:12:44.000Z</time>
      </trkpt>
      <trkpt lat="43.35782" lon="-1.57586">
        <ele>13</ele>
        <time>2026-03-06T14:13:02.000Z</time>
      </trkpt>
      <trkpt lat="43.35779" lon="-1.57552">
        <ele>13</ele>
        <time>2026-03-06T14:13:06.000Z</time>
      </trkpt>
      <trkpt lat="43.35779" lon="-1.57526">
        <ele>13</ele>
        <time>2026-03-06T14:13:09.000Z</time>
      </trkpt>
      <trkpt lat="43.35774" lon="-1.5748">
        <ele>13</ele>
        <time>2026-03-06T14:13:15.000Z</time>
      </trkpt>
      <trkpt lat="43.3577" lon="-1.57476">
        <ele>13</ele>
        <time>2026-03-06T14:13:16.000Z</time>
      </trkpt>
      <trkpt lat="43.35768" lon="-1.57469">
        <ele>13</ele>
        <time>2026-03-06T14:13:17.000Z</time>
      </trkpt>
      <trkpt lat="43.35771" lon="-1.57459">
        <ele>13</ele>
        <time>2026-03-06T14:13:19.000Z</time>
      </trkpt>
      <trkpt lat="43.35767" lon="-1.57433">
        <ele>13</ele>
        <time>2026-03-06T14:13:22.000Z</time>
      </trkpt>
      <trkpt lat="43.35763" lon="-1.57418">
        <ele>13</ele>
        <time>2026-03-06T14:13:24.000Z</time>
      </trkpt>
      <trkpt lat="43.35745" lon="-1.57225">
        <ele>14</ele>
        <time>2026-03-06T14:13:49.000Z</time>
      </trkpt>
      <trkpt lat="43.3574" lon="-1.57189">
        <ele>15</ele>
        <time>2026-03-06T14:13:54.000Z</time>
      </trkpt>
      <trkpt lat="43.35733" lon="-1.5716">
        <ele>15</ele>
        <time>2026-03-06T14:13:58.000Z</time>
      </trkpt>
      <trkpt lat="43.35723" lon="-1.57132">
        <ele>15</ele>
        <time>2026-03-06T14:14:02.000Z</time>
      </trkpt>
      <trkpt lat="43.35625" lon="-1.56922">
        <ele>17</ele>
        <time>2026-03-06T14:14:34.000Z</time>
      </trkpt>
      <trkpt lat="43.35597" lon="-1.56872">
        <ele>17</ele>
        <time>2026-03-06T14:14:43.000Z</time>
      </trkpt>
      <trkpt lat="43.35588" lon="-1.56851">
        <ele>17</ele>
        <time>2026-03-06T14:14:46.000Z</time>
      </trkpt>
      <trkpt lat="43.35586" lon="-1.56839">
        <ele>17</ele>
        <time>2026-03-06T14:14:47.000Z</time>
      </trkpt>
      <trkpt lat="43.35585" lon="-1.56813">
        <ele>17</ele>
        <time>2026-03-06T14:14:51.000Z</time>
      </trkpt>
      <trkpt lat="43.35589" lon="-1.56787">
        <ele>17</ele>
        <time>2026-03-06T14:14:54.000Z</time>
      </trkpt>
      <trkpt lat="43.35608" lon="-1.56729">
        <ele>18</ele>
        <time>2026-03-06T14:15:02.000Z</time>
      </trkpt>
      <trkpt lat="43.35617" lon="-1.56692">
        <ele>19</ele>
        <time>2026-03-06T14:15:07.000Z</time>
      </trkpt>
      <trkpt lat="43.35625" lon="-1.56642">
        <ele>19</ele>
        <time>2026-03-06T14:15:14.000Z</time>
      </trkpt>
      <trkpt lat="43.35624" lon="-1.56615">
        <ele>19</ele>
        <time>2026-03-06T14:15:17.000Z</time>
      </trkpt>
      <trkpt lat="43.35619" lon="-1.56612">
        <ele>19</ele>
        <time>2026-03-06T14:15:18.000Z</time>
      </trkpt>
      <trkpt lat="43.35615" lon="-1.56601">
        <ele>19</ele>
        <time>2026-03-06T14:15:20.000Z</time>
      </trkpt>
      <trkpt lat="43.35617" lon="-1.56593">
        <ele>19</ele>
        <time>2026-03-06T14:15:21.000Z</time>
      </trkpt>
      <trkpt lat="43.35621" lon="-1.56588">
        <ele>19</ele>
        <time>2026-03-06T14:15:22.000Z</time>
      </trkpt>
      <trkpt lat="43.35624" lon="-1.56587">
        <ele>19</ele>
        <time>2026-03-06T14:15:23.000Z</time>
      </trkpt>
      <trkpt lat="43.35622" lon="-1.56558">
        <ele>19</ele>
        <time>2026-03-06T14:15:26.000Z</time>
      </trkpt>
      <trkpt lat="43.35622" lon="-1.56509">
        <ele>19</ele>
        <time>2026-03-06T14:15:33.000Z</time>
      </trkpt>
      <trkpt lat="43.35616" lon="-1.56498">
        <ele>18</ele>
        <time>2026-03-06T14:15:35.000Z</time>
      </trkpt>
      <trkpt lat="43.3561" lon="-1.56265">
        <ele>18</ele>
        <time>2026-03-06T14:16:05.000Z</time>
      </trkpt>
      <trkpt lat="43.3561" lon="-1.56201">
        <ele>19</ele>
        <time>2026-03-06T14:16:13.000Z</time>
      </trkpt>
      <trkpt lat="43.35614" lon="-1.56149">
        <ele>19</ele>
        <time>2026-03-06T14:16:20.000Z</time>
      </trkpt>
      <trkpt lat="43.35618" lon="-1.56125">
        <ele>18</ele>
        <time>2026-03-06T14:16:23.000Z</time>
      </trkpt>
      <trkpt lat="43.35635" lon="-1.56094">
        <ele>18</ele>
        <time>2026-03-06T14:16:28.000Z</time>
      </trkpt>
      <trkpt lat="43.35642" lon="-1.56085">
        <ele>17</ele>
        <time>2026-03-06T14:16:30.000Z</time>
      </trkpt>
      <trkpt lat="43.35648" lon="-1.5608">
        <ele>17</ele>
        <time>2026-03-06T14:16:31.000Z</time>
      </trkpt>
      <trkpt lat="43.35652" lon="-1.56086">
        <ele>18</ele>
        <time>2026-03-06T14:16:32.000Z</time>
      </trkpt>
      <trkpt lat="43.35721" lon="-1.56041">
        <ele>19</ele>
        <time>2026-03-06T14:16:46.000Z</time>
      </trkpt>
      <trkpt lat="43.3573" lon="-1.56032">
        <ele>19</ele>
        <time>2026-03-06T14:16:48.000Z</time>
      </trkpt>
      <trkpt lat="43.35734" lon="-1.56023">
        <ele>19</ele>
        <time>2026-03-06T14:16:49.000Z</time>
      </trkpt>
      <trkpt lat="43.35739" lon="-1.56006">
        <ele>18</ele>
        <time>2026-03-06T14:16:51.000Z</time>
      </trkpt>
      <trkpt lat="43.35737" lon="-1.55994">
        <ele>17</ele>
        <time>2026-03-06T14:16:53.000Z</time>
      </trkpt>
      <trkpt lat="43.35718" lon="-1.5597">
        <ele>16</ele>
        <time>2026-03-06T14:16:57.000Z</time>
      </trkpt>
      <trkpt lat="43.35682" lon="-1.55941">
        <ele>16</ele>
        <time>2026-03-06T14:17:05.000Z</time>
      </trkpt>
      <trkpt lat="43.35646" lon="-1.55913">
        <ele>16</ele>
        <time>2026-03-06T14:17:12.000Z</time>
      </trkpt>
      <trkpt lat="43.35632" lon="-1.55899">
        <ele>15</ele>
        <time>2026-03-06T14:17:15.000Z</time>
      </trkpt>
      <trkpt lat="43.35606" lon="-1.55857">
        <ele>15</ele>
        <time>2026-03-06T14:17:22.000Z</time>
      </trkpt>
      <trkpt lat="43.35592" lon="-1.55814">
        <ele>15</ele>
        <time>2026-03-06T14:17:29.000Z</time>
      </trkpt>
      <trkpt lat="43.35588" lon="-1.55791">
        <ele>16</ele>
        <time>2026-03-06T14:17:32.000Z</time>
      </trkpt>
      <trkpt lat="43.35585" lon="-1.55731">
        <ele>16</ele>
        <time>2026-03-06T14:17:39.000Z</time>
      </trkpt>
      <trkpt lat="43.35582" lon="-1.55558">
        <ele>14</ele>
        <time>2026-03-06T14:18:02.000Z</time>
      </trkpt>
      <trkpt lat="43.35581" lon="-1.55514">
        <ele>13</ele>
        <time>2026-03-06T14:18:07.000Z</time>
      </trkpt>
      <trkpt lat="43.35579" lon="-1.55487">
        <ele>14</ele>
        <time>2026-03-06T14:18:11.000Z</time>
      </trkpt>
      <trkpt lat="43.35574" lon="-1.55465">
        <ele>14</ele>
        <time>2026-03-06T14:18:14.000Z</time>
      </trkpt>
      <trkpt lat="43.35563" lon="-1.55444">
        <ele>15</ele>
        <time>2026-03-06T14:18:17.000Z</time>
      </trkpt>
      <trkpt lat="43.35552" lon="-1.55434">
        <ele>15</ele>
        <time>2026-03-06T14:18:20.000Z</time>
      </trkpt>
      <trkpt lat="43.35547" lon="-1.55433">
        <ele>15</ele>
        <time>2026-03-06T14:18:21.000Z</time>
      </trkpt>
      <trkpt lat="43.3554" lon="-1.55426">
        <ele>15</ele>
        <time>2026-03-06T14:18:22.000Z</time>
      </trkpt>
      <trkpt lat="43.35537" lon="-1.55419">
        <ele>15</ele>
        <time>2026-03-06T14:18:23.000Z</time>
      </trkpt>
      <trkpt lat="43.35537" lon="-1.55411">
        <ele>16</ele>
        <time>2026-03-06T14:18:24.000Z</time>
      </trkpt>
      <trkpt lat="43.35523" lon="-1.55388">
        <ele>16</ele>
        <time>2026-03-06T14:18:28.000Z</time>
      </trkpt>
      <trkpt lat="43.35509" lon="-1.55378">
        <ele>16</ele>
        <time>2026-03-06T14:18:31.000Z</time>
      </trkpt>
      <trkpt lat="43.35496" lon="-1.55373">
        <ele>16</ele>
        <time>2026-03-06T14:18:33.000Z</time>
      </trkpt>
      <trkpt lat="43.35483" lon="-1.5537">
        <ele>16</ele>
        <time>2026-03-06T14:18:36.000Z</time>
      </trkpt>
      <trkpt lat="43.35456" lon="-1.55371">
        <ele>16</ele>
        <time>2026-03-06T14:18:40.000Z</time>
      </trkpt>
      <trkpt lat="43.35398" lon="-1.5538">
        <ele>16</ele>
        <time>2026-03-06T14:18:51.000Z</time>
      </trkpt>
      <trkpt lat="43.35369" lon="-1.55382">
        <ele>16</ele>
        <time>2026-03-06T14:18:56.000Z</time>
      </trkpt>
      <trkpt lat="43.35338" lon="-1.55377">
        <ele>16</ele>
        <time>2026-03-06T14:19:02.000Z</time>
      </trkpt>
      <trkpt lat="43.35313" lon="-1.55363">
        <ele>17</ele>
        <time>2026-03-06T14:19:06.000Z</time>
      </trkpt>
      <trkpt lat="43.35293" lon="-1.55347">
        <ele>17</ele>
        <time>2026-03-06T14:19:10.000Z</time>
      </trkpt>
      <trkpt lat="43.35274" lon="-1.55324">
        <ele>18</ele>
        <time>2026-03-06T14:19:15.000Z</time>
      </trkpt>
      <trkpt lat="43.35261" lon="-1.55301">
        <ele>17</ele>
        <time>2026-03-06T14:19:19.000Z</time>
      </trkpt>
      <trkpt lat="43.35241" lon="-1.55255">
        <ele>17</ele>
        <time>2026-03-06T14:19:26.000Z</time>
      </trkpt>
      <trkpt lat="43.35211" lon="-1.55188">
        <ele>16</ele>
        <time>2026-03-06T14:19:36.000Z</time>
      </trkpt>
      <trkpt lat="43.35123" lon="-1.5499">
        <ele>18</ele>
        <time>2026-03-06T14:20:06.000Z</time>
      </trkpt>
      <trkpt lat="43.35117" lon="-1.54993">
        <ele>18</ele>
        <time>2026-03-06T14:20:07.000Z</time>
      </trkpt>
      <trkpt lat="43.3511" lon="-1.54994">
        <ele>18</ele>
        <time>2026-03-06T14:20:08.000Z</time>
      </trkpt>
      <trkpt lat="43.35104" lon="-1.54993">
        <ele>18</ele>
        <time>2026-03-06T14:20:09.000Z</time>
      </trkpt>
      <trkpt lat="43.35098" lon="-1.54988">
        <ele>18</ele>
        <time>2026-03-06T14:20:11.000Z</time>
      </trkpt>
      <trkpt lat="43.35078" lon="-1.54991">
        <ele>19</ele>
        <time>2026-03-06T14:20:14.000Z</time>
      </trkpt>
      <trkpt lat="43.34874" lon="-1.55162">
        <ele>21</ele>
        <time>2026-03-06T14:20:57.000Z</time>
      </trkpt>
      <trkpt lat="43.34865" lon="-1.55186">
        <ele>20</ele>
        <time>2026-03-06T14:21:00.000Z</time>
      </trkpt>
      <trkpt lat="43.34859" lon="-1.55222">
        <ele>19</ele>
        <time>2026-03-06T14:21:05.000Z</time>
      </trkpt>
      <trkpt lat="43.34857" lon="-1.5523">
        <ele>19</ele>
        <time>2026-03-06T14:21:06.000Z</time>
      </trkpt>
      <trkpt lat="43.34847" lon="-1.55243">
        <ele>18</ele>
        <time>2026-03-06T14:21:08.000Z</time>
      </trkpt>
      <trkpt lat="43.34831" lon="-1.55248">
        <ele>18</ele>
        <time>2026-03-06T14:21:11.000Z</time>
      </trkpt>
      <trkpt lat="43.34821" lon="-1.55247">
        <ele>18</ele>
        <time>2026-03-06T14:21:13.000Z</time>
      </trkpt>
      <trkpt lat="43.34801" lon="-1.55235">
        <ele>19</ele>
        <time>2026-03-06T14:21:17.000Z</time>
      </trkpt>
      <trkpt lat="43.34597" lon="-1.55214">
        <ele>19</ele>
        <time>2026-03-06T14:21:53.000Z</time>
      </trkpt>
      <trkpt lat="43.34571" lon="-1.55205">
        <ele>19</ele>
        <time>2026-03-06T14:21:58.000Z</time>
      </trkpt>
      <trkpt lat="43.34546" lon="-1.55186">
        <ele>20</ele>
        <time>2026-03-06T14:22:03.000Z</time>
      </trkpt>
      <trkpt lat="43.3449" lon="-1.55114">
        <ele>22</ele>
        <time>2026-03-06T14:22:17.000Z</time>
      </trkpt>
      <trkpt lat="43.3434" lon="-1.5491">
        <ele>30</ele>
        <time>2026-03-06T14:22:54.000Z</time>
      </trkpt>
      <trkpt lat="43.34316" lon="-1.54886">
        <ele>30</ele>
        <time>2026-03-06T14:23:00.000Z</time>
      </trkpt>
      <trkpt lat="43.34293" lon="-1.54871">
        <ele>30</ele>
        <time>2026-03-06T14:23:04.000Z</time>
      </trkpt>
      <trkpt lat="43.34268" lon="-1.54861">
        <ele>31</ele>
        <time>2026-03-06T14:23:09.000Z</time>
      </trkpt>
      <trkpt lat="43.34239" lon="-1.54859">
        <ele>32</ele>
        <time>2026-03-06T14:23:14.000Z</time>
      </trkpt>
      <trkpt lat="43.34212" lon="-1.54863">
        <ele>33</ele>
        <time>2026-03-06T14:23:19.000Z</time>
      </trkpt>
      <trkpt lat="43.34189" lon="-1.54871">
        <ele>34</ele>
        <time>2026-03-06T14:23:23.000Z</time>
      </trkpt>
      <trkpt lat="43.33917" lon="-1.55038">
        <ele>45</ele>
        <time>2026-03-06T14:24:16.000Z</time>
      </trkpt>
      <trkpt lat="43.33903" lon="-1.55043">
        <ele>44</ele>
        <time>2026-03-06T14:24:19.000Z</time>
      </trkpt>
      <trkpt lat="43.33883" lon="-1.55045">
        <ele>42</ele>
        <time>2026-03-06T14:24:22.000Z</time>
      </trkpt>
      <trkpt lat="43.33864" lon="-1.55037">
        <ele>40</ele>
        <time>2026-03-06T14:24:26.000Z</time>
      </trkpt>
      <trkpt lat="43.33759" lon="-1.54975">
        <ele>34</ele>
        <time>2026-03-06T14:24:46.000Z</time>
      </trkpt>
      <trkpt lat="43.33749" lon="-1.54969">
        <ele>33</ele>
        <time>2026-03-06T14:24:48.000Z</time>
      </trkpt>
      <trkpt lat="43.33689" lon="-1.54934">
        <ele>34</ele>
        <time>2026-03-06T14:25:00.000Z</time>
      </trkpt>
      <trkpt lat="43.33606" lon="-1.54902">
        <ele>38</ele>
        <time>2026-03-06T14:25:15.000Z</time>
      </trkpt>
      <trkpt lat="43.33531" lon="-1.54866">
        <ele>36</ele>
        <time>2026-03-06T14:25:29.000Z</time>
      </trkpt>
      <trkpt lat="43.33451" lon="-1.54835">
        <ele>35</ele>
        <time>2026-03-06T14:25:44.000Z</time>
      </trkpt>
      <trkpt lat="43.33342" lon="-1.5481">
        <ele>40</ele>
        <time>2026-03-06T14:26:04.000Z</time>
      </trkpt>
      <trkpt lat="43.33316" lon="-1.54798">
        <ele>42</ele>
        <time>2026-03-06T14:26:09.000Z</time>
      </trkpt>
      <trkpt lat="43.33226" lon="-1.54715">
        <ele>40</ele>
        <time>2026-03-06T14:26:28.000Z</time>
      </trkpt>
      <trkpt lat="43.3321" lon="-1.54694">
        <ele>39</ele>
        <time>2026-03-06T14:26:32.000Z</time>
      </trkpt>
      <trkpt lat="43.332" lon="-1.54673">
        <ele>38</ele>
        <time>2026-03-06T14:26:35.000Z</time>
      </trkpt>
      <trkpt lat="43.3317" lon="-1.54594">
        <ele>35</ele>
        <time>2026-03-06T14:26:47.000Z</time>
      </trkpt>
      <trkpt lat="43.33146" lon="-1.54555">
        <ele>34</ele>
        <time>2026-03-06T14:26:53.000Z</time>
      </trkpt>
      <trkpt lat="43.3308" lon="-1.54478">
        <ele>32</ele>
        <time>2026-03-06T14:27:09.000Z</time>
      </trkpt>
      <trkpt lat="43.33056" lon="-1.54454">
        <ele>32</ele>
        <time>2026-03-06T14:27:14.000Z</time>
      </trkpt>
      <trkpt lat="43.33034" lon="-1.54441">
        <ele>31</ele>
        <time>2026-03-06T14:27:18.000Z</time>
      </trkpt>
      <trkpt lat="43.33014" lon="-1.54435">
        <ele>31</ele>
        <time>2026-03-06T14:27:22.000Z</time>
      </trkpt>
      <trkpt lat="43.32992" lon="-1.54437">
        <ele>31</ele>
        <time>2026-03-06T14:27:26.000Z</time>
      </trkpt>
      <trkpt lat="43.32973" lon="-1.54445">
        <ele>31</ele>
        <time>2026-03-06T14:27:29.000Z</time>
      </trkpt>
      <trkpt lat="43.32935" lon="-1.54467">
        <ele>32</ele>
        <time>2026-03-06T14:27:37.000Z</time>
      </trkpt>
      <trkpt lat="43.32876" lon="-1.54504">
        <ele>34</ele>
        <time>2026-03-06T14:27:48.000Z</time>
      </trkpt>
      <trkpt lat="43.32846" lon="-1.54527">
        <ele>37</ele>
        <time>2026-03-06T14:27:54.000Z</time>
      </trkpt>
      <trkpt lat="43.32564" lon="-1.54806">
        <ele>36</ele>
        <time>2026-03-06T14:28:56.000Z</time>
      </trkpt>
      <trkpt lat="43.32463" lon="-1.54893">
        <ele>34</ele>
        <time>2026-03-06T14:29:17.000Z</time>
      </trkpt>
      <trkpt lat="43.32445" lon="-1.54904">
        <ele>34</ele>
        <time>2026-03-06T14:29:21.000Z</time>
      </trkpt>
      <trkpt lat="43.32245" lon="-1.54992">
        <ele>30</ele>
        <time>2026-03-06T14:29:58.000Z</time>
      </trkpt>
      <trkpt lat="43.32183" lon="-1.55023">
        <ele>30</ele>
        <time>2026-03-06T14:30:10.000Z</time>
      </trkpt>
      <trkpt lat="43.32166" lon="-1.55034">
        <ele>31</ele>
        <time>2026-03-06T14:30:13.000Z</time>
      </trkpt>
      <trkpt lat="43.32152" lon="-1.55048">
        <ele>31</ele>
        <time>2026-03-06T14:30:16.000Z</time>
      </trkpt>
      <trkpt lat="43.32146" lon="-1.55058">
        <ele>31</ele>
        <time>2026-03-06T14:30:18.000Z</time>
      </trkpt>
      <trkpt lat="43.3214" lon="-1.55075">
        <ele>32</ele>
        <time>2026-03-06T14:30:20.000Z</time>
      </trkpt>
      <trkpt lat="43.32091" lon="-1.55274">
        <ele>33</ele>
        <time>2026-03-06T14:30:48.000Z</time>
      </trkpt>
      <trkpt lat="43.32078" lon="-1.55312">
        <ele>33</ele>
        <time>2026-03-06T14:30:53.000Z</time>
      </trkpt>
      <trkpt lat="43.32064" lon="-1.55338">
        <ele>34</ele>
        <time>2026-03-06T14:30:57.000Z</time>
      </trkpt>
      <trkpt lat="43.32054" lon="-1.5535">
        <ele>34</ele>
        <time>2026-03-06T14:31:00.000Z</time>
      </trkpt>
      <trkpt lat="43.32007" lon="-1.55395">
        <ele>35</ele>
        <time>2026-03-06T14:31:10.000Z</time>
      </trkpt>
      <trkpt lat="43.31996" lon="-1.55417">
        <ele>35</ele>
        <time>2026-03-06T14:31:13.000Z</time>
      </trkpt>
      <trkpt lat="43.3199" lon="-1.55439">
        <ele>35</ele>
        <time>2026-03-06T14:31:16.000Z</time>
      </trkpt>
      <trkpt lat="43.31962" lon="-1.55573">
        <ele>37</ele>
        <time>2026-03-06T14:31:34.000Z</time>
      </trkpt>
      <trkpt lat="43.31948" lon="-1.55631">
        <ele>40</ele>
        <time>2026-03-06T14:31:42.000Z</time>
      </trkpt>
      <trkpt lat="43.31941" lon="-1.55653">
        <ele>41</ele>
        <time>2026-03-06T14:31:45.000Z</time>
      </trkpt>
      <trkpt lat="43.3192" lon="-1.55689">
        <ele>43</ele>
        <time>2026-03-06T14:31:51.000Z</time>
      </trkpt>
      <trkpt lat="43.31864" lon="-1.55764">
        <ele>46</ele>
        <time>2026-03-06T14:32:05.000Z</time>
      </trkpt>
      <trkpt lat="43.31836" lon="-1.5581">
        <ele>46</ele>
        <time>2026-03-06T14:32:13.000Z</time>
      </trkpt>
      <trkpt lat="43.31809" lon="-1.55859">
        <ele>48</ele>
        <time>2026-03-06T14:32:21.000Z</time>
      </trkpt>
      <trkpt lat="43.31774" lon="-1.55909">
        <ele>50</ele>
        <time>2026-03-06T14:32:30.000Z</time>
      </trkpt>
      <trkpt lat="43.31763" lon="-1.55933">
        <ele>51</ele>
        <time>2026-03-06T14:32:34.000Z</time>
      </trkpt>
      <trkpt lat="43.31756" lon="-1.55967">
        <ele>52</ele>
        <time>2026-03-06T14:32:38.000Z</time>
      </trkpt>
      <trkpt lat="43.31748" lon="-1.55985">
        <ele>52</ele>
        <time>2026-03-06T14:32:41.000Z</time>
      </trkpt>
      <trkpt lat="43.31735" lon="-1.56002">
        <ele>53</ele>
        <time>2026-03-06T14:32:44.000Z</time>
      </trkpt>
      <trkpt lat="43.31662" lon="-1.56079">
        <ele>57</ele>
        <time>2026-03-06T14:33:00.000Z</time>
      </trkpt>
      <trkpt lat="43.31606" lon="-1.5614">
        <ele>54</ele>
        <time>2026-03-06T14:33:13.000Z</time>
      </trkpt>
      <trkpt lat="43.3159" lon="-1.56152">
        <ele>53</ele>
        <time>2026-03-06T14:33:16.000Z</time>
      </trkpt>
      <trkpt lat="43.31574" lon="-1.56157">
        <ele>53</ele>
        <time>2026-03-06T14:33:19.000Z</time>
      </trkpt>
      <trkpt lat="43.31559" lon="-1.56155">
        <ele>53</ele>
        <time>2026-03-06T14:33:22.000Z</time>
      </trkpt>
      <trkpt lat="43.31553" lon="-1.56153">
        <ele>52</ele>
        <time>2026-03-06T14:33:23.000Z</time>
      </trkpt>
      <trkpt lat="43.31496" lon="-1.56112">
        <ele>49</ele>
        <time>2026-03-06T14:33:35.000Z</time>
      </trkpt>
      <trkpt lat="43.31485" lon="-1.56107">
        <ele>48</ele>
        <time>2026-03-06T14:33:37.000Z</time>
      </trkpt>
      <trkpt lat="43.31477" lon="-1.56106">
        <ele>47</ele>
        <time>2026-03-06T14:33:38.000Z</time>
      </trkpt>
      <trkpt lat="43.31468" lon="-1.56113">
        <ele>46</ele>
        <time>2026-03-06T14:33:40.000Z</time>
      </trkpt>
      <trkpt lat="43.31461" lon="-1.56126">
        <ele>46</ele>
        <time>2026-03-06T14:33:42.000Z</time>
      </trkpt>
      <trkpt lat="43.31458" lon="-1.56134">
        <ele>46</ele>
        <time>2026-03-06T14:33:43.000Z</time>
      </trkpt>
      <trkpt lat="43.31448" lon="-1.56194">
        <ele>46</ele>
        <time>2026-03-06T14:33:51.000Z</time>
      </trkpt>
      <trkpt lat="43.31439" lon="-1.56228">
        <ele>45</ele>
        <time>2026-03-06T14:33:56.000Z</time>
      </trkpt>
      <trkpt lat="43.31429" lon="-1.56255">
        <ele>44</ele>
        <time>2026-03-06T14:34:00.000Z</time>
      </trkpt>
      <trkpt lat="43.31417" lon="-1.56278">
        <ele>44</ele>
        <time>2026-03-06T14:34:03.000Z</time>
      </trkpt>
      <trkpt lat="43.31401" lon="-1.56299">
        <ele>44</ele>
        <time>2026-03-06T14:34:07.000Z</time>
      </trkpt>
      <trkpt lat="43.31391" lon="-1.56308">
        <ele>44</ele>
        <time>2026-03-06T14:34:09.000Z</time>
      </trkpt>
      <trkpt lat="43.31331" lon="-1.56357">
        <ele>44</ele>
        <time>2026-03-06T14:34:22.000Z</time>
      </trkpt>
      <trkpt lat="43.31316" lon="-1.56371">
        <ele>45</ele>
        <time>2026-03-06T14:34:25.000Z</time>
      </trkpt>
      <trkpt lat="43.31305" lon="-1.56386">
        <ele>46</ele>
        <time>2026-03-06T14:34:28.000Z</time>
      </trkpt>
      <trkpt lat="43.31264" lon="-1.56459">
        <ele>47</ele>
        <time>2026-03-06T14:34:40.000Z</time>
      </trkpt>
      <trkpt lat="43.31245" lon="-1.56484">
        <ele>47</ele>
        <time>2026-03-06T14:34:44.000Z</time>
      </trkpt>
      <trkpt lat="43.31226" lon="-1.56498">
        <ele>47</ele>
        <time>2026-03-06T14:34:48.000Z</time>
      </trkpt>
      <trkpt lat="43.31124" lon="-1.56559">
        <ele>48</ele>
        <time>2026-03-06T14:35:08.000Z</time>
      </trkpt>
      <trkpt lat="43.31059" lon="-1.56599">
        <ele>47</ele>
        <time>2026-03-06T14:35:21.000Z</time>
      </trkpt>
      <trkpt lat="43.31033" lon="-1.56626">
        <ele>48</ele>
        <time>2026-03-06T14:35:27.000Z</time>
      </trkpt>
      <trkpt lat="43.30981" lon="-1.56719">
        <ele>50</ele>
        <time>2026-03-06T14:35:42.000Z</time>
      </trkpt>
      <trkpt lat="43.30947" lon="-1.56775">
        <ele>49</ele>
        <time>2026-03-06T14:35:51.000Z</time>
      </trkpt>
      <trkpt lat="43.3094" lon="-1.56798">
        <ele>49</ele>
        <time>2026-03-06T14:35:54.000Z</time>
      </trkpt>
      <trkpt lat="43.30918" lon="-1.56887">
        <ele>50</ele>
        <time>2026-03-06T14:36:07.000Z</time>
      </trkpt>
      <trkpt lat="43.30918" lon="-1.56908">
        <ele>51</ele>
        <time>2026-03-06T14:36:09.000Z</time>
      </trkpt>
      <trkpt lat="43.30921" lon="-1.56933">
        <ele>51</ele>
        <time>2026-03-06T14:36:13.000Z</time>
      </trkpt>
      <trkpt lat="43.30933" lon="-1.56976">
        <ele>50</ele>
        <time>2026-03-06T14:36:19.000Z</time>
      </trkpt>
      <trkpt lat="43.30952" lon="-1.57024">
        <ele>50</ele>
        <time>2026-03-06T14:36:26.000Z</time>
      </trkpt>
      <trkpt lat="43.30978" lon="-1.57064">
        <ele>50</ele>
        <time>2026-03-06T14:36:33.000Z</time>
      </trkpt>
      <trkpt lat="43.30984" lon="-1.57075">
        <ele>50</ele>
        <time>2026-03-06T14:36:34.000Z</time>
      </trkpt>
      <trkpt lat="43.30988" lon="-1.57086">
        <ele>49</ele>
        <time>2026-03-06T14:36:36.000Z</time>
      </trkpt>
      <trkpt lat="43.30989" lon="-1.57111">
        <ele>49</ele>
        <time>2026-03-06T14:36:39.000Z</time>
      </trkpt>
      <trkpt lat="43.30987" lon="-1.57138">
        <ele>48</ele>
        <time>2026-03-06T14:36:43.000Z</time>
      </trkpt>
      <trkpt lat="43.3098" lon="-1.57165">
        <ele>47</ele>
        <time>2026-03-06T14:36:46.000Z</time>
      </trkpt>
      <trkpt lat="43.30968" lon="-1.57201">
        <ele>47</ele>
        <time>2026-03-06T14:36:51.000Z</time>
      </trkpt>
      <trkpt lat="43.30967" lon="-1.57219">
        <ele>47</ele>
        <time>2026-03-06T14:36:54.000Z</time>
      </trkpt>
      <trkpt lat="43.30968" lon="-1.57222">
        <ele>47</ele>
        <time>2026-03-06T14:36:54.000Z</time>
      </trkpt>
      <trkpt lat="43.30976" lon="-1.5723">
        <ele>48</ele>
        <time>2026-03-06T14:36:56.000Z</time>
      </trkpt>
      <trkpt lat="43.31007" lon="-1.57234">
        <ele>48</ele>
        <time>2026-03-06T14:37:02.000Z</time>
      </trkpt>
      <trkpt lat="43.3105" lon="-1.57243">
        <ele>46</ele>
        <time>2026-03-06T14:37:09.000Z</time>
      </trkpt>
      <trkpt lat="43.31078" lon="-1.57256">
        <ele>44</ele>
        <time>2026-03-06T14:37:15.000Z</time>
      </trkpt>
      <trkpt lat="43.31095" lon="-1.57271">
        <ele>45</ele>
        <time>2026-03-06T14:37:18.000Z</time>
      </trkpt>
      <trkpt lat="43.31221" lon="-1.57392">
        <ele>51</ele>
        <time>2026-03-06T14:37:45.000Z</time>
      </trkpt>
      <trkpt lat="43.31256" lon="-1.57422">
        <ele>51</ele>
        <time>2026-03-06T14:37:53.000Z</time>
      </trkpt>
      <trkpt lat="43.31333" lon="-1.57478">
        <ele>53</ele>
        <time>2026-03-06T14:38:08.000Z</time>
      </trkpt>
      <trkpt lat="43.31351" lon="-1.57496">
        <ele>53</ele>
        <time>2026-03-06T14:38:12.000Z</time>
      </trkpt>
      <trkpt lat="43.31359" lon="-1.57506">
        <ele>54</ele>
        <time>2026-03-06T14:38:14.000Z</time>
      </trkpt>
      <trkpt lat="43.31369" lon="-1.57529">
        <ele>55</ele>
        <time>2026-03-06T14:38:18.000Z</time>
      </trkpt>
      <trkpt lat="43.31382" lon="-1.5757">
        <ele>56</ele>
        <time>2026-03-06T14:38:23.000Z</time>
      </trkpt>
      <trkpt lat="43.3144" lon="-1.57773">
        <ele>61</ele>
        <time>2026-03-06T14:38:52.000Z</time>
      </trkpt>
      <trkpt lat="43.31496" lon="-1.5798">
        <ele>55</ele>
        <time>2026-03-06T14:39:20.000Z</time>
      </trkpt>
      <trkpt lat="43.31502" lon="-1.58012">
        <ele>55</ele>
        <time>2026-03-06T14:39:25.000Z</time>
      </trkpt>
      <trkpt lat="43.31503" lon="-1.58036">
        <ele>56</ele>
        <time>2026-03-06T14:39:28.000Z</time>
      </trkpt>
      <trkpt lat="43.315" lon="-1.58057">
        <ele>56</ele>
        <time>2026-03-06T14:39:30.000Z</time>
      </trkpt>
      <trkpt lat="43.31492" lon="-1.58083">
        <ele>57</ele>
        <time>2026-03-06T14:39:34.000Z</time>
      </trkpt>
      <trkpt lat="43.31462" lon="-1.58164">
        <ele>59</ele>
        <time>2026-03-06T14:39:46.000Z</time>
      </trkpt>
      <trkpt lat="43.31458" lon="-1.58182">
        <ele>59</ele>
        <time>2026-03-06T14:39:48.000Z</time>
      </trkpt>
      <trkpt lat="43.31456" lon="-1.58207">
        <ele>59</ele>
        <time>2026-03-06T14:39:52.000Z</time>
      </trkpt>
      <trkpt lat="43.31456" lon="-1.58226">
        <ele>60</ele>
        <time>2026-03-06T14:39:54.000Z</time>
      </trkpt>
      <trkpt lat="43.31458" lon="-1.5825">
        <ele>60</ele>
        <time>2026-03-06T14:39:57.000Z</time>
      </trkpt>
      <trkpt lat="43.31464" lon="-1.58271">
        <ele>61</ele>
        <time>2026-03-06T14:40:00.000Z</time>
      </trkpt>
      <trkpt lat="43.31472" lon="-1.58277">
        <ele>61</ele>
        <time>2026-03-06T14:40:02.000Z</time>
      </trkpt>
      <trkpt lat="43.31476" lon="-1.58287">
        <ele>61</ele>
        <time>2026-03-06T14:40:03.000Z</time>
      </trkpt>
      <trkpt lat="43.31476" lon="-1.583">
        <ele>62</ele>
        <time>2026-03-06T14:40:05.000Z</time>
      </trkpt>
      <trkpt lat="43.31473" lon="-1.58306">
        <ele>62</ele>
        <time>2026-03-06T14:40:06.000Z</time>
      </trkpt>
      <trkpt lat="43.31464" lon="-1.58313">
        <ele>62</ele>
        <time>2026-03-06T14:40:08.000Z</time>
      </trkpt>
      <trkpt lat="43.31455" lon="-1.58311">
        <ele>61</ele>
        <time>2026-03-06T14:40:09.000Z</time>
      </trkpt>
      <trkpt lat="43.31443" lon="-1.58321">
        <ele>61</ele>
        <time>2026-03-06T14:40:12.000Z</time>
      </trkpt>
      <trkpt lat="43.31425" lon="-1.58356">
        <ele>61</ele>
        <time>2026-03-06T14:40:17.000Z</time>
      </trkpt>
      <trkpt lat="43.3142" lon="-1.58364">
        <ele>61</ele>
        <time>2026-03-06T14:40:19.000Z</time>
      </trkpt>
      <trkpt lat="43.31412" lon="-1.58372">
        <ele>61</ele>
        <time>2026-03-06T14:40:20.000Z</time>
      </trkpt>
      <trkpt lat="43.31351" lon="-1.58408">
        <ele>61</ele>
        <time>2026-03-06T14:40:32.000Z</time>
      </trkpt>
      <trkpt lat="43.31319" lon="-1.58425">
        <ele>61</ele>
        <time>2026-03-06T14:40:38.000Z</time>
      </trkpt>
      <trkpt lat="43.31297" lon="-1.58431">
        <ele>61</ele>
        <time>2026-03-06T14:40:42.000Z</time>
      </trkpt>
      <trkpt lat="43.31277" lon="-1.58432">
        <ele>61</ele>
        <time>2026-03-06T14:40:46.000Z</time>
      </trkpt>
      <trkpt lat="43.31177" lon="-1.58415">
        <ele>60</ele>
        <time>2026-03-06T14:41:04.000Z</time>
      </trkpt>
      <trkpt lat="43.31151" lon="-1.58417">
        <ele>60</ele>
        <time>2026-03-06T14:41:08.000Z</time>
      </trkpt>
      <trkpt lat="43.31124" lon="-1.58425">
        <ele>60</ele>
        <time>2026-03-06T14:41:13.000Z</time>
      </trkpt>
      <trkpt lat="43.31111" lon="-1.5843">
        <ele>59</ele>
        <time>2026-03-06T14:41:16.000Z</time>
      </trkpt>
      <trkpt lat="43.30998" lon="-1.58508">
        <ele>64</ele>
        <time>2026-03-06T14:41:38.000Z</time>
      </trkpt>
      <trkpt lat="43.30918" lon="-1.58569">
        <ele>65</ele>
        <time>2026-03-06T14:41:55.000Z</time>
      </trkpt>
      <trkpt lat="43.30885" lon="-1.58596">
        <ele>66</ele>
        <time>2026-03-06T14:42:01.000Z</time>
      </trkpt>
      <trkpt lat="43.30871" lon="-1.58611">
        <ele>67</ele>
        <time>2026-03-06T14:42:05.000Z</time>
      </trkpt>
      <trkpt lat="43.30849" lon="-1.58642">
        <ele>68</ele>
        <time>2026-03-06T14:42:10.000Z</time>
      </trkpt>
      <trkpt lat="43.3071" lon="-1.58871">
        <ele>78</ele>
        <time>2026-03-06T14:42:49.000Z</time>
      </trkpt>
      <trkpt lat="43.30697" lon="-1.589">
        <ele>80</ele>
        <time>2026-03-06T14:42:53.000Z</time>
      </trkpt>
      <trkpt lat="43.30682" lon="-1.58928">
        <ele>80</ele>
        <time>2026-03-06T14:42:58.000Z</time>
      </trkpt>
      <trkpt lat="43.3053" lon="-1.5916">
        <ele>90</ele>
        <time>2026-03-06T14:43:38.000Z</time>
      </trkpt>
      <trkpt lat="43.30494" lon="-1.59208">
        <ele>93</ele>
        <time>2026-03-06T14:43:47.000Z</time>
      </trkpt>
      <trkpt lat="43.30476" lon="-1.5923">
        <ele>95</ele>
        <time>2026-03-06T14:43:51.000Z</time>
      </trkpt>
      <trkpt lat="43.3046" lon="-1.59243">
        <ele>97</ele>
        <time>2026-03-06T14:43:55.000Z</time>
      </trkpt>
      <trkpt lat="43.30406" lon="-1.59276">
        <ele>99</ele>
        <time>2026-03-06T14:44:05.000Z</time>
      </trkpt>
      <trkpt lat="43.3039" lon="-1.59285">
        <ele>100</ele>
        <time>2026-03-06T14:44:08.000Z</time>
      </trkpt>
      <trkpt lat="43.30377" lon="-1.59287">
        <ele>100</ele>
        <time>2026-03-06T14:44:11.000Z</time>
      </trkpt>
      <trkpt lat="43.30294" lon="-1.59278">
        <ele>102</ele>
        <time>2026-03-06T14:44:25.000Z</time>
      </trkpt>
      <trkpt lat="43.30269" lon="-1.59269">
        <ele>102</ele>
        <time>2026-03-06T14:44:30.000Z</time>
      </trkpt>
      <trkpt lat="43.30254" lon="-1.5926">
        <ele>101</ele>
        <time>2026-03-06T14:44:33.000Z</time>
      </trkpt>
      <trkpt lat="43.30245" lon="-1.59252">
        <ele>101</ele>
        <time>2026-03-06T14:44:35.000Z</time>
      </trkpt>
      <trkpt lat="43.30234" lon="-1.59236">
        <ele>101</ele>
        <time>2026-03-06T14:44:38.000Z</time>
      </trkpt>
      <trkpt lat="43.30199" lon="-1.59173">
        <ele>101</ele>
        <time>2026-03-06T14:44:48.000Z</time>
      </trkpt>
      <trkpt lat="43.30149" lon="-1.59094">
        <ele>103</ele>
        <time>2026-03-06T14:45:01.000Z</time>
      </trkpt>
      <trkpt lat="43.30111" lon="-1.59052">
        <ele>103</ele>
        <time>2026-03-06T14:45:10.000Z</time>
      </trkpt>
      <trkpt lat="43.3013" lon="-1.59041">
        <ele>103</ele>
        <time>2026-03-06T14:45:14.000Z</time>
      </trkpt>
      <trkpt lat="43.30145" lon="-1.59029">
        <ele>103</ele>
        <time>2026-03-06T14:45:17.000Z</time>
      </trkpt>
      <trkpt lat="43.30156" lon="-1.59016">
        <ele>103</ele>
        <time>2026-03-06T14:45:19.000Z</time>
      </trkpt>
      <trkpt lat="43.30168" lon="-1.58991">
        <ele>103</ele>
        <time>2026-03-06T14:45:23.000Z</time>
      </trkpt>
      <trkpt lat="43.30187" lon="-1.5893">
        <ele>101</ele>
        <time>2026-03-06T14:45:32.000Z</time>
      </trkpt>
      <trkpt lat="43.30198" lon="-1.58869">
        <ele>98</ele>
        <time>2026-03-06T14:45:40.000Z</time>
      </trkpt>
      <trkpt lat="43.30202" lon="-1.58832">
        <ele>96</ele>
        <time>2026-03-06T14:45:45.000Z</time>
      </trkpt>
      <trkpt lat="43.30207" lon="-1.58817">
        <ele>95</ele>
        <time>2026-03-06T14:45:47.000Z</time>
      </trkpt>
      <trkpt lat="43.30214" lon="-1.58801">
        <ele>94</ele>
        <time>2026-03-06T14:45:49.000Z</time>
      </trkpt>
      <trkpt lat="43.30259" lon="-1.58746">
        <ele>92</ele>
        <time>2026-03-06T14:46:00.000Z</time>
      </trkpt>
      <trkpt lat="43.30308" lon="-1.58693">
        <ele>91</ele>
        <time>2026-03-06T14:46:11.000Z</time>
      </trkpt>
      <trkpt lat="43.30364" lon="-1.58625">
        <ele>92</ele>
        <time>2026-03-06T14:46:25.000Z</time>
      </trkpt>
      <trkpt lat="43.30384" lon="-1.58597">
        <ele>92</ele>
        <time>2026-03-06T14:46:30.000Z</time>
      </trkpt>
      <trkpt lat="43.3039" lon="-1.58588">
        <ele>93</ele>
        <time>2026-03-06T14:46:31.000Z</time>
      </trkpt>
      <trkpt lat="43.30397" lon="-1.58569">
        <ele>93</ele>
        <time>2026-03-06T14:46:34.000Z</time>
      </trkpt>
      <trkpt lat="43.30416" lon="-1.58483">
        <ele>94</ele>
        <time>2026-03-06T14:46:46.000Z</time>
      </trkpt>
      <trkpt lat="43.30435" lon="-1.58416">
        <ele>92</ele>
        <time>2026-03-06T14:46:55.000Z</time>
      </trkpt>
      <trkpt lat="43.30472" lon="-1.58331">
        <ele>89</ele>
        <time>2026-03-06T14:47:08.000Z</time>
      </trkpt>
      <trkpt lat="43.30487" lon="-1.58302">
        <ele>89</ele>
        <time>2026-03-06T14:47:12.000Z</time>
      </trkpt>
      <trkpt lat="43.3052" lon="-1.58245">
        <ele>87</ele>
        <time>2026-03-06T14:47:22.000Z</time>
      </trkpt>
      <trkpt lat="43.30545" lon="-1.5819">
        <ele>86</ele>
        <time>2026-03-06T14:47:30.000Z</time>
      </trkpt>
      <trkpt lat="43.30556" lon="-1.58162">
        <ele>85</ele>
        <time>2026-03-06T14:47:34.000Z</time>
      </trkpt>
      <trkpt lat="43.30575" lon="-1.58092">
        <ele>85</ele>
        <time>2026-03-06T14:47:44.000Z</time>
      </trkpt>
      <trkpt lat="43.30545" lon="-1.58064">
        <ele>84</ele>
        <time>2026-03-06T14:47:50.000Z</time>
      </trkpt>
      <trkpt lat="43.30523" lon="-1.58036">
        <ele>83</ele>
        <time>2026-03-06T14:47:56.000Z</time>
      </trkpt>
      <trkpt lat="43.30488" lon="-1.5797">
        <ele>79</ele>
        <time>2026-03-06T14:48:06.000Z</time>
      </trkpt>
      <trkpt lat="43.30473" lon="-1.57948">
        <ele>78</ele>
        <time>2026-03-06T14:48:10.000Z</time>
      </trkpt>
      <trkpt lat="43.30431" lon="-1.57904">
        <ele>75</ele>
        <time>2026-03-06T14:48:20.000Z</time>
      </trkpt>
      <trkpt lat="43.3041" lon="-1.57885">
        <ele>73</ele>
        <time>2026-03-06T14:48:24.000Z</time>
      </trkpt>
      <trkpt lat="43.30368" lon="-1.57839">
        <ele>70</ele>
        <time>2026-03-06T14:48:34.000Z</time>
      </trkpt>
      <trkpt lat="43.30353" lon="-1.57815">
        <ele>69</ele>
        <time>2026-03-06T14:48:38.000Z</time>
      </trkpt>
      <trkpt lat="43.30347" lon="-1.57791">
        <ele>68</ele>
        <time>2026-03-06T14:48:41.000Z</time>
      </trkpt>
      <trkpt lat="43.30335" lon="-1.57696">
        <ele>62</ele>
        <time>2026-03-06T14:48:54.000Z</time>
      </trkpt>
      <trkpt lat="43.30324" lon="-1.57677">
        <ele>59</ele>
        <time>2026-03-06T14:48:57.000Z</time>
      </trkpt>
      <trkpt lat="43.303" lon="-1.57654">
        <ele>56</ele>
        <time>2026-03-06T14:49:02.000Z</time>
      </trkpt>
      <trkpt lat="43.30285" lon="-1.57627">
        <ele>55</ele>
        <time>2026-03-06T14:49:06.000Z</time>
      </trkpt>
      <trkpt lat="43.30262" lon="-1.57559">
        <ele>52</ele>
        <time>2026-03-06T14:49:16.000Z</time>
      </trkpt>
      <trkpt lat="43.30251" lon="-1.57494">
        <ele>50</ele>
        <time>2026-03-06T14:49:25.000Z</time>
      </trkpt>
      <trkpt lat="43.30252" lon="-1.57461">
        <ele>50</ele>
        <time>2026-03-06T14:49:29.000Z</time>
      </trkpt>
      <trkpt lat="43.30223" lon="-1.57458">
        <ele>55</ele>
        <time>2026-03-06T14:49:34.000Z</time>
      </trkpt>
      <trkpt lat="43.30215" lon="-1.57454">
        <ele>56</ele>
        <time>2026-03-06T14:49:36.000Z</time>
      </trkpt>
      <trkpt lat="43.3021" lon="-1.57449">
        <ele>56</ele>
        <time>2026-03-06T14:49:37.000Z</time>
      </trkpt>
      <trkpt lat="43.30176" lon="-1.57403">
        <ele>54</ele>
        <time>2026-03-06T14:49:45.000Z</time>
      </trkpt>
      <trkpt lat="43.30167" lon="-1.57388">
        <ele>53</ele>
        <time>2026-03-06T14:49:48.000Z</time>
      </trkpt>
      <trkpt lat="43.30127" lon="-1.57309">
        <ele>53</ele>
        <time>2026-03-06T14:50:00.000Z</time>
      </trkpt>
      <trkpt lat="43.30114" lon="-1.57292">
        <ele>53</ele>
        <time>2026-03-06T14:50:03.000Z</time>
      </trkpt>
      <trkpt lat="43.30077" lon="-1.57259">
        <ele>51</ele>
        <time>2026-03-06T14:50:11.000Z</time>
      </trkpt>
      <trkpt lat="43.30046" lon="-1.57219">
        <ele>52</ele>
        <time>2026-03-06T14:50:19.000Z</time>
      </trkpt>
      <trkpt lat="43.30018" lon="-1.57189">
        <ele>52</ele>
        <time>2026-03-06T14:50:25.000Z</time>
      </trkpt>
      <trkpt lat="43.29996" lon="-1.57171">
        <ele>50</ele>
        <time>2026-03-06T14:50:30.000Z</time>
      </trkpt>
      <trkpt lat="43.29977" lon="-1.57164">
        <ele>50</ele>
        <time>2026-03-06T14:50:33.000Z</time>
      </trkpt>
      <trkpt lat="43.29957" lon="-1.57133">
        <ele>50</ele>
        <time>2026-03-06T14:50:39.000Z</time>
      </trkpt>
      <trkpt lat="43.29909" lon="-1.57038">
        <ele>50</ele>
        <time>2026-03-06T14:50:54.000Z</time>
      </trkpt>
      <trkpt lat="43.29905" lon="-1.57026">
        <ele>50</ele>
        <time>2026-03-06T14:50:55.000Z</time>
      </trkpt>
      <trkpt lat="43.29878" lon="-1.56939">
        <ele>51</ele>
        <time>2026-03-06T14:51:07.000Z</time>
      </trkpt>
      <trkpt lat="43.29871" lon="-1.56923">
        <ele>51</ele>
        <time>2026-03-06T14:51:10.000Z</time>
      </trkpt>
      <trkpt lat="43.29837" lon="-1.56857">
        <ele>51</ele>
        <time>2026-03-06T14:51:20.000Z</time>
      </trkpt>
      <trkpt lat="43.29816" lon="-1.56832">
        <ele>52</ele>
        <time>2026-03-06T14:51:25.000Z</time>
      </trkpt>
      <trkpt lat="43.2978" lon="-1.56802">
        <ele>53</ele>
        <time>2026-03-06T14:51:33.000Z</time>
      </trkpt>
      <trkpt lat="43.29725" lon="-1.56749">
        <ele>57</ele>
        <time>2026-03-06T14:51:45.000Z</time>
      </trkpt>
      <trkpt lat="43.29705" lon="-1.56724">
        <ele>59</ele>
        <time>2026-03-06T14:51:50.000Z</time>
      </trkpt>
      <trkpt lat="43.2969" lon="-1.56709">
        <ele>60</ele>
        <time>2026-03-06T14:51:53.000Z</time>
      </trkpt>
      <trkpt lat="43.2968" lon="-1.56691">
        <ele>61</ele>
        <time>2026-03-06T14:51:56.000Z</time>
      </trkpt>
      <trkpt lat="43.29674" lon="-1.56675">
        <ele>61</ele>
        <time>2026-03-06T14:51:58.000Z</time>
      </trkpt>
      <trkpt lat="43.29646" lon="-1.56611">
        <ele>59</ele>
        <time>2026-03-06T14:52:08.000Z</time>
      </trkpt>
      <trkpt lat="43.29627" lon="-1.56583">
        <ele>58</ele>
        <time>2026-03-06T14:52:13.000Z</time>
      </trkpt>
      <trkpt lat="43.29608" lon="-1.56565">
        <ele>59</ele>
        <time>2026-03-06T14:52:17.000Z</time>
      </trkpt>
      <trkpt lat="43.29516" lon="-1.5645">
        <ele>61</ele>
        <time>2026-03-06T14:52:39.000Z</time>
      </trkpt>
      <trkpt lat="43.29509" lon="-1.56443">
        <ele>62</ele>
        <time>2026-03-06T14:52:41.000Z</time>
      </trkpt>
      <trkpt lat="43.29465" lon="-1.56403">
        <ele>67</ele>
        <time>2026-03-06T14:52:50.000Z</time>
      </trkpt>
      <trkpt lat="43.29444" lon="-1.56382">
        <ele>69</ele>
        <time>2026-03-06T14:52:55.000Z</time>
      </trkpt>
      <trkpt lat="43.29436" lon="-1.5637">
        <ele>69</ele>
        <time>2026-03-06T14:52:57.000Z</time>
      </trkpt>
      <trkpt lat="43.29428" lon="-1.56346">
        <ele>70</ele>
        <time>2026-03-06T14:53:00.000Z</time>
      </trkpt>
      <trkpt lat="43.29426" lon="-1.56328">
        <ele>70</ele>
        <time>2026-03-06T14:53:02.000Z</time>
      </trkpt>
      <trkpt lat="43.29426" lon="-1.56305">
        <ele>71</ele>
        <time>2026-03-06T14:53:05.000Z</time>
      </trkpt>
      <trkpt lat="43.29423" lon="-1.56288">
        <ele>71</ele>
        <time>2026-03-06T14:53:08.000Z</time>
      </trkpt>
      <trkpt lat="43.29411" lon="-1.56249">
        <ele>71</ele>
        <time>2026-03-06T14:53:13.000Z</time>
      </trkpt>
      <trkpt lat="43.29406" lon="-1.56208">
        <ele>72</ele>
        <time>2026-03-06T14:53:19.000Z</time>
      </trkpt>
      <trkpt lat="43.294" lon="-1.56191">
        <ele>73</ele>
        <time>2026-03-06T14:53:21.000Z</time>
      </trkpt>
      <trkpt lat="43.29392" lon="-1.5618">
        <ele>74</ele>
        <time>2026-03-06T14:53:23.000Z</time>
      </trkpt>
      <trkpt lat="43.29338" lon="-1.56137">
        <ele>77</ele>
        <time>2026-03-06T14:53:34.000Z</time>
      </trkpt>
      <trkpt lat="43.29306" lon="-1.56103">
        <ele>81</ele>
        <time>2026-03-06T14:53:41.000Z</time>
      </trkpt>
      <trkpt lat="43.29293" lon="-1.56086">
        <ele>82</ele>
        <time>2026-03-06T14:53:44.000Z</time>
      </trkpt>
      <trkpt lat="43.29286" lon="-1.56072">
        <ele>83</ele>
        <time>2026-03-06T14:53:47.000Z</time>
      </trkpt>
      <trkpt lat="43.29274" lon="-1.56042">
        <ele>83</ele>
        <time>2026-03-06T14:53:51.000Z</time>
      </trkpt>
      <trkpt lat="43.29254" lon="-1.56013">
        <ele>82</ele>
        <time>2026-03-06T14:53:56.000Z</time>
      </trkpt>
      <trkpt lat="43.2924" lon="-1.56003">
        <ele>83</ele>
        <time>2026-03-06T14:53:59.000Z</time>
      </trkpt>
      <trkpt lat="43.29211" lon="-1.55994">
        <ele>86</ele>
        <time>2026-03-06T14:54:04.000Z</time>
      </trkpt>
      <trkpt lat="43.29202" lon="-1.55988">
        <ele>87</ele>
        <time>2026-03-06T14:54:06.000Z</time>
      </trkpt>
      <trkpt lat="43.29182" lon="-1.55969">
        <ele>89</ele>
        <time>2026-03-06T14:54:10.000Z</time>
      </trkpt>
      <trkpt lat="43.29171" lon="-1.55963">
        <ele>89</ele>
        <time>2026-03-06T14:54:13.000Z</time>
      </trkpt>
      <trkpt lat="43.29128" lon="-1.55951">
        <ele>93</ele>
        <time>2026-03-06T14:54:20.000Z</time>
      </trkpt>
      <trkpt lat="43.29085" lon="-1.55931">
        <ele>97</ele>
        <time>2026-03-06T14:54:28.000Z</time>
      </trkpt>
      <trkpt lat="43.29048" lon="-1.55923">
        <ele>97</ele>
        <time>2026-03-06T14:54:35.000Z</time>
      </trkpt>
      <trkpt lat="43.2904" lon="-1.55916">
        <ele>97</ele>
        <time>2026-03-06T14:54:37.000Z</time>
      </trkpt>
      <trkpt lat="43.29022" lon="-1.55896">
        <ele>97</ele>
        <time>2026-03-06T14:54:41.000Z</time>
      </trkpt>
      <trkpt lat="43.29017" lon="-1.55897">
        <ele>97</ele>
        <time>2026-03-06T14:54:42.000Z</time>
      </trkpt>
      <trkpt lat="43.29015" lon="-1.55903">
        <ele>97</ele>
        <time>2026-03-06T14:54:43.000Z</time>
      </trkpt>
      <trkpt lat="43.29014" lon="-1.55931">
        <ele>98</ele>
        <time>2026-03-06T14:54:46.000Z</time>
      </trkpt>
      <trkpt lat="43.29012" lon="-1.55941">
        <ele>99</ele>
        <time>2026-03-06T14:54:48.000Z</time>
      </trkpt>
      <trkpt lat="43.29008" lon="-1.55946">
        <ele>99</ele>
        <time>2026-03-06T14:54:49.000Z</time>
      </trkpt>
      <trkpt lat="43.29003" lon="-1.55948">
        <ele>99</ele>
        <time>2026-03-06T14:54:50.000Z</time>
      </trkpt>
      <trkpt lat="43.28945" lon="-1.55908">
        <ele>102</ele>
        <time>2026-03-06T14:55:01.000Z</time>
      </trkpt>
      <trkpt lat="43.28891" lon="-1.55869">
        <ele>106</ele>
        <time>2026-03-06T14:55:12.000Z</time>
      </trkpt>
      <trkpt lat="43.28881" lon="-1.55853">
        <ele>107</ele>
        <time>2026-03-06T14:55:15.000Z</time>
      </trkpt>
      <trkpt lat="43.28871" lon="-1.55833">
        <ele>107</ele>
        <time>2026-03-06T14:55:18.000Z</time>
      </trkpt>
      <trkpt lat="43.28857" lon="-1.55797">
        <ele>109</ele>
        <time>2026-03-06T14:55:23.000Z</time>
      </trkpt>
      <trkpt lat="43.28849" lon="-1.55765">
        <ele>110</ele>
        <time>2026-03-06T14:55:28.000Z</time>
      </trkpt>
      <trkpt lat="43.28845" lon="-1.55726">
        <ele>110</ele>
        <time>2026-03-06T14:55:33.000Z</time>
      </trkpt>
      <trkpt lat="43.28843" lon="-1.55716">
        <ele>110</ele>
        <time>2026-03-06T14:55:34.000Z</time>
      </trkpt>
      <trkpt lat="43.28833" lon="-1.55592">
        <ele>114</ele>
        <time>2026-03-06T14:55:50.000Z</time>
      </trkpt>
      <trkpt lat="43.28829" lon="-1.55565">
        <ele>116</ele>
        <time>2026-03-06T14:55:54.000Z</time>
      </trkpt>
      <trkpt lat="43.28814" lon="-1.55526">
        <ele>121</ele>
        <time>2026-03-06T14:55:59.000Z</time>
      </trkpt>
      <trkpt lat="43.28792" lon="-1.55492">
        <ele>126</ele>
        <time>2026-03-06T14:56:05.000Z</time>
      </trkpt>
      <trkpt lat="43.28721" lon="-1.55401">
        <ele>141</ele>
        <time>2026-03-06T14:56:23.000Z</time>
      </trkpt>
      <trkpt lat="43.28709" lon="-1.55376">
        <ele>144</ele>
        <time>2026-03-06T14:56:26.000Z</time>
      </trkpt>
      <trkpt lat="43.28681" lon="-1.55246">
        <ele>151</ele>
        <time>2026-03-06T14:56:44.000Z</time>
      </trkpt>
      <trkpt lat="43.28667" lon="-1.5521">
        <ele>152</ele>
        <time>2026-03-06T14:56:49.000Z</time>
      </trkpt>
      <trkpt lat="43.28638" lon="-1.55162">
        <ele>150</ele>
        <time>2026-03-06T14:56:57.000Z</time>
      </trkpt>
      <trkpt lat="43.28621" lon="-1.55149">
        <ele>151</ele>
        <time>2026-03-06T14:57:01.000Z</time>
      </trkpt>
      <trkpt lat="43.28603" lon="-1.55142">
        <ele>153</ele>
        <time>2026-03-06T14:57:04.000Z</time>
      </trkpt>
      <trkpt lat="43.28572" lon="-1.55133">
        <ele>155</ele>
        <time>2026-03-06T14:57:10.000Z</time>
      </trkpt>
      <trkpt lat="43.2855" lon="-1.55131">
        <ele>156</ele>
        <time>2026-03-06T14:57:14.000Z</time>
      </trkpt>
      <trkpt lat="43.28531" lon="-1.55137">
        <ele>156</ele>
        <time>2026-03-06T14:57:17.000Z</time>
      </trkpt>
      <trkpt lat="43.28497" lon="-1.55151">
        <ele>154</ele>
        <time>2026-03-06T14:57:24.000Z</time>
      </trkpt>
      <trkpt lat="43.28463" lon="-1.55156">
        <ele>152</ele>
        <time>2026-03-06T14:57:30.000Z</time>
      </trkpt>
      <trkpt lat="43.28444" lon="-1.55153">
        <ele>152</ele>
        <time>2026-03-06T14:57:33.000Z</time>
      </trkpt>
      <trkpt lat="43.28427" lon="-1.55141">
        <ele>153</ele>
        <time>2026-03-06T14:57:36.000Z</time>
      </trkpt>
      <trkpt lat="43.28413" lon="-1.55116">
        <ele>155</ele>
        <time>2026-03-06T14:57:40.000Z</time>
      </trkpt>
      <trkpt lat="43.28402" lon="-1.55082">
        <ele>155</ele>
        <time>2026-03-06T14:57:45.000Z</time>
      </trkpt>
      <trkpt lat="43.284" lon="-1.55044">
        <ele>156</ele>
        <time>2026-03-06T14:57:50.000Z</time>
      </trkpt>
      <trkpt lat="43.28407" lon="-1.54983">
        <ele>159</ele>
        <time>2026-03-06T14:57:58.000Z</time>
      </trkpt>
      <trkpt lat="43.28417" lon="-1.5492">
        <ele>154</ele>
        <time>2026-03-06T14:58:07.000Z</time>
      </trkpt>
      <trkpt lat="43.28417" lon="-1.54893">
        <ele>153</ele>
        <time>2026-03-06T14:58:10.000Z</time>
      </trkpt>
      <trkpt lat="43.28412" lon="-1.54869">
        <ele>153</ele>
        <time>2026-03-06T14:58:13.000Z</time>
      </trkpt>
      <trkpt lat="43.28399" lon="-1.54854">
        <ele>154</ele>
        <time>2026-03-06T14:58:16.000Z</time>
      </trkpt>
      <trkpt lat="43.28386" lon="-1.54842">
        <ele>154</ele>
        <time>2026-03-06T14:58:19.000Z</time>
      </trkpt>
      <trkpt lat="43.28369" lon="-1.54841">
        <ele>155</ele>
        <time>2026-03-06T14:58:22.000Z</time>
      </trkpt>
      <trkpt lat="43.28353" lon="-1.54855">
        <ele>156</ele>
        <time>2026-03-06T14:58:26.000Z</time>
      </trkpt>
      <trkpt lat="43.28324" lon="-1.549">
        <ele>160</ele>
        <time>2026-03-06T14:58:33.000Z</time>
      </trkpt>
      <trkpt lat="43.28306" lon="-1.54925">
        <ele>163</ele>
        <time>2026-03-06T14:58:38.000Z</time>
      </trkpt>
      <trkpt lat="43.28289" lon="-1.54941">
        <ele>164</ele>
        <time>2026-03-06T14:58:42.000Z</time>
      </trkpt>
      <trkpt lat="43.28271" lon="-1.54953">
        <ele>165</ele>
        <time>2026-03-06T14:58:45.000Z</time>
      </trkpt>
      <trkpt lat="43.28245" lon="-1.54961">
        <ele>168</ele>
        <time>2026-03-06T14:58:50.000Z</time>
      </trkpt>
      <trkpt lat="43.28222" lon="-1.54963">
        <ele>168</ele>
        <time>2026-03-06T14:58:54.000Z</time>
      </trkpt>
      <trkpt lat="43.28195" lon="-1.54954">
        <ele>170</ele>
        <time>2026-03-06T14:58:59.000Z</time>
      </trkpt>
      <trkpt lat="43.2812" lon="-1.5492">
        <ele>175</ele>
        <time>2026-03-06T14:59:13.000Z</time>
      </trkpt>
      <trkpt lat="43.28096" lon="-1.54912">
        <ele>175</ele>
        <time>2026-03-06T14:59:17.000Z</time>
      </trkpt>
      <trkpt lat="43.28065" lon="-1.54907">
        <ele>177</ele>
        <time>2026-03-06T14:59:23.000Z</time>
      </trkpt>
      <trkpt lat="43.28036" lon="-1.54907">
        <ele>179</ele>
        <time>2026-03-06T14:59:28.000Z</time>
      </trkpt>
      <trkpt lat="43.27984" lon="-1.5492">
        <ele>181</ele>
        <time>2026-03-06T14:59:37.000Z</time>
      </trkpt>
      <trkpt lat="43.27972" lon="-1.54917">
        <ele>181</ele>
        <time>2026-03-06T14:59:40.000Z</time>
      </trkpt>
      <trkpt lat="43.27959" lon="-1.54907">
        <ele>182</ele>
        <time>2026-03-06T14:59:42.000Z</time>
      </trkpt>
      <trkpt lat="43.27927" lon="-1.54851">
        <ele>180</ele>
        <time>2026-03-06T14:59:51.000Z</time>
      </trkpt>
      <trkpt lat="43.27832" lon="-1.5471">
        <ele>164</ele>
        <time>2026-03-06T15:00:16.000Z</time>
      </trkpt>
      <trkpt lat="43.27806" lon="-1.5468">
        <ele>162</ele>
        <time>2026-03-06T15:00:22.000Z</time>
      </trkpt>
      <trkpt lat="43.27715" lon="-1.54593">
        <ele>163</ele>
        <time>2026-03-06T15:00:42.000Z</time>
      </trkpt>
      <trkpt lat="43.2769" lon="-1.54575">
        <ele>163</ele>
        <time>2026-03-06T15:00:47.000Z</time>
      </trkpt>
      <trkpt lat="43.27639" lon="-1.54546">
        <ele>164</ele>
        <time>2026-03-06T15:00:57.000Z</time>
      </trkpt>
      <trkpt lat="43.27617" lon="-1.54523">
        <ele>167</ele>
        <time>2026-03-06T15:01:02.000Z</time>
      </trkpt>
      <trkpt lat="43.27602" lon="-1.5449">
        <ele>170</ele>
        <time>2026-03-06T15:01:07.000Z</time>
      </trkpt>
      <trkpt lat="43.27583" lon="-1.54443">
        <ele>169</ele>
        <time>2026-03-06T15:01:14.000Z</time>
      </trkpt>
      <trkpt lat="43.2757" lon="-1.5443">
        <ele>169</ele>
        <time>2026-03-06T15:01:17.000Z</time>
      </trkpt>
      <trkpt lat="43.2752" lon="-1.5439">
        <ele>172</ele>
        <time>2026-03-06T15:01:27.000Z</time>
      </trkpt>
      <trkpt lat="43.27507" lon="-1.54386">
        <ele>173</ele>
        <time>2026-03-06T15:01:29.000Z</time>
      </trkpt>
      <trkpt lat="43.27497" lon="-1.54387">
        <ele>174</ele>
        <time>2026-03-06T15:01:31.000Z</time>
      </trkpt>
      <trkpt lat="43.27482" lon="-1.54394">
        <ele>177</ele>
        <time>2026-03-06T15:01:34.000Z</time>
      </trkpt>
      <trkpt lat="43.27426" lon="-1.54427">
        <ele>184</ele>
        <time>2026-03-06T15:01:45.000Z</time>
      </trkpt>
      <trkpt lat="43.27414" lon="-1.54432">
        <ele>186</ele>
        <time>2026-03-06T15:01:47.000Z</time>
      </trkpt>
      <trkpt lat="43.27393" lon="-1.54435">
        <ele>187</ele>
        <time>2026-03-06T15:01:51.000Z</time>
      </trkpt>
      <trkpt lat="43.27366" lon="-1.54431">
        <ele>189</ele>
        <time>2026-03-06T15:01:56.000Z</time>
      </trkpt>
      <trkpt lat="43.2734" lon="-1.54422">
        <ele>193</ele>
        <time>2026-03-06T15:02:00.000Z</time>
      </trkpt>
      <trkpt lat="43.27317" lon="-1.54403">
        <ele>194</ele>
        <time>2026-03-06T15:02:05.000Z</time>
      </trkpt>
      <trkpt lat="43.27274" lon="-1.54352">
        <ele>194</ele>
        <time>2026-03-06T15:02:15.000Z</time>
      </trkpt>
      <trkpt lat="43.27258" lon="-1.54326">
        <ele>193</ele>
        <time>2026-03-06T15:02:20.000Z</time>
      </trkpt>
      <trkpt lat="43.27234" lon="-1.54274">
        <ele>192</ele>
        <time>2026-03-06T15:02:28.000Z</time>
      </trkpt>
      <trkpt lat="43.27221" lon="-1.54259">
        <ele>190</ele>
        <time>2026-03-06T15:02:31.000Z</time>
      </trkpt>
      <trkpt lat="43.27166" lon="-1.54219">
        <ele>185</ele>
        <time>2026-03-06T15:02:42.000Z</time>
      </trkpt>
      <trkpt lat="43.27143" lon="-1.54205">
        <ele>187</ele>
        <time>2026-03-06T15:02:46.000Z</time>
      </trkpt>
      <trkpt lat="43.27069" lon="-1.54172">
        <ele>193</ele>
        <time>2026-03-06T15:03:00.000Z</time>
      </trkpt>
      <trkpt lat="43.27039" lon="-1.5416">
        <ele>198</ele>
        <time>2026-03-06T15:03:06.000Z</time>
      </trkpt>
      <trkpt lat="43.27028" lon="-1.54159">
        <ele>199</ele>
        <time>2026-03-06T15:03:08.000Z</time>
      </trkpt>
      <trkpt lat="43.27002" lon="-1.54168">
        <ele>202</ele>
        <time>2026-03-06T15:03:12.000Z</time>
      </trkpt>
      <trkpt lat="43.26975" lon="-1.54176">
        <ele>204</ele>
        <time>2026-03-06T15:03:17.000Z</time>
      </trkpt>
      <trkpt lat="43.26963" lon="-1.54171">
        <ele>206</ele>
        <time>2026-03-06T15:03:20.000Z</time>
      </trkpt>
      <trkpt lat="43.26944" lon="-1.54154">
        <ele>208</ele>
        <time>2026-03-06T15:03:24.000Z</time>
      </trkpt>
      <trkpt lat="43.26934" lon="-1.54114">
        <ele>211</ele>
        <time>2026-03-06T15:03:29.000Z</time>
      </trkpt>
      <trkpt lat="43.26934" lon="-1.541">
        <ele>211</ele>
        <time>2026-03-06T15:03:31.000Z</time>
      </trkpt>
      <trkpt lat="43.26941" lon="-1.54053">
        <ele>210</ele>
        <time>2026-03-06T15:03:37.000Z</time>
      </trkpt>
      <trkpt lat="43.26943" lon="-1.54001">
        <ele>209</ele>
        <time>2026-03-06T15:03:44.000Z</time>
      </trkpt>
      <trkpt lat="43.2695" lon="-1.5396">
        <ele>208</ele>
        <time>2026-03-06T15:03:49.000Z</time>
      </trkpt>
      <trkpt lat="43.2696" lon="-1.53925">
        <ele>208</ele>
        <time>2026-03-06T15:03:54.000Z</time>
      </trkpt>
      <trkpt lat="43.26975" lon="-1.5385">
        <ele>204</ele>
        <time>2026-03-06T15:04:04.000Z</time>
      </trkpt>
      <trkpt lat="43.26979" lon="-1.53812">
        <ele>201</ele>
        <time>2026-03-06T15:04:09.000Z</time>
      </trkpt>
      <trkpt lat="43.26979" lon="-1.53783">
        <ele>198</ele>
        <time>2026-03-06T15:04:13.000Z</time>
      </trkpt>
      <trkpt lat="43.26984" lon="-1.5375">
        <ele>194</ele>
        <time>2026-03-06T15:04:17.000Z</time>
      </trkpt>
      <trkpt lat="43.27001" lon="-1.53701">
        <ele>190</ele>
        <time>2026-03-06T15:04:24.000Z</time>
      </trkpt>
      <trkpt lat="43.27005" lon="-1.53684">
        <ele>190</ele>
        <time>2026-03-06T15:04:27.000Z</time>
      </trkpt>
      <trkpt lat="43.27014" lon="-1.53646">
        <ele>191</ele>
        <time>2026-03-06T15:04:32.000Z</time>
      </trkpt>
      <trkpt lat="43.27045" lon="-1.53571">
        <ele>191</ele>
        <time>2026-03-06T15:04:43.000Z</time>
      </trkpt>
      <trkpt lat="43.2707" lon="-1.53502">
        <ele>187</ele>
        <time>2026-03-06T15:04:53.000Z</time>
      </trkpt>
      <trkpt lat="43.27096" lon="-1.53455">
        <ele>186</ele>
        <time>2026-03-06T15:05:01.000Z</time>
      </trkpt>
      <trkpt lat="43.27129" lon="-1.53408">
        <ele>182</ele>
        <time>2026-03-06T15:05:09.000Z</time>
      </trkpt>
      <trkpt lat="43.27143" lon="-1.53382">
        <ele>180</ele>
        <time>2026-03-06T15:05:13.000Z</time>
      </trkpt>
      <trkpt lat="43.27148" lon="-1.53367">
        <ele>180</ele>
        <time>2026-03-06T15:05:16.000Z</time>
      </trkpt>
      <trkpt lat="43.27176" lon="-1.5327">
        <ele>179</ele>
        <time>2026-03-06T15:05:29.000Z</time>
      </trkpt>
      <trkpt lat="43.27198" lon="-1.53214">
        <ele>179</ele>
        <time>2026-03-06T15:05:37.000Z</time>
      </trkpt>
      <trkpt lat="43.27227" lon="-1.53158">
        <ele>178</ele>
        <time>2026-03-06T15:05:46.000Z</time>
      </trkpt>
      <trkpt lat="43.27303" lon="-1.5305">
        <ele>178</ele>
        <time>2026-03-06T15:06:06.000Z</time>
      </trkpt>
      <trkpt lat="43.27343" lon="-1.5298">
        <ele>174</ele>
        <time>2026-03-06T15:06:17.000Z</time>
      </trkpt>
      <trkpt lat="43.27354" lon="-1.52965">
        <ele>172</ele>
        <time>2026-03-06T15:06:20.000Z</time>
      </trkpt>
      <trkpt lat="43.27363" lon="-1.52957">
        <ele>171</ele>
        <time>2026-03-06T15:06:22.000Z</time>
      </trkpt>
      <trkpt lat="43.27387" lon="-1.52943">
        <ele>169</ele>
        <time>2026-03-06T15:06:26.000Z</time>
      </trkpt>
      <trkpt lat="43.27426" lon="-1.52929">
        <ele>167</ele>
        <time>2026-03-06T15:06:34.000Z</time>
      </trkpt>
      <trkpt lat="43.27449" lon="-1.52915">
        <ele>166</ele>
        <time>2026-03-06T15:06:38.000Z</time>
      </trkpt>
      <trkpt lat="43.27468" lon="-1.52898">
        <ele>165</ele>
        <time>2026-03-06T15:06:42.000Z</time>
      </trkpt>
      <trkpt lat="43.27488" lon="-1.52872">
        <ele>163</ele>
        <time>2026-03-06T15:06:47.000Z</time>
      </trkpt>
      <trkpt lat="43.27504" lon="-1.52838">
        <ele>162</ele>
        <time>2026-03-06T15:06:52.000Z</time>
      </trkpt>
      <trkpt lat="43.27509" lon="-1.52825">
        <ele>161</ele>
        <time>2026-03-06T15:06:54.000Z</time>
      </trkpt>
      <trkpt lat="43.27539" lon="-1.52708">
        <ele>161</ele>
        <time>2026-03-06T15:07:10.000Z</time>
      </trkpt>
      <trkpt lat="43.27545" lon="-1.5267">
        <ele>161</ele>
        <time>2026-03-06T15:07:15.000Z</time>
      </trkpt>
      <trkpt lat="43.27546" lon="-1.52625">
        <ele>162</ele>
        <time>2026-03-06T15:07:21.000Z</time>
      </trkpt>
      <trkpt lat="43.2754" lon="-1.52515">
        <ele>162</ele>
        <time>2026-03-06T15:07:35.000Z</time>
      </trkpt>
      <trkpt lat="43.2754" lon="-1.52485">
        <ele>162</ele>
        <time>2026-03-06T15:07:39.000Z</time>
      </trkpt>
      <trkpt lat="43.27544" lon="-1.52438">
        <ele>163</ele>
        <time>2026-03-06T15:07:45.000Z</time>
      </trkpt>
      <trkpt lat="43.27567" lon="-1.52311">
        <ele>165</ele>
        <time>2026-03-06T15:08:02.000Z</time>
      </trkpt>
      <trkpt lat="43.27583" lon="-1.52238">
        <ele>165</ele>
        <time>2026-03-06T15:08:12.000Z</time>
      </trkpt>
      <trkpt lat="43.27594" lon="-1.52202">
        <ele>165</ele>
        <time>2026-03-06T15:08:17.000Z</time>
      </trkpt>
      <trkpt lat="43.27618" lon="-1.52162">
        <ele>163</ele>
        <time>2026-03-06T15:08:24.000Z</time>
      </trkpt>
      <trkpt lat="43.27676" lon="-1.52098">
        <ele>157</ele>
        <time>2026-03-06T15:08:37.000Z</time>
      </trkpt>
      <trkpt lat="43.27724" lon="-1.52038">
        <ele>155</ele>
        <time>2026-03-06T15:08:49.000Z</time>
      </trkpt>
      <trkpt lat="43.27771" lon="-1.5197">
        <ele>155</ele>
        <time>2026-03-06T15:09:01.000Z</time>
      </trkpt>
      <trkpt lat="43.27844" lon="-1.51852">
        <ele>154</ele>
        <time>2026-03-06T15:09:21.000Z</time>
      </trkpt>
      <trkpt lat="43.2789" lon="-1.51788">
        <ele>155</ele>
        <time>2026-03-06T15:09:33.000Z</time>
      </trkpt>
      <trkpt lat="43.27898" lon="-1.51771">
        <ele>155</ele>
        <time>2026-03-06T15:09:35.000Z</time>
      </trkpt>
      <trkpt lat="43.27905" lon="-1.51751">
        <ele>156</ele>
        <time>2026-03-06T15:09:38.000Z</time>
      </trkpt>
      <trkpt lat="43.27909" lon="-1.51732">
        <ele>157</ele>
        <time>2026-03-06T15:09:41.000Z</time>
      </trkpt>
      <trkpt lat="43.27914" lon="-1.51676">
        <ele>157</ele>
        <time>2026-03-06T15:09:48.000Z</time>
      </trkpt>
      <trkpt lat="43.2792" lon="-1.51654">
        <ele>157</ele>
        <time>2026-03-06T15:09:51.000Z</time>
      </trkpt>
      <trkpt lat="43.2793" lon="-1.51634">
        <ele>157</ele>
        <time>2026-03-06T15:09:54.000Z</time>
      </trkpt>
      <trkpt lat="43.27939" lon="-1.51621">
        <ele>157</ele>
        <time>2026-03-06T15:09:57.000Z</time>
      </trkpt>
      <trkpt lat="43.27951" lon="-1.51607">
        <ele>158</ele>
        <time>2026-03-06T15:09:59.000Z</time>
      </trkpt>
      <trkpt lat="43.28004" lon="-1.51574">
        <ele>159</ele>
        <time>2026-03-06T15:10:10.000Z</time>
      </trkpt>
      <trkpt lat="43.28017" lon="-1.51563">
        <ele>159</ele>
        <time>2026-03-06T15:10:12.000Z</time>
      </trkpt>
      <trkpt lat="43.28108" lon="-1.51436">
        <ele>151</ele>
        <time>2026-03-06T15:10:36.000Z</time>
      </trkpt>
      <trkpt lat="43.28128" lon="-1.51421">
        <ele>150</ele>
        <time>2026-03-06T15:10:40.000Z</time>
      </trkpt>
      <trkpt lat="43.28148" lon="-1.51412">
        <ele>150</ele>
        <time>2026-03-06T15:10:43.000Z</time>
      </trkpt>
      <trkpt lat="43.28181" lon="-1.51407">
        <ele>151</ele>
        <time>2026-03-06T15:10:49.000Z</time>
      </trkpt>
      <trkpt lat="43.282" lon="-1.51402">
        <ele>152</ele>
        <time>2026-03-06T15:10:53.000Z</time>
      </trkpt>
      <trkpt lat="43.28219" lon="-1.51389">
        <ele>151</ele>
        <time>2026-03-06T15:10:56.000Z</time>
      </trkpt>
      <trkpt lat="43.28247" lon="-1.51364">
        <ele>148</ele>
        <time>2026-03-06T15:11:02.000Z</time>
      </trkpt>
      <trkpt lat="43.28266" lon="-1.51352">
        <ele>146</ele>
        <time>2026-03-06T15:11:06.000Z</time>
      </trkpt>
      <trkpt lat="43.2828" lon="-1.51345">
        <ele>145</ele>
        <time>2026-03-06T15:11:09.000Z</time>
      </trkpt>
      <trkpt lat="43.28332" lon="-1.51336">
        <ele>144</ele>
        <time>2026-03-06T15:11:18.000Z</time>
      </trkpt>
      <trkpt lat="43.28393" lon="-1.51307">
        <ele>138</ele>
        <time>2026-03-06T15:11:30.000Z</time>
      </trkpt>
      <trkpt lat="43.2841" lon="-1.51302">
        <ele>137</ele>
        <time>2026-03-06T15:11:33.000Z</time>
      </trkpt>
      <trkpt lat="43.28446" lon="-1.51298">
        <ele>133</ele>
        <time>2026-03-06T15:11:39.000Z</time>
      </trkpt>
      <trkpt lat="43.28491" lon="-1.51299">
        <ele>130</ele>
        <time>2026-03-06T15:11:47.000Z</time>
      </trkpt>
      <trkpt lat="43.28518" lon="-1.51294">
        <ele>127</ele>
        <time>2026-03-06T15:11:52.000Z</time>
      </trkpt>
      <trkpt lat="43.2856" lon="-1.51276">
        <ele>122</ele>
        <time>2026-03-06T15:12:00.000Z</time>
      </trkpt>
      <trkpt lat="43.28582" lon="-1.5127">
        <ele>121</ele>
        <time>2026-03-06T15:12:04.000Z</time>
      </trkpt>
      <trkpt lat="43.28635" lon="-1.51268">
        <ele>117</ele>
        <time>2026-03-06T15:12:13.000Z</time>
      </trkpt>
      <trkpt lat="43.28658" lon="-1.51263">
        <ele>115</ele>
        <time>2026-03-06T15:12:17.000Z</time>
      </trkpt>
      <trkpt lat="43.28673" lon="-1.51256">
        <ele>115</ele>
        <time>2026-03-06T15:12:20.000Z</time>
      </trkpt>
      <trkpt lat="43.28694" lon="-1.51241">
        <ele>115</ele>
        <time>2026-03-06T15:12:24.000Z</time>
      </trkpt>
      <trkpt lat="43.28718" lon="-1.51215">
        <ele>113</ele>
        <time>2026-03-06T15:12:30.000Z</time>
      </trkpt>
      <trkpt lat="43.28782" lon="-1.51135">
        <ele>108</ele>
        <time>2026-03-06T15:12:45.000Z</time>
      </trkpt>
      <trkpt lat="43.28793" lon="-1.51117">
        <ele>108</ele>
        <time>2026-03-06T15:12:48.000Z</time>
      </trkpt>
      <trkpt lat="43.28806" lon="-1.51081">
        <ele>107</ele>
        <time>2026-03-06T15:12:53.000Z</time>
      </trkpt>
      <trkpt lat="43.28812" lon="-1.5105">
        <ele>105</ele>
        <time>2026-03-06T15:12:58.000Z</time>
      </trkpt>
      <trkpt lat="43.28817" lon="-1.51011">
        <ele>101</ele>
        <time>2026-03-06T15:13:03.000Z</time>
      </trkpt>
      <trkpt lat="43.28815" lon="-1.50985">
        <ele>100</ele>
        <time>2026-03-06T15:13:06.000Z</time>
      </trkpt>
      <trkpt lat="43.28797" lon="-1.509">
        <ele>93</ele>
        <time>2026-03-06T15:13:18.000Z</time>
      </trkpt>
      <trkpt lat="43.28795" lon="-1.50873">
        <ele>91</ele>
        <time>2026-03-06T15:13:21.000Z</time>
      </trkpt>
      <trkpt lat="43.28798" lon="-1.50851">
        <ele>90</ele>
        <time>2026-03-06T15:13:24.000Z</time>
      </trkpt>
      <trkpt lat="43.28805" lon="-1.50826">
        <ele>89</ele>
        <time>2026-03-06T15:13:27.000Z</time>
      </trkpt>
      <trkpt lat="43.28814" lon="-1.50808">
        <ele>86</ele>
        <time>2026-03-06T15:13:30.000Z</time>
      </trkpt>
      <trkpt lat="43.28824" lon="-1.50794">
        <ele>85</ele>
        <time>2026-03-06T15:13:33.000Z</time>
      </trkpt>
      <trkpt lat="43.28837" lon="-1.50781">
        <ele>83</ele>
        <time>2026-03-06T15:13:36.000Z</time>
      </trkpt>
      <trkpt lat="43.28854" lon="-1.5077">
        <ele>84</ele>
        <time>2026-03-06T15:13:39.000Z</time>
      </trkpt>
      <trkpt lat="43.28907" lon="-1.50744">
        <ele>86</ele>
        <time>2026-03-06T15:13:49.000Z</time>
      </trkpt>
      <trkpt lat="43.28939" lon="-1.50734">
        <ele>88</ele>
        <time>2026-03-06T15:13:55.000Z</time>
      </trkpt>
      <trkpt lat="43.2899" lon="-1.50723">
        <ele>91</ele>
        <time>2026-03-06T15:14:04.000Z</time>
      </trkpt>
      <trkpt lat="43.29025" lon="-1.50706">
        <ele>90</ele>
        <time>2026-03-06T15:14:11.000Z</time>
      </trkpt>
      <trkpt lat="43.29043" lon="-1.5069">
        <ele>86</ele>
        <time>2026-03-06T15:14:14.000Z</time>
      </trkpt>
      <trkpt lat="43.29057" lon="-1.50675">
        <ele>82</ele>
        <time>2026-03-06T15:14:18.000Z</time>
      </trkpt>
      <trkpt lat="43.29079" lon="-1.50638">
        <ele>78</ele>
        <time>2026-03-06T15:14:24.000Z</time>
      </trkpt>
      <trkpt lat="43.29102" lon="-1.50588">
        <ele>72</ele>
        <time>2026-03-06T15:14:31.000Z</time>
      </trkpt>
      <trkpt lat="43.29104" lon="-1.50568">
        <ele>71</ele>
        <time>2026-03-06T15:14:34.000Z</time>
      </trkpt>
      <trkpt lat="43.29104" lon="-1.50555">
        <ele>72</ele>
        <time>2026-03-06T15:14:36.000Z</time>
      </trkpt>
      <trkpt lat="43.29106" lon="-1.5055">
        <ele>72</ele>
        <time>2026-03-06T15:14:37.000Z</time>
      </trkpt>
      <trkpt lat="43.29113" lon="-1.50545">
        <ele>72</ele>
        <time>2026-03-06T15:14:38.000Z</time>
      </trkpt>
      <trkpt lat="43.29117" lon="-1.50545">
        <ele>72</ele>
        <time>2026-03-06T15:14:39.000Z</time>
      </trkpt>
      <trkpt lat="43.29124" lon="-1.5055">
        <ele>72</ele>
        <time>2026-03-06T15:14:40.000Z</time>
      </trkpt>
      <trkpt lat="43.29145" lon="-1.50559">
        <ele>71</ele>
        <time>2026-03-06T15:14:44.000Z</time>
      </trkpt>
      <trkpt lat="43.29164" lon="-1.50557">
        <ele>70</ele>
        <time>2026-03-06T15:14:47.000Z</time>
      </trkpt>
      <trkpt lat="43.29223" lon="-1.50551">
        <ele>71</ele>
        <time>2026-03-06T15:14:58.000Z</time>
      </trkpt>
      <trkpt lat="43.29227" lon="-1.5055">
        <ele>71</ele>
        <time>2026-03-06T15:14:59.000Z</time>
      </trkpt>
      <trkpt lat="43.29234" lon="-1.50554">
        <ele>71</ele>
        <time>2026-03-06T15:15:00.000Z</time>
      </trkpt>
      <trkpt lat="43.29238" lon="-1.50562">
        <ele>71</ele>
        <time>2026-03-06T15:15:01.000Z</time>
      </trkpt>
      <trkpt lat="43.29238" lon="-1.50567">
        <ele>71</ele>
        <time>2026-03-06T15:15:02.000Z</time>
      </trkpt>
      <trkpt lat="43.29245" lon="-1.50582">
        <ele>71</ele>
        <time>2026-03-06T15:15:04.000Z</time>
      </trkpt>
      <trkpt lat="43.2926" lon="-1.50605">
        <ele>75</ele>
        <time>2026-03-06T15:15:08.000Z</time>
      </trkpt>
      <trkpt lat="43.29264" lon="-1.50612">
        <ele>76</ele>
        <time>2026-03-06T15:15:09.000Z</time>
      </trkpt>
      <trkpt lat="43.29279" lon="-1.50623">
        <ele>76</ele>
        <time>2026-03-06T15:15:12.000Z</time>
      </trkpt>
      <trkpt lat="43.29291" lon="-1.50625">
        <ele>76</ele>
        <time>2026-03-06T15:15:14.000Z</time>
      </trkpt>
      <trkpt lat="43.2934" lon="-1.50611">
        <ele>70</ele>
        <time>2026-03-06T15:15:23.000Z</time>
      </trkpt>
      <trkpt lat="43.29403" lon="-1.50616">
        <ele>70</ele>
        <time>2026-03-06T15:15:35.000Z</time>
      </trkpt>
      <trkpt lat="43.29405" lon="-1.50608">
        <ele>69</ele>
        <time>2026-03-06T15:15:36.000Z</time>
      </trkpt>
      <trkpt lat="43.29409" lon="-1.50601">
        <ele>68</ele>
        <time>2026-03-06T15:15:37.000Z</time>
      </trkpt>
      <trkpt lat="43.29393" lon="-1.50581">
        <ele>66</ele>
        <time>2026-03-06T15:15:41.000Z</time>
      </trkpt>
      <trkpt lat="43.2938" lon="-1.50566">
        <ele>68</ele>
        <time>2026-03-06T15:15:44.000Z</time>
      </trkpt>
      <trkpt lat="43.29342" lon="-1.50525">
        <ele>70</ele>
        <time>2026-03-06T15:15:52.000Z</time>
      </trkpt>
      <trkpt lat="43.29337" lon="-1.50519">
        <ele>71</ele>
        <time>2026-03-06T15:15:54.000Z</time>
      </trkpt>
      <trkpt lat="43.29333" lon="-1.5051">
        <ele>71</ele>
        <time>2026-03-06T15:15:55.000Z</time>
      </trkpt>
      <trkpt lat="43.29335" lon="-1.50501">
        <ele>72</ele>
        <time>2026-03-06T15:15:56.000Z</time>
      </trkpt>
      <trkpt lat="43.29343" lon="-1.5048">
        <ele>73</ele>
        <time>2026-03-06T15:15:59.000Z</time>
      </trkpt>
      <trkpt lat="43.2935" lon="-1.50447">
        <ele>74</ele>
        <time>2026-03-06T15:16:04.000Z</time>
      </trkpt>
      <trkpt lat="43.29351" lon="-1.50432">
        <ele>75</ele>
        <time>2026-03-06T15:16:06.000Z</time>
      </trkpt>
      <trkpt lat="43.2935" lon="-1.50406">
        <ele>76</ele>
        <time>2026-03-06T15:16:09.000Z</time>
      </trkpt>
      <trkpt lat="43.29343" lon="-1.50331">
        <ele>77</ele>
        <time>2026-03-06T15:16:19.000Z</time>
      </trkpt>
      <trkpt lat="43.29343" lon="-1.50313">
        <ele>77</ele>
        <time>2026-03-06T15:16:21.000Z</time>
      </trkpt>
      <trkpt lat="43.29361" lon="-1.50213">
        <ele>83</ele>
        <time>2026-03-06T15:16:34.000Z</time>
      </trkpt>
      <trkpt lat="43.2938" lon="-1.5013">
        <ele>86</ele>
        <time>2026-03-06T15:16:46.000Z</time>
      </trkpt>
      <trkpt lat="43.29412" lon="-1.50058">
        <ele>88</ele>
        <time>2026-03-06T15:16:57.000Z</time>
      </trkpt>
      <trkpt lat="43.2942" lon="-1.50027">
        <ele>88</ele>
        <time>2026-03-06T15:17:01.000Z</time>
      </trkpt>
      <trkpt lat="43.29423" lon="-1.49996">
        <ele>88</ele>
        <time>2026-03-06T15:17:05.000Z</time>
      </trkpt>
      <trkpt lat="43.2942" lon="-1.4994">
        <ele>91</ele>
        <time>2026-03-06T15:17:12.000Z</time>
      </trkpt>
      <trkpt lat="43.29407" lon="-1.49805">
        <ele>101</ele>
        <time>2026-03-06T15:17:30.000Z</time>
      </trkpt>
      <trkpt lat="43.29404" lon="-1.49753">
        <ele>103</ele>
        <time>2026-03-06T15:17:37.000Z</time>
      </trkpt>
      <trkpt lat="43.29407" lon="-1.49712">
        <ele>101</ele>
        <time>2026-03-06T15:17:42.000Z</time>
      </trkpt>
      <trkpt lat="43.2942" lon="-1.49673">
        <ele>99</ele>
        <time>2026-03-06T15:17:47.000Z</time>
      </trkpt>
      <trkpt lat="43.29428" lon="-1.49659">
        <ele>100</ele>
        <time>2026-03-06T15:17:50.000Z</time>
      </trkpt>
      <trkpt lat="43.29456" lon="-1.4962">
        <ele>103</ele>
        <time>2026-03-06T15:17:57.000Z</time>
      </trkpt>
      <trkpt lat="43.29485" lon="-1.49597">
        <ele>107</ele>
        <time>2026-03-06T15:18:03.000Z</time>
      </trkpt>
      <trkpt lat="43.29533" lon="-1.49573">
        <ele>112</ele>
        <time>2026-03-06T15:18:12.000Z</time>
      </trkpt>
      <trkpt lat="43.29554" lon="-1.4956">
        <ele>113</ele>
        <time>2026-03-06T15:18:16.000Z</time>
      </trkpt>
      <trkpt lat="43.29566" lon="-1.49546">
        <ele>113</ele>
        <time>2026-03-06T15:18:19.000Z</time>
      </trkpt>
      <trkpt lat="43.29576" lon="-1.4953">
        <ele>113</ele>
        <time>2026-03-06T15:18:22.000Z</time>
      </trkpt>
      <trkpt lat="43.29584" lon="-1.49514">
        <ele>113</ele>
        <time>2026-03-06T15:18:24.000Z</time>
      </trkpt>
      <trkpt lat="43.29606" lon="-1.49449">
        <ele>112</ele>
        <time>2026-03-06T15:18:33.000Z</time>
      </trkpt>
      <trkpt lat="43.29613" lon="-1.49433">
        <ele>112</ele>
        <time>2026-03-06T15:18:36.000Z</time>
      </trkpt>
      <trkpt lat="43.29631" lon="-1.49405">
        <ele>114</ele>
        <time>2026-03-06T15:18:41.000Z</time>
      </trkpt>
      <trkpt lat="43.29653" lon="-1.49374">
        <ele>116</ele>
        <time>2026-03-06T15:18:46.000Z</time>
      </trkpt>
      <trkpt lat="43.29691" lon="-1.49333">
        <ele>118</ele>
        <time>2026-03-06T15:18:55.000Z</time>
      </trkpt>
      <trkpt lat="43.29712" lon="-1.49316">
        <ele>121</ele>
        <time>2026-03-06T15:18:59.000Z</time>
      </trkpt>
      <trkpt lat="43.29736" lon="-1.49301">
        <ele>123</ele>
        <time>2026-03-06T15:19:04.000Z</time>
      </trkpt>
      <trkpt lat="43.29765" lon="-1.49293">
        <ele>125</ele>
        <time>2026-03-06T15:19:09.000Z</time>
      </trkpt>
      <trkpt lat="43.29798" lon="-1.49296">
        <ele>127</ele>
        <time>2026-03-06T15:19:15.000Z</time>
      </trkpt>
      <trkpt lat="43.29821" lon="-1.49304">
        <ele>129</ele>
        <time>2026-03-06T15:19:19.000Z</time>
      </trkpt>
      <trkpt lat="43.29845" lon="-1.4932">
        <ele>132</ele>
        <time>2026-03-06T15:19:24.000Z</time>
      </trkpt>
      <trkpt lat="43.29891" lon="-1.49371">
        <ele>136</ele>
        <time>2026-03-06T15:19:34.000Z</time>
      </trkpt>
      <trkpt lat="43.29917" lon="-1.49397">
        <ele>135</ele>
        <time>2026-03-06T15:19:40.000Z</time>
      </trkpt>
      <trkpt lat="43.29939" lon="-1.49413">
        <ele>134</ele>
        <time>2026-03-06T15:19:45.000Z</time>
      </trkpt>
      <trkpt lat="43.2996" lon="-1.49425">
        <ele>133</ele>
        <time>2026-03-06T15:19:49.000Z</time>
      </trkpt>
      <trkpt lat="43.29985" lon="-1.49434">
        <ele>131</ele>
        <time>2026-03-06T15:19:53.000Z</time>
      </trkpt>
      <trkpt lat="43.30021" lon="-1.49441">
        <ele>129</ele>
        <time>2026-03-06T15:20:00.000Z</time>
      </trkpt>
      <trkpt lat="43.30054" lon="-1.49441">
        <ele>127</ele>
        <time>2026-03-06T15:20:06.000Z</time>
      </trkpt>
      <trkpt lat="43.30073" lon="-1.49438">
        <ele>126</ele>
        <time>2026-03-06T15:20:09.000Z</time>
      </trkpt>
      <trkpt lat="43.30104" lon="-1.49427">
        <ele>127</ele>
        <time>2026-03-06T15:20:15.000Z</time>
      </trkpt>
      <trkpt lat="43.30222" lon="-1.49354">
        <ele>131</ele>
        <time>2026-03-06T15:20:38.000Z</time>
      </trkpt>
      <trkpt lat="43.30235" lon="-1.49349">
        <ele>131</ele>
        <time>2026-03-06T15:20:40.000Z</time>
      </trkpt>
      <trkpt lat="43.3025" lon="-1.49347">
        <ele>130</ele>
        <time>2026-03-06T15:20:43.000Z</time>
      </trkpt>
      <trkpt lat="43.30258" lon="-1.49349">
        <ele>131</ele>
        <time>2026-03-06T15:20:44.000Z</time>
      </trkpt>
      <trkpt lat="43.30267" lon="-1.49355">
        <ele>131</ele>
        <time>2026-03-06T15:20:46.000Z</time>
      </trkpt>
      <trkpt lat="43.30274" lon="-1.49364">
        <ele>131</ele>
        <time>2026-03-06T15:20:48.000Z</time>
      </trkpt>
      <trkpt lat="43.3028" lon="-1.49377">
        <ele>129</ele>
        <time>2026-03-06T15:20:50.000Z</time>
      </trkpt>
      <trkpt lat="43.30325" lon="-1.49545">
        <ele>124</ele>
        <time>2026-03-06T15:21:13.000Z</time>
      </trkpt>
      <trkpt lat="43.30334" lon="-1.49568">
        <ele>124</ele>
        <time>2026-03-06T15:21:16.000Z</time>
      </trkpt>
      <trkpt lat="43.30355" lon="-1.49589">
        <ele>124</ele>
        <time>2026-03-06T15:21:21.000Z</time>
      </trkpt>
      <trkpt lat="43.30381" lon="-1.49605">
        <ele>125</ele>
        <time>2026-03-06T15:21:26.000Z</time>
      </trkpt>
      <trkpt lat="43.30405" lon="-1.49627">
        <ele>124</ele>
        <time>2026-03-06T15:21:31.000Z</time>
      </trkpt>
      <trkpt lat="43.30424" lon="-1.49652">
        <ele>124</ele>
        <time>2026-03-06T15:21:36.000Z</time>
      </trkpt>
      <trkpt lat="43.3044" lon="-1.49684">
        <ele>122</ele>
        <time>2026-03-06T15:21:41.000Z</time>
      </trkpt>
      <trkpt lat="43.30452" lon="-1.49721">
        <ele>121</ele>
        <time>2026-03-06T15:21:46.000Z</time>
      </trkpt>
      <trkpt lat="43.30475" lon="-1.498">
        <ele>119</ele>
        <time>2026-03-06T15:21:57.000Z</time>
      </trkpt>
      <trkpt lat="43.30489" lon="-1.49837">
        <ele>119</ele>
        <time>2026-03-06T15:22:02.000Z</time>
      </trkpt>
      <trkpt lat="43.30527" lon="-1.49747">
        <ele>119</ele>
        <time>2026-03-06T15:22:16.000Z</time>
      </trkpt>
      <trkpt lat="43.30537" lon="-1.49737">
        <ele>119</ele>
        <time>2026-03-06T15:22:18.000Z</time>
      </trkpt>
      <trkpt lat="43.30625" lon="-1.49709">
        <ele>120</ele>
        <time>2026-03-06T15:22:34.000Z</time>
      </trkpt>
      <trkpt lat="43.30641" lon="-1.49707">
        <ele>119</ele>
        <time>2026-03-06T15:22:37.000Z</time>
      </trkpt>
      <trkpt lat="43.3066" lon="-1.4971">
        <ele>119</ele>
        <time>2026-03-06T15:22:40.000Z</time>
      </trkpt>
      <trkpt lat="43.30676" lon="-1.49695">
        <ele>118</ele>
        <time>2026-03-06T15:22:44.000Z</time>
      </trkpt>
      <trkpt lat="43.30681" lon="-1.49701">
        <ele>118</ele>
        <time>2026-03-06T15:22:45.000Z</time>
      </trkpt>
      <trkpt lat="43.30677" lon="-1.49725">
        <ele>118</ele>
        <time>2026-03-06T15:22:48.000Z</time>
      </trkpt>
      <trkpt lat="43.30684" lon="-1.49729">
        <ele>117</ele>
        <time>2026-03-06T15:22:50.000Z</time>
      </trkpt>
      <trkpt lat="43.30687" lon="-1.49738">
        <ele>117</ele>
        <time>2026-03-06T15:22:51.000Z</time>
      </trkpt>
      <trkpt lat="43.30686" lon="-1.49793">
        <ele>119</ele>
        <time>2026-03-06T15:22:58.000Z</time>
      </trkpt>
      <trkpt lat="43.30679" lon="-1.49877">
        <ele>123</ele>
        <time>2026-03-06T15:23:09.000Z</time>
      </trkpt>
      <trkpt lat="43.30723" lon="-1.49897">
        <ele>119</ele>
        <time>2026-03-06T15:23:17.000Z</time>
      </trkpt>
      <trkpt lat="43.30751" lon="-1.49901">
        <ele>116</ele>
        <time>2026-03-06T15:23:22.000Z</time>
      </trkpt>
      <trkpt lat="43.30812" lon="-1.49905">
        <ele>115</ele>
        <time>2026-03-06T15:23:33.000Z</time>
      </trkpt>
      <trkpt lat="43.30933" lon="-1.49904">
        <ele>112</ele>
        <time>2026-03-06T15:23:55.000Z</time>
      </trkpt>
      <trkpt lat="43.30934" lon="-1.49899">
        <ele>112</ele>
        <time>2026-03-06T15:23:55.000Z</time>
      </trkpt>
      <trkpt lat="43.30939" lon="-1.49898">
        <ele>111</ele>
        <time>2026-03-06T15:23:56.000Z</time>
      </trkpt>
      <trkpt lat="43.30934" lon="-1.49899">
        <ele>112</ele>
        <time>2026-03-06T15:23:57.000Z</time>
      </trkpt>
      <trkpt lat="43.30933" lon="-1.49904">
        <ele>112</ele>
        <time>2026-03-06T15:23:58.000Z</time>
      </trkpt>
      <trkpt lat="43.30981" lon="-1.499">
        <ele>110</ele>
        <time>2026-03-06T15:24:06.000Z</time>
      </trkpt>
      <trkpt lat="43.30997" lon="-1.49894">
        <ele>109</ele>
        <time>2026-03-06T15:24:09.000Z</time>
      </trkpt>
      <trkpt lat="43.31" lon="-1.49891">
        <ele>109</ele>
        <time>2026-03-06T15:24:10.000Z</time>
      </trkpt>
      <trkpt lat="43.31006" lon="-1.49892">
        <ele>108</ele>
        <time>2026-03-06T15:24:11.000Z</time>
      </trkpt>
      <trkpt lat="43.31008" lon="-1.49896">
        <ele>108</ele>
        <time>2026-03-06T15:24:12.000Z</time>
      </trkpt>
      <trkpt lat="43.31008" lon="-1.49902">
        <ele>108</ele>
        <time>2026-03-06T15:24:12.000Z</time>
      </trkpt>
      <trkpt lat="43.31006" lon="-1.49906">
        <ele>109</ele>
        <time>2026-03-06T15:24:13.000Z</time>
      </trkpt>
      <trkpt lat="43.31009" lon="-1.49927">
        <ele>109</ele>
        <time>2026-03-06T15:24:16.000Z</time>
      </trkpt>
      <trkpt lat="43.31014" lon="-1.49939">
        <ele>108</ele>
        <time>2026-03-06T15:24:18.000Z</time>
      </trkpt>
      <trkpt lat="43.31048" lon="-1.50028">
        <ele>103</ele>
        <time>2026-03-06T15:24:31.000Z</time>
      </trkpt>
      <trkpt lat="43.31059" lon="-1.50046">
        <ele>103</ele>
        <time>2026-03-06T15:24:34.000Z</time>
      </trkpt>
      <trkpt lat="43.31073" lon="-1.50055">
        <ele>102</ele>
        <time>2026-03-06T15:24:36.000Z</time>
      </trkpt>
      <trkpt lat="43.31087" lon="-1.50057">
        <ele>101</ele>
        <time>2026-03-06T15:24:39.000Z</time>
      </trkpt>
      <trkpt lat="43.31115" lon="-1.50053">
        <ele>98</ele>
        <time>2026-03-06T15:24:44.000Z</time>
      </trkpt>
      <trkpt lat="43.31135" lon="-1.50043">
        <ele>97</ele>
        <time>2026-03-06T15:24:48.000Z</time>
      </trkpt>
      <trkpt lat="43.31127" lon="-1.49997">
        <ele>95</ele>
        <time>2026-03-06T15:24:54.000Z</time>
      </trkpt>
      <trkpt lat="43.31129" lon="-1.49853">
        <ele>95</ele>
        <time>2026-03-06T15:25:13.000Z</time>
      </trkpt>
      <trkpt lat="43.31134" lon="-1.49819">
        <ele>94</ele>
        <time>2026-03-06T15:25:17.000Z</time>
      </trkpt>
      <trkpt lat="43.31144" lon="-1.49792">
        <ele>93</ele>
        <time>2026-03-06T15:25:21.000Z</time>
      </trkpt>
      <trkpt lat="43.31159" lon="-1.49767">
        <ele>91</ele>
        <time>2026-03-06T15:25:25.000Z</time>
      </trkpt>
      <trkpt lat="43.31215" lon="-1.49711">
        <ele>87</ele>
        <time>2026-03-06T15:25:37.000Z</time>
      </trkpt>
      <trkpt lat="43.31307" lon="-1.49593">
        <ele>92</ele>
        <time>2026-03-06T15:26:00.000Z</time>
      </trkpt>
      <trkpt lat="43.31354" lon="-1.49552">
        <ele>94</ele>
        <time>2026-03-06T15:26:10.000Z</time>
      </trkpt>
      <trkpt lat="43.31426" lon="-1.49471">
        <ele>96</ele>
        <time>2026-03-06T15:26:26.000Z</time>
      </trkpt>
      <trkpt lat="43.31449" lon="-1.49443">
        <ele>98</ele>
        <time>2026-03-06T15:26:32.000Z</time>
      </trkpt>
      <trkpt lat="43.31534" lon="-1.49304">
        <ele>102</ele>
        <time>2026-03-06T15:26:55.000Z</time>
      </trkpt>
      <trkpt lat="43.31554" lon="-1.49261">
        <ele>103</ele>
        <time>2026-03-06T15:27:02.000Z</time>
      </trkpt>
      <trkpt lat="43.31645" lon="-1.49023">
        <ele>107</ele>
        <time>2026-03-06T15:27:37.000Z</time>
      </trkpt>
      <trkpt lat="43.31656" lon="-1.48998">
        <ele>108</ele>
        <time>2026-03-06T15:27:40.000Z</time>
      </trkpt>
      <trkpt lat="43.31664" lon="-1.48987">
        <ele>108</ele>
        <time>2026-03-06T15:27:42.000Z</time>
      </trkpt>
      <trkpt lat="43.31674" lon="-1.48975">
        <ele>109</ele>
        <time>2026-03-06T15:27:45.000Z</time>
      </trkpt>
      <trkpt lat="43.31724" lon="-1.48934">
        <ele>112</ele>
        <time>2026-03-06T15:27:55.000Z</time>
      </trkpt>
      <trkpt lat="43.3174" lon="-1.48919">
        <ele>112</ele>
        <time>2026-03-06T15:27:59.000Z</time>
      </trkpt>
      <trkpt lat="43.31802" lon="-1.48835">
        <ele>115</ele>
        <time>2026-03-06T15:28:14.000Z</time>
      </trkpt>
      <trkpt lat="43.31849" lon="-1.48752">
        <ele>117</ele>
        <time>2026-03-06T15:28:28.000Z</time>
      </trkpt>
      <trkpt lat="43.31865" lon="-1.48729">
        <ele>120</ele>
        <time>2026-03-06T15:28:32.000Z</time>
      </trkpt>
      <trkpt lat="43.31887" lon="-1.48709">
        <ele>122</ele>
        <time>2026-03-06T15:28:37.000Z</time>
      </trkpt>
      <trkpt lat="43.31968" lon="-1.48653">
        <ele>127</ele>
        <time>2026-03-06T15:28:53.000Z</time>
      </trkpt>
      <trkpt lat="43.31989" lon="-1.48637">
        <ele>128</ele>
        <time>2026-03-06T15:28:57.000Z</time>
      </trkpt>
      <trkpt lat="43.32011" lon="-1.48613">
        <ele>130</ele>
        <time>2026-03-06T15:29:02.000Z</time>
      </trkpt>
      <trkpt lat="43.32029" lon="-1.4859">
        <ele>132</ele>
        <time>2026-03-06T15:29:06.000Z</time>
      </trkpt>
      <trkpt lat="43.32051" lon="-1.48556">
        <ele>135</ele>
        <time>2026-03-06T15:29:12.000Z</time>
      </trkpt>
      <trkpt lat="43.32086" lon="-1.48499">
        <ele>137</ele>
        <time>2026-03-06T15:29:22.000Z</time>
      </trkpt>
      <trkpt lat="43.32141" lon="-1.48391">
        <ele>146</ele>
        <time>2026-03-06T15:29:39.000Z</time>
      </trkpt>
      <trkpt lat="43.32174" lon="-1.48315">
        <ele>145</ele>
        <time>2026-03-06T15:29:50.000Z</time>
      </trkpt>
      <trkpt lat="43.32186" lon="-1.48282">
        <ele>149</ele>
        <time>2026-03-06T15:29:55.000Z</time>
      </trkpt>
      <trkpt lat="43.32202" lon="-1.48227">
        <ele>149</ele>
        <time>2026-03-06T15:30:03.000Z</time>
      </trkpt>
      <trkpt lat="43.32208" lon="-1.48214">
        <ele>148</ele>
        <time>2026-03-06T15:30:05.000Z</time>
      </trkpt>
      <trkpt lat="43.32221" lon="-1.48194">
        <ele>146</ele>
        <time>2026-03-06T15:30:08.000Z</time>
      </trkpt>
      <trkpt lat="43.32272" lon="-1.48128">
        <ele>149</ele>
        <time>2026-03-06T15:30:21.000Z</time>
      </trkpt>
      <trkpt lat="43.3229" lon="-1.48106">
        <ele>151</ele>
        <time>2026-03-06T15:30:25.000Z</time>
      </trkpt>
      <trkpt lat="43.32312" lon="-1.48087">
        <ele>152</ele>
        <time>2026-03-06T15:30:30.000Z</time>
      </trkpt>
      <trkpt lat="43.32366" lon="-1.4805">
        <ele>154</ele>
        <time>2026-03-06T15:30:40.000Z</time>
      </trkpt>
      <trkpt lat="43.32384" lon="-1.4803">
        <ele>155</ele>
        <time>2026-03-06T15:30:45.000Z</time>
      </trkpt>
      <trkpt lat="43.32402" lon="-1.47996">
        <ele>154</ele>
        <time>2026-03-06T15:30:50.000Z</time>
      </trkpt>
      <trkpt lat="43.32467" lon="-1.47857">
        <ele>161</ele>
        <time>2026-03-06T15:31:11.000Z</time>
      </trkpt>
      <trkpt lat="43.3253" lon="-1.47728">
        <ele>162</ele>
        <time>2026-03-06T15:31:31.000Z</time>
      </trkpt>
      <trkpt lat="43.32544" lon="-1.47707">
        <ele>163</ele>
        <time>2026-03-06T15:31:35.000Z</time>
      </trkpt>
      <trkpt lat="43.32591" lon="-1.47653">
        <ele>164</ele>
        <time>2026-03-06T15:31:46.000Z</time>
      </trkpt>
      <trkpt lat="43.32602" lon="-1.47637">
        <ele>166</ele>
        <time>2026-03-06T15:31:49.000Z</time>
      </trkpt>
      <trkpt lat="43.32678" lon="-1.475">
        <ele>170</ele>
        <time>2026-03-06T15:32:11.000Z</time>
      </trkpt>
      <trkpt lat="43.32699" lon="-1.47464">
        <ele>173</ele>
        <time>2026-03-06T15:32:17.000Z</time>
      </trkpt>
      <trkpt lat="43.32707" lon="-1.47454">
        <ele>174</ele>
        <time>2026-03-06T15:32:19.000Z</time>
      </trkpt>
      <trkpt lat="43.32723" lon="-1.47442">
        <ele>175</ele>
        <time>2026-03-06T15:32:22.000Z</time>
      </trkpt>
      <trkpt lat="43.32766" lon="-1.47426">
        <ele>175</ele>
        <time>2026-03-06T15:32:30.000Z</time>
      </trkpt>
      <trkpt lat="43.32805" lon="-1.47317">
        <ele>175</ele>
        <time>2026-03-06T15:32:46.000Z</time>
      </trkpt>
      <trkpt lat="43.32808" lon="-1.47303">
        <ele>176</ele>
        <time>2026-03-06T15:32:48.000Z</time>
      </trkpt>
      <trkpt lat="43.32808" lon="-1.47272">
        <ele>178</ele>
        <time>2026-03-06T15:32:52.000Z</time>
      </trkpt>
      <trkpt lat="43.32795" lon="-1.47144">
        <ele>186</ele>
        <time>2026-03-06T15:33:09.000Z</time>
      </trkpt>
      <trkpt lat="43.32797" lon="-1.47101">
        <ele>186</ele>
        <time>2026-03-06T15:33:14.000Z</time>
      </trkpt>
      <trkpt lat="43.3281" lon="-1.46994">
        <ele>186</ele>
        <time>2026-03-06T15:33:28.000Z</time>
      </trkpt>
      <trkpt lat="43.32826" lon="-1.46913">
        <ele>187</ele>
        <time>2026-03-06T15:33:39.000Z</time>
      </trkpt>
      <trkpt lat="43.32841" lon="-1.46881">
        <ele>184</ele>
        <time>2026-03-06T15:33:44.000Z</time>
      </trkpt>
      <trkpt lat="43.32865" lon="-1.46842">
        <ele>180</ele>
        <time>2026-03-06T15:33:51.000Z</time>
      </trkpt>
      <trkpt lat="43.3287" lon="-1.46825">
        <ele>178</ele>
        <time>2026-03-06T15:33:53.000Z</time>
      </trkpt>
      <trkpt lat="43.32874" lon="-1.468">
        <ele>175</ele>
        <time>2026-03-06T15:33:56.000Z</time>
      </trkpt>
      <trkpt lat="43.32882" lon="-1.46773">
        <ele>172</ele>
        <time>2026-03-06T15:34:00.000Z</time>
      </trkpt>
      <trkpt lat="43.32943" lon="-1.46634">
        <ele>170</ele>
        <time>2026-03-06T15:34:21.000Z</time>
      </trkpt>
      <trkpt lat="43.3295" lon="-1.46608">
        <ele>170</ele>
        <time>2026-03-06T15:34:25.000Z</time>
      </trkpt>
      <trkpt lat="43.32952" lon="-1.4659">
        <ele>171</ele>
        <time>2026-03-06T15:34:27.000Z</time>
      </trkpt>
      <trkpt lat="43.32951" lon="-1.46575">
        <ele>173</ele>
        <time>2026-03-06T15:34:29.000Z</time>
      </trkpt>
      <trkpt lat="43.32939" lon="-1.46538">
        <ele>177</ele>
        <time>2026-03-06T15:34:34.000Z</time>
      </trkpt>
      <trkpt lat="43.32934" lon="-1.4651">
        <ele>179</ele>
        <time>2026-03-06T15:34:38.000Z</time>
      </trkpt>
      <trkpt lat="43.32934" lon="-1.46494">
        <ele>179</ele>
        <time>2026-03-06T15:34:40.000Z</time>
      </trkpt>
      <trkpt lat="43.32936" lon="-1.46487">
        <ele>178</ele>
        <time>2026-03-06T15:34:41.000Z</time>
      </trkpt>
      <trkpt lat="43.32945" lon="-1.46467">
        <ele>176</ele>
        <time>2026-03-06T15:34:44.000Z</time>
      </trkpt>
      <trkpt lat="43.32983" lon="-1.46427">
        <ele>174</ele>
        <time>2026-03-06T15:34:53.000Z</time>
      </trkpt>
      <trkpt lat="43.33014" lon="-1.46401">
        <ele>172</ele>
        <time>2026-03-06T15:34:59.000Z</time>
      </trkpt>
      <trkpt lat="43.33032" lon="-1.46377">
        <ele>168</ele>
        <time>2026-03-06T15:35:04.000Z</time>
      </trkpt>
      <trkpt lat="43.33043" lon="-1.46342">
        <ele>167</ele>
        <time>2026-03-06T15:35:08.000Z</time>
      </trkpt>
      <trkpt lat="43.33072" lon="-1.46241">
        <ele>164</ele>
        <time>2026-03-06T15:35:23.000Z</time>
      </trkpt>
      <trkpt lat="43.33098" lon="-1.46162">
        <ele>164</ele>
        <time>2026-03-06T15:35:34.000Z</time>
      </trkpt>
      <trkpt lat="43.3311" lon="-1.46102">
        <ele>160</ele>
        <time>2026-03-06T15:35:42.000Z</time>
      </trkpt>
      <trkpt lat="43.33116" lon="-1.46082">
        <ele>158</ele>
        <time>2026-03-06T15:35:45.000Z</time>
      </trkpt>
      <trkpt lat="43.33121" lon="-1.46073">
        <ele>156</ele>
        <time>2026-03-06T15:35:46.000Z</time>
      </trkpt>
      <trkpt lat="43.33133" lon="-1.46059">
        <ele>154</ele>
        <time>2026-03-06T15:35:49.000Z</time>
      </trkpt>
      <trkpt lat="43.33182" lon="-1.46016">
        <ele>145</ele>
        <time>2026-03-06T15:35:59.000Z</time>
      </trkpt>
      <trkpt lat="43.33196" lon="-1.45998">
        <ele>142</ele>
        <time>2026-03-06T15:36:03.000Z</time>
      </trkpt>
      <trkpt lat="43.33226" lon="-1.4594">
        <ele>138</ele>
        <time>2026-03-06T15:36:12.000Z</time>
      </trkpt>
      <trkpt lat="43.33231" lon="-1.45925">
        <ele>138</ele>
        <time>2026-03-06T15:36:14.000Z</time>
      </trkpt>
      <trkpt lat="43.33237" lon="-1.45903">
        <ele>138</ele>
        <time>2026-03-06T15:36:17.000Z</time>
      </trkpt>
      <trkpt lat="43.33239" lon="-1.45872">
        <ele>137</ele>
        <time>2026-03-06T15:36:21.000Z</time>
      </trkpt>
      <trkpt lat="43.33234" lon="-1.4583">
        <ele>134</ele>
        <time>2026-03-06T15:36:27.000Z</time>
      </trkpt>
      <trkpt lat="43.33232" lon="-1.45798">
        <ele>132</ele>
        <time>2026-03-06T15:36:31.000Z</time>
      </trkpt>
      <trkpt lat="43.33233" lon="-1.45772">
        <ele>130</ele>
        <time>2026-03-06T15:36:34.000Z</time>
      </trkpt>
      <trkpt lat="43.33236" lon="-1.45755">
        <ele>130</ele>
        <time>2026-03-06T15:36:36.000Z</time>
      </trkpt>
      <trkpt lat="43.33246" lon="-1.45727">
        <ele>129</ele>
        <time>2026-03-06T15:36:40.000Z</time>
      </trkpt>
      <trkpt lat="43.33262" lon="-1.45667">
        <ele>126</ele>
        <time>2026-03-06T15:36:49.000Z</time>
      </trkpt>
      <trkpt lat="43.33264" lon="-1.45649">
        <ele>125</ele>
        <time>2026-03-06T15:36:51.000Z</time>
      </trkpt>
      <trkpt lat="43.33264" lon="-1.45629">
        <ele>124</ele>
        <time>2026-03-06T15:36:54.000Z</time>
      </trkpt>
      <trkpt lat="43.33259" lon="-1.45592">
        <ele>121</ele>
        <time>2026-03-06T15:36:58.000Z</time>
      </trkpt>
      <trkpt lat="43.33259" lon="-1.45567">
        <ele>119</ele>
        <time>2026-03-06T15:37:02.000Z</time>
      </trkpt>
      <trkpt lat="43.33262" lon="-1.45543">
        <ele>117</ele>
        <time>2026-03-06T15:37:05.000Z</time>
      </trkpt>
      <trkpt lat="43.33278" lon="-1.45487">
        <ele>113</ele>
        <time>2026-03-06T15:37:13.000Z</time>
      </trkpt>
      <trkpt lat="43.33293" lon="-1.45407">
        <ele>108</ele>
        <time>2026-03-06T15:37:23.000Z</time>
      </trkpt>
      <trkpt lat="43.33304" lon="-1.45354">
        <ele>108</ele>
        <time>2026-03-06T15:37:30.000Z</time>
      </trkpt>
      <trkpt lat="43.33309" lon="-1.45336">
        <ele>108</ele>
        <time>2026-03-06T15:37:33.000Z</time>
      </trkpt>
      <trkpt lat="43.33314" lon="-1.45325">
        <ele>108</ele>
        <time>2026-03-06T15:37:35.000Z</time>
      </trkpt>
      <trkpt lat="43.33321" lon="-1.45319">
        <ele>109</ele>
        <time>2026-03-06T15:37:36.000Z</time>
      </trkpt>
      <trkpt lat="43.33359" lon="-1.45297">
        <ele>108</ele>
        <time>2026-03-06T15:37:43.000Z</time>
      </trkpt>
      <trkpt lat="43.33416" lon="-1.4526">
        <ele>104</ele>
        <time>2026-03-06T15:37:55.000Z</time>
      </trkpt>
      <trkpt lat="43.33459" lon="-1.4524">
        <ele>102</ele>
        <time>2026-03-06T15:38:03.000Z</time>
      </trkpt>
      <trkpt lat="43.33488" lon="-1.45234">
        <ele>100</ele>
        <time>2026-03-06T15:38:08.000Z</time>
      </trkpt>
      <trkpt lat="43.33535" lon="-1.45239">
        <ele>97</ele>
        <time>2026-03-06T15:38:16.000Z</time>
      </trkpt>
      <trkpt lat="43.3355" lon="-1.45238">
        <ele>96</ele>
        <time>2026-03-06T15:38:19.000Z</time>
      </trkpt>
      <trkpt lat="43.33584" lon="-1.45224">
        <ele>97</ele>
        <time>2026-03-06T15:38:25.000Z</time>
      </trkpt>
      <trkpt lat="43.3367" lon="-1.45176">
        <ele>92</ele>
        <time>2026-03-06T15:38:42.000Z</time>
      </trkpt>
      <trkpt lat="43.33681" lon="-1.45173">
        <ele>91</ele>
        <time>2026-03-06T15:38:44.000Z</time>
      </trkpt>
      <trkpt lat="43.33722" lon="-1.45177">
        <ele>85</ele>
        <time>2026-03-06T15:38:51.000Z</time>
      </trkpt>
      <trkpt lat="43.33795" lon="-1.45168">
        <ele>77</ele>
        <time>2026-03-06T15:39:04.000Z</time>
      </trkpt>
      <trkpt lat="43.33814" lon="-1.45168">
        <ele>74</ele>
        <time>2026-03-06T15:39:08.000Z</time>
      </trkpt>
      <trkpt lat="43.33822" lon="-1.45167">
        <ele>73</ele>
        <time>2026-03-06T15:39:09.000Z</time>
      </trkpt>
      <trkpt lat="43.33828" lon="-1.45162">
        <ele>73</ele>
        <time>2026-03-06T15:39:10.000Z</time>
      </trkpt>
      <trkpt lat="43.33777" lon="-1.45078">
        <ele>84</ele>
        <time>2026-03-06T15:39:24.000Z</time>
      </trkpt>
      <trkpt lat="43.33748" lon="-1.45018">
        <ele>86</ele>
        <time>2026-03-06T15:39:34.000Z</time>
      </trkpt>
      <trkpt lat="43.33731" lon="-1.44971">
        <ele>85</ele>
        <time>2026-03-06T15:39:41.000Z</time>
      </trkpt>
      <trkpt lat="43.3371" lon="-1.44888">
        <ele>84</ele>
        <time>2026-03-06T15:39:52.000Z</time>
      </trkpt>
      <trkpt lat="43.33694" lon="-1.44781">
        <ele>81</ele>
        <time>2026-03-06T15:40:06.000Z</time>
      </trkpt>
      <trkpt lat="43.33692" lon="-1.44724">
        <ele>81</ele>
        <time>2026-03-06T15:40:13.000Z</time>
      </trkpt>
      <trkpt lat="43.33692" lon="-1.44668">
        <ele>81</ele>
        <time>2026-03-06T15:40:21.000Z</time>
      </trkpt>
      <trkpt lat="43.33699" lon="-1.44618">
        <ele>79</ele>
        <time>2026-03-06T15:40:27.000Z</time>
      </trkpt>
      <trkpt lat="43.33753" lon="-1.44617">
        <ele>78</ele>
        <time>2026-03-06T15:40:37.000Z</time>
      </trkpt>
      <trkpt lat="43.33768" lon="-1.44622">
        <ele>78</ele>
        <time>2026-03-06T15:40:40.000Z</time>
      </trkpt>
      <trkpt lat="43.33769" lon="-1.44625">
        <ele>78</ele>
        <time>2026-03-06T15:40:40.000Z</time>
      </trkpt>
      <trkpt lat="43.33768" lon="-1.44622">
        <ele>78</ele>
        <time>2026-03-06T15:40:40.000Z</time>
      </trkpt>
      <trkpt lat="43.33784" lon="-1.44625">
        <ele>78</ele>
        <time>2026-03-06T15:40:43.000Z</time>
      </trkpt>
      <trkpt lat="43.33809" lon="-1.4464">
        <ele>79</ele>
        <time>2026-03-06T15:40:48.000Z</time>
      </trkpt>
      <trkpt lat="43.33829" lon="-1.4465">
        <ele>79</ele>
        <time>2026-03-06T15:40:52.000Z</time>
      </trkpt>
      <trkpt lat="43.33837" lon="-1.4465">
        <ele>79</ele>
        <time>2026-03-06T15:40:53.000Z</time>
      </trkpt>
      <trkpt lat="43.33843" lon="-1.44657">
        <ele>79</ele>
        <time>2026-03-06T15:40:55.000Z</time>
      </trkpt>
      <trkpt lat="43.33844" lon="-1.44665">
        <ele>79</ele>
        <time>2026-03-06T15:40:56.000Z</time>
      </trkpt>
      <trkpt lat="43.33841" lon="-1.44675">
        <ele>79</ele>
        <time>2026-03-06T15:40:57.000Z</time>
      </trkpt>
      <trkpt lat="43.33836" lon="-1.44705">
        <ele>78</ele>
        <time>2026-03-06T15:41:01.000Z</time>
      </trkpt>
      <trkpt lat="43.33838" lon="-1.44749">
        <ele>77</ele>
        <time>2026-03-06T15:41:07.000Z</time>
      </trkpt>
      <trkpt lat="43.33839" lon="-1.44838">
        <ele>73</ele>
        <time>2026-03-06T15:41:18.000Z</time>
      </trkpt>
      <trkpt lat="43.33842" lon="-1.44857">
        <ele>73</ele>
        <time>2026-03-06T15:41:21.000Z</time>
      </trkpt>
      <trkpt lat="43.33848" lon="-1.44879">
        <ele>73</ele>
        <time>2026-03-06T15:41:24.000Z</time>
      </trkpt>
      <trkpt lat="43.33866" lon="-1.44918">
        <ele>72</ele>
        <time>2026-03-06T15:41:30.000Z</time>
      </trkpt>
      <trkpt lat="43.33984" lon="-1.45122">
        <ele>63</ele>
        <time>2026-03-06T15:42:04.000Z</time>
      </trkpt>
      <trkpt lat="43.33999" lon="-1.45136">
        <ele>62</ele>
        <time>2026-03-06T15:42:07.000Z</time>
      </trkpt>
      <trkpt lat="43.3401" lon="-1.45137">
        <ele>62</ele>
        <time>2026-03-06T15:42:09.000Z</time>
      </trkpt>
      <trkpt lat="43.34015" lon="-1.45144">
        <ele>62</ele>
        <time>2026-03-06T15:42:10.000Z</time>
      </trkpt>
      <trkpt lat="43.34017" lon="-1.45154">
        <ele>61</ele>
        <time>2026-03-06T15:42:12.000Z</time>
      </trkpt>
      <trkpt lat="43.34014" lon="-1.45165">
        <ele>61</ele>
        <time>2026-03-06T15:42:13.000Z</time>
      </trkpt>
      <trkpt lat="43.34006" lon="-1.45172">
        <ele>60</ele>
        <time>2026-03-06T15:42:15.000Z</time>
      </trkpt>
      <trkpt lat="43.33989" lon="-1.45195">
        <ele>60</ele>
        <time>2026-03-06T15:42:19.000Z</time>
      </trkpt>
      <trkpt lat="43.33983" lon="-1.4523">
        <ele>60</ele>
        <time>2026-03-06T15:42:24.000Z</time>
      </trkpt>
      <trkpt lat="43.33973" lon="-1.45255">
        <ele>60</ele>
        <time>2026-03-06T15:42:27.000Z</time>
      </trkpt>
      <trkpt lat="43.33958" lon="-1.45277">
        <ele>60</ele>
        <time>2026-03-06T15:42:31.000Z</time>
      </trkpt>
      <trkpt lat="43.33876" lon="-1.45358">
        <ele>60</ele>
        <time>2026-03-06T15:42:49.000Z</time>
      </trkpt>
      <trkpt lat="43.33858" lon="-1.45379">
        <ele>59</ele>
        <time>2026-03-06T15:42:53.000Z</time>
      </trkpt>
      <trkpt lat="43.33838" lon="-1.45406">
        <ele>59</ele>
        <time>2026-03-06T15:42:58.000Z</time>
      </trkpt>
      <trkpt lat="43.33826" lon="-1.45431">
        <ele>60</ele>
        <time>2026-03-06T15:43:02.000Z</time>
      </trkpt>
      <trkpt lat="43.33792" lon="-1.45523">
        <ele>63</ele>
        <time>2026-03-06T15:43:16.000Z</time>
      </trkpt>
      <trkpt lat="43.33767" lon="-1.45574">
        <ele>62</ele>
        <time>2026-03-06T15:43:24.000Z</time>
      </trkpt>
      <trkpt lat="43.33733" lon="-1.45627">
        <ele>63</ele>
        <time>2026-03-06T15:43:33.000Z</time>
      </trkpt>
      <trkpt lat="43.33573" lon="-1.45862">
        <ele>67</ele>
        <time>2026-03-06T15:44:14.000Z</time>
      </trkpt>
      <trkpt lat="43.33557" lon="-1.45894">
        <ele>67</ele>
        <time>2026-03-06T15:44:19.000Z</time>
      </trkpt>
      <trkpt lat="43.33549" lon="-1.45924">
        <ele>65</ele>
        <time>2026-03-06T15:44:24.000Z</time>
      </trkpt>
      <trkpt lat="43.33546" lon="-1.45957">
        <ele>62</ele>
        <time>2026-03-06T15:44:28.000Z</time>
      </trkpt>
      <trkpt lat="43.33547" lon="-1.45974">
        <ele>61</ele>
        <time>2026-03-06T15:44:30.000Z</time>
      </trkpt>
      <trkpt lat="43.33551" lon="-1.45999">
        <ele>58</ele>
        <time>2026-03-06T15:44:33.000Z</time>
      </trkpt>
      <trkpt lat="43.33557" lon="-1.46026">
        <ele>58</ele>
        <time>2026-03-06T15:44:37.000Z</time>
      </trkpt>
      <trkpt lat="43.33575" lon="-1.46087">
        <ele>57</ele>
        <time>2026-03-06T15:44:46.000Z</time>
      </trkpt>
      <trkpt lat="43.33583" lon="-1.46106">
        <ele>57</ele>
        <time>2026-03-06T15:44:48.000Z</time>
      </trkpt>
      <trkpt lat="43.33623" lon="-1.46179">
        <ele>56</ele>
        <time>2026-03-06T15:45:00.000Z</time>
      </trkpt>
      <trkpt lat="43.33637" lon="-1.46212">
        <ele>56</ele>
        <time>2026-03-06T15:45:05.000Z</time>
      </trkpt>
      <trkpt lat="43.33649" lon="-1.46259">
        <ele>56</ele>
        <time>2026-03-06T15:45:12.000Z</time>
      </trkpt>
      <trkpt lat="43.33698" lon="-1.46555">
        <ele>64</ele>
        <time>2026-03-06T15:45:51.000Z</time>
      </trkpt>
      <trkpt lat="43.33699" lon="-1.46592">
        <ele>64</ele>
        <time>2026-03-06T15:45:56.000Z</time>
      </trkpt>
      <trkpt lat="43.33695" lon="-1.46682">
        <ele>65</ele>
        <time>2026-03-06T15:46:07.000Z</time>
      </trkpt>
      <trkpt lat="43.33697" lon="-1.46717">
        <ele>66</ele>
        <time>2026-03-06T15:46:12.000Z</time>
      </trkpt>
      <trkpt lat="43.33702" lon="-1.46745">
        <ele>66</ele>
        <time>2026-03-06T15:46:16.000Z</time>
      </trkpt>
      <trkpt lat="43.33719" lon="-1.46803">
        <ele>67</ele>
        <time>2026-03-06T15:46:24.000Z</time>
      </trkpt>
      <trkpt lat="43.33729" lon="-1.46825">
        <ele>67</ele>
        <time>2026-03-06T15:46:27.000Z</time>
      </trkpt>
      <trkpt lat="43.3374" lon="-1.46847">
        <ele>67</ele>
        <time>2026-03-06T15:46:31.000Z</time>
      </trkpt>
      <trkpt lat="43.33765" lon="-1.46879">
        <ele>67</ele>
        <time>2026-03-06T15:46:37.000Z</time>
      </trkpt>
      <trkpt lat="43.33788" lon="-1.46898">
        <ele>67</ele>
        <time>2026-03-06T15:46:41.000Z</time>
      </trkpt>
      <trkpt lat="43.33876" lon="-1.46955">
        <ele>65</ele>
        <time>2026-03-06T15:46:59.000Z</time>
      </trkpt>
      <trkpt lat="43.33897" lon="-1.46973">
        <ele>64</ele>
        <time>2026-03-06T15:47:03.000Z</time>
      </trkpt>
      <trkpt lat="43.3396" lon="-1.47043">
        <ele>63</ele>
        <time>2026-03-06T15:47:17.000Z</time>
      </trkpt>
      <trkpt lat="43.33978" lon="-1.47069">
        <ele>64</ele>
        <time>2026-03-06T15:47:22.000Z</time>
      </trkpt>
      <trkpt lat="43.34043" lon="-1.47206">
        <ele>65</ele>
        <time>2026-03-06T15:47:43.000Z</time>
      </trkpt>
      <trkpt lat="43.34061" lon="-1.47249">
        <ele>65</ele>
        <time>2026-03-06T15:47:50.000Z</time>
      </trkpt>
      <trkpt lat="43.34074" lon="-1.47266">
        <ele>63</ele>
        <time>2026-03-06T15:47:53.000Z</time>
      </trkpt>
      <trkpt lat="43.3408" lon="-1.47267">
        <ele>62</ele>
        <time>2026-03-06T15:47:54.000Z</time>
      </trkpt>
      <trkpt lat="43.34084" lon="-1.47269">
        <ele>62</ele>
        <time>2026-03-06T15:47:55.000Z</time>
      </trkpt>
      <trkpt lat="43.34088" lon="-1.47277">
        <ele>62</ele>
        <time>2026-03-06T15:47:56.000Z</time>
      </trkpt>
      <trkpt lat="43.34088" lon="-1.47291">
        <ele>63</ele>
        <time>2026-03-06T15:47:58.000Z</time>
      </trkpt>
      <trkpt lat="43.34082" lon="-1.473">
        <ele>64</ele>
        <time>2026-03-06T15:47:59.000Z</time>
      </trkpt>
      <trkpt lat="43.34079" lon="-1.47302">
        <ele>64</ele>
        <time>2026-03-06T15:48:00.000Z</time>
      </trkpt>
      <trkpt lat="43.34071" lon="-1.47314">
        <ele>66</ele>
        <time>2026-03-06T15:48:02.000Z</time>
      </trkpt>
      <trkpt lat="43.3407" lon="-1.47328">
        <ele>67</ele>
        <time>2026-03-06T15:48:04.000Z</time>
      </trkpt>
      <trkpt lat="43.3408" lon="-1.47417">
        <ele>66</ele>
        <time>2026-03-06T15:48:16.000Z</time>
      </trkpt>
      <trkpt lat="43.34086" lon="-1.47446">
        <ele>64</ele>
        <time>2026-03-06T15:48:19.000Z</time>
      </trkpt>
      <trkpt lat="43.34088" lon="-1.47467">
        <ele>64</ele>
        <time>2026-03-06T15:48:22.000Z</time>
      </trkpt>
      <trkpt lat="43.34085" lon="-1.47515">
        <ele>64</ele>
        <time>2026-03-06T15:48:28.000Z</time>
      </trkpt>
      <trkpt lat="43.34087" lon="-1.47523">
        <ele>65</ele>
        <time>2026-03-06T15:48:30.000Z</time>
      </trkpt>
      <trkpt lat="43.34089" lon="-1.47535">
        <ele>65</ele>
        <time>2026-03-06T15:48:31.000Z</time>
      </trkpt>
      <trkpt lat="43.34086" lon="-1.47543">
        <ele>66</ele>
        <time>2026-03-06T15:48:32.000Z</time>
      </trkpt>
      <trkpt lat="43.3408" lon="-1.47547">
        <ele>66</ele>
        <time>2026-03-06T15:48:33.000Z</time>
      </trkpt>
      <trkpt lat="43.34042" lon="-1.47604">
        <ele>68</ele>
        <time>2026-03-06T15:48:43.000Z</time>
      </trkpt>
      <trkpt lat="43.34031" lon="-1.47624">
        <ele>68</ele>
        <time>2026-03-06T15:48:47.000Z</time>
      </trkpt>
      <trkpt lat="43.34002" lon="-1.47662">
        <ele>67</ele>
        <time>2026-03-06T15:48:54.000Z</time>
      </trkpt>
      <trkpt lat="43.33969" lon="-1.47701">
        <ele>68</ele>
        <time>2026-03-06T15:49:02.000Z</time>
      </trkpt>
      <trkpt lat="43.33946" lon="-1.47725">
        <ele>67</ele>
        <time>2026-03-06T15:49:07.000Z</time>
      </trkpt>
      <trkpt lat="43.33921" lon="-1.47742">
        <ele>65</ele>
        <time>2026-03-06T15:49:12.000Z</time>
      </trkpt>
      <trkpt lat="43.33898" lon="-1.47752">
        <ele>65</ele>
        <time>2026-03-06T15:49:16.000Z</time>
      </trkpt>
      <trkpt lat="43.33885" lon="-1.47757">
        <ele>65</ele>
        <time>2026-03-06T15:49:18.000Z</time>
      </trkpt>
      <trkpt lat="43.33845" lon="-1.47758">
        <ele>65</ele>
        <time>2026-03-06T15:49:26.000Z</time>
      </trkpt>
      <trkpt lat="43.33815" lon="-1.47753">
        <ele>66</ele>
        <time>2026-03-06T15:49:31.000Z</time>
      </trkpt>
      <trkpt lat="43.33732" lon="-1.47729">
        <ele>68</ele>
        <time>2026-03-06T15:49:46.000Z</time>
      </trkpt>
      <trkpt lat="43.33717" lon="-1.47729">
        <ele>68</ele>
        <time>2026-03-06T15:49:49.000Z</time>
      </trkpt>
      <trkpt lat="43.33696" lon="-1.47733">
        <ele>69</ele>
        <time>2026-03-06T15:49:52.000Z</time>
      </trkpt>
      <trkpt lat="43.33678" lon="-1.4774">
        <ele>70</ele>
        <time>2026-03-06T15:49:56.000Z</time>
      </trkpt>
      <trkpt lat="43.33662" lon="-1.47753">
        <ele>71</ele>
        <time>2026-03-06T15:49:59.000Z</time>
      </trkpt>
      <trkpt lat="43.33649" lon="-1.47767">
        <ele>72</ele>
        <time>2026-03-06T15:50:02.000Z</time>
      </trkpt>
      <trkpt lat="43.33636" lon="-1.47788">
        <ele>73</ele>
        <time>2026-03-06T15:50:06.000Z</time>
      </trkpt>
      <trkpt lat="43.3363" lon="-1.47802">
        <ele>74</ele>
        <time>2026-03-06T15:50:08.000Z</time>
      </trkpt>
      <trkpt lat="43.33623" lon="-1.47822">
        <ele>74</ele>
        <time>2026-03-06T15:50:11.000Z</time>
      </trkpt>
      <trkpt lat="43.33619" lon="-1.47846">
        <ele>75</ele>
        <time>2026-03-06T15:50:14.000Z</time>
      </trkpt>
      <trkpt lat="43.33574" lon="-1.48188">
        <ele>94</ele>
        <time>2026-03-06T15:50:59.000Z</time>
      </trkpt>
      <trkpt lat="43.33562" lon="-1.48253">
        <ele>96</ele>
        <time>2026-03-06T15:51:07.000Z</time>
      </trkpt>
      <trkpt lat="43.3355" lon="-1.48289">
        <ele>98</ele>
        <time>2026-03-06T15:51:12.000Z</time>
      </trkpt>
      <trkpt lat="43.33532" lon="-1.48328">
        <ele>98</ele>
        <time>2026-03-06T15:51:18.000Z</time>
      </trkpt>
      <trkpt lat="43.33476" lon="-1.4843">
        <ele>103</ele>
        <time>2026-03-06T15:51:35.000Z</time>
      </trkpt>
      <trkpt lat="43.33458" lon="-1.48476">
        <ele>106</ele>
        <time>2026-03-06T15:51:42.000Z</time>
      </trkpt>
      <trkpt lat="43.3345" lon="-1.48502">
        <ele>107</ele>
        <time>2026-03-06T15:51:45.000Z</time>
      </trkpt>
      <trkpt lat="43.33436" lon="-1.48594">
        <ele>111</ele>
        <time>2026-03-06T15:51:58.000Z</time>
      </trkpt>
      <trkpt lat="43.3343" lon="-1.48616">
        <ele>111</ele>
        <time>2026-03-06T15:52:01.000Z</time>
      </trkpt>
      <trkpt lat="43.33422" lon="-1.48636">
        <ele>110</ele>
        <time>2026-03-06T15:52:04.000Z</time>
      </trkpt>
      <trkpt lat="43.33412" lon="-1.48655">
        <ele>110</ele>
        <time>2026-03-06T15:52:07.000Z</time>
      </trkpt>
      <trkpt lat="43.334" lon="-1.48674">
        <ele>111</ele>
        <time>2026-03-06T15:52:10.000Z</time>
      </trkpt>
      <trkpt lat="43.3336" lon="-1.48717">
        <ele>114</ele>
        <time>2026-03-06T15:52:19.000Z</time>
      </trkpt>
      <trkpt lat="43.33343" lon="-1.48738">
        <ele>117</ele>
        <time>2026-03-06T15:52:23.000Z</time>
      </trkpt>
      <trkpt lat="43.33316" lon="-1.48784">
        <ele>120</ele>
        <time>2026-03-06T15:52:31.000Z</time>
      </trkpt>
      <trkpt lat="43.33301" lon="-1.48815">
        <ele>121</ele>
        <time>2026-03-06T15:52:35.000Z</time>
      </trkpt>
      <trkpt lat="43.33289" lon="-1.48848">
        <ele>122</ele>
        <time>2026-03-06T15:52:40.000Z</time>
      </trkpt>
      <trkpt lat="43.33285" lon="-1.48866">
        <ele>122</ele>
        <time>2026-03-06T15:52:43.000Z</time>
      </trkpt>
      <trkpt lat="43.33283" lon="-1.48892">
        <ele>122</ele>
        <time>2026-03-06T15:52:46.000Z</time>
      </trkpt>
      <trkpt lat="43.33286" lon="-1.48916">
        <ele>123</ele>
        <time>2026-03-06T15:52:49.000Z</time>
      </trkpt>
      <trkpt lat="43.33286" lon="-1.48924">
        <ele>123</ele>
        <time>2026-03-06T15:52:50.000Z</time>
      </trkpt>
      <trkpt lat="43.33292" lon="-1.48932">
        <ele>123</ele>
        <time>2026-03-06T15:52:52.000Z</time>
      </trkpt>
      <trkpt lat="43.33293" lon="-1.48942">
        <ele>124</ele>
        <time>2026-03-06T15:52:53.000Z</time>
      </trkpt>
      <trkpt lat="43.33291" lon="-1.48946">
        <ele>124</ele>
        <time>2026-03-06T15:52:54.000Z</time>
      </trkpt>
      <trkpt lat="43.33294" lon="-1.48966">
        <ele>124</ele>
        <time>2026-03-06T15:52:56.000Z</time>
      </trkpt>
      <trkpt lat="43.33304" lon="-1.48993">
        <ele>124</ele>
        <time>2026-03-06T15:53:00.000Z</time>
      </trkpt>
      <trkpt lat="43.33309" lon="-1.49012">
        <ele>122</ele>
        <time>2026-03-06T15:53:03.000Z</time>
      </trkpt>
      <trkpt lat="43.33314" lon="-1.49049">
        <ele>120</ele>
        <time>2026-03-06T15:53:08.000Z</time>
      </trkpt>
      <trkpt lat="43.33336" lon="-1.49374">
        <ele>105</ele>
        <time>2026-03-06T15:53:50.000Z</time>
      </trkpt>
      <trkpt lat="43.33338" lon="-1.49433">
        <ele>104</ele>
        <time>2026-03-06T15:53:58.000Z</time>
      </trkpt>
      <trkpt lat="43.33336" lon="-1.49514">
        <ele>105</ele>
        <time>2026-03-06T15:54:08.000Z</time>
      </trkpt>
      <trkpt lat="43.33314" lon="-1.49693">
        <ele>96</ele>
        <time>2026-03-06T15:54:32.000Z</time>
      </trkpt>
      <trkpt lat="43.33312" lon="-1.49747">
        <ele>94</ele>
        <time>2026-03-06T15:54:39.000Z</time>
      </trkpt>
      <trkpt lat="43.33313" lon="-1.49796">
        <ele>93</ele>
        <time>2026-03-06T15:54:45.000Z</time>
      </trkpt>
      <trkpt lat="43.3332" lon="-1.49838">
        <ele>92</ele>
        <time>2026-03-06T15:54:50.000Z</time>
      </trkpt>
      <trkpt lat="43.33329" lon="-1.4987">
        <ele>89</ele>
        <time>2026-03-06T15:54:55.000Z</time>
      </trkpt>
      <trkpt lat="43.3346" lon="-1.50244">
        <ele>77</ele>
        <time>2026-03-06T15:55:49.000Z</time>
      </trkpt>
      <trkpt lat="43.33479" lon="-1.50283">
        <ele>76</ele>
        <time>2026-03-06T15:55:55.000Z</time>
      </trkpt>
      <trkpt lat="43.33498" lon="-1.50311">
        <ele>75</ele>
        <time>2026-03-06T15:56:00.000Z</time>
      </trkpt>
      <trkpt lat="43.33551" lon="-1.50375">
        <ele>76</ele>
        <time>2026-03-06T15:56:12.000Z</time>
      </trkpt>
      <trkpt lat="43.33579" lon="-1.50425">
        <ele>74</ele>
        <time>2026-03-06T15:56:20.000Z</time>
      </trkpt>
      <trkpt lat="43.33599" lon="-1.50474">
        <ele>76</ele>
        <time>2026-03-06T15:56:28.000Z</time>
      </trkpt>
      <trkpt lat="43.33612" lon="-1.50548">
        <ele>76</ele>
        <time>2026-03-06T15:56:38.000Z</time>
      </trkpt>
      <trkpt lat="43.33612" lon="-1.5057">
        <ele>76</ele>
        <time>2026-03-06T15:56:40.000Z</time>
      </trkpt>
      <trkpt lat="43.33594" lon="-1.50663">
        <ele>70</ele>
        <time>2026-03-06T15:56:53.000Z</time>
      </trkpt>
      <trkpt lat="43.33588" lon="-1.50703">
        <ele>65</ele>
        <time>2026-03-06T15:56:58.000Z</time>
      </trkpt>
      <trkpt lat="43.33586" lon="-1.50738">
        <ele>62</ele>
        <time>2026-03-06T15:57:03.000Z</time>
      </trkpt>
      <trkpt lat="43.33589" lon="-1.5077">
        <ele>60</ele>
        <time>2026-03-06T15:57:07.000Z</time>
      </trkpt>
      <trkpt lat="43.3363" lon="-1.51094">
        <ele>53</ele>
        <time>2026-03-06T15:57:49.000Z</time>
      </trkpt>
      <trkpt lat="43.33637" lon="-1.51133">
        <ele>52</ele>
        <time>2026-03-06T15:57:55.000Z</time>
      </trkpt>
      <trkpt lat="43.33643" lon="-1.51157">
        <ele>52</ele>
        <time>2026-03-06T15:57:58.000Z</time>
      </trkpt>
      <trkpt lat="43.33747" lon="-1.51498">
        <ele>47</ele>
        <time>2026-03-06T15:58:46.000Z</time>
      </trkpt>
      <trkpt lat="43.33772" lon="-1.51561">
        <ele>47</ele>
        <time>2026-03-06T15:58:55.000Z</time>
      </trkpt>
      <trkpt lat="43.33834" lon="-1.51711">
        <ele>44</ele>
        <time>2026-03-06T15:59:17.000Z</time>
      </trkpt>
      <trkpt lat="43.34149" lon="-1.52453">
        <ele>42</ele>
        <time>2026-03-06T16:01:09.000Z</time>
      </trkpt>
      <trkpt lat="43.34166" lon="-1.52489">
        <ele>41</ele>
        <time>2026-03-06T16:01:14.000Z</time>
      </trkpt>
      <trkpt lat="43.34244" lon="-1.52614">
        <ele>41</ele>
        <time>2026-03-06T16:01:35.000Z</time>
      </trkpt>
      <trkpt lat="43.3431" lon="-1.52726">
        <ele>38</ele>
        <time>2026-03-06T16:01:54.000Z</time>
      </trkpt>
      <trkpt lat="43.34316" lon="-1.52737">
        <ele>37</ele>
        <time>2026-03-06T16:01:56.000Z</time>
      </trkpt>
      <trkpt lat="43.34321" lon="-1.52745">
        <ele>36</ele>
        <time>2026-03-06T16:01:57.000Z</time>
      </trkpt>
      <trkpt lat="43.34332" lon="-1.52757">
        <ele>35</ele>
        <time>2026-03-06T16:02:00.000Z</time>
      </trkpt>
      <trkpt lat="43.34343" lon="-1.52758">
        <ele>35</ele>
        <time>2026-03-06T16:02:02.000Z</time>
      </trkpt>
      <trkpt lat="43.34352" lon="-1.52768">
        <ele>35</ele>
        <time>2026-03-06T16:02:04.000Z</time>
      </trkpt>
      <trkpt lat="43.34354" lon="-1.52781">
        <ele>35</ele>
        <time>2026-03-06T16:02:05.000Z</time>
      </trkpt>
      <trkpt lat="43.34352" lon="-1.52792">
        <ele>35</ele>
        <time>2026-03-06T16:02:07.000Z</time>
      </trkpt>
      <trkpt lat="43.34359" lon="-1.52813">
        <ele>35</ele>
        <time>2026-03-06T16:02:10.000Z</time>
      </trkpt>
      <trkpt lat="43.34431" lon="-1.52938">
        <ele>36</ele>
        <time>2026-03-06T16:02:31.000Z</time>
      </trkpt>
      <trkpt lat="43.34439" lon="-1.5296">
        <ele>36</ele>
        <time>2026-03-06T16:02:34.000Z</time>
      </trkpt>
      <trkpt lat="43.34451" lon="-1.53016">
        <ele>38</ele>
        <time>2026-03-06T16:02:41.000Z</time>
      </trkpt>
      <trkpt lat="43.34461" lon="-1.53096">
        <ele>41</ele>
        <time>2026-03-06T16:02:52.000Z</time>
      </trkpt>
      <trkpt lat="43.34488" lon="-1.53413">
        <ele>43</ele>
        <time>2026-03-06T16:03:33.000Z</time>
      </trkpt>
      <trkpt lat="43.34523" lon="-1.53674">
        <ele>39</ele>
        <time>2026-03-06T16:04:07.000Z</time>
      </trkpt>
      <trkpt lat="43.34531" lon="-1.53721">
        <ele>38</ele>
        <time>2026-03-06T16:04:14.000Z</time>
      </trkpt>
      <trkpt lat="43.34557" lon="-1.53827">
        <ele>38</ele>
        <time>2026-03-06T16:04:28.000Z</time>
      </trkpt>
      <trkpt lat="43.34564" lon="-1.53862">
        <ele>37</ele>
        <time>2026-03-06T16:04:33.000Z</time>
      </trkpt>
      <trkpt lat="43.34567" lon="-1.53905">
        <ele>35</ele>
        <time>2026-03-06T16:04:38.000Z</time>
      </trkpt>
      <trkpt lat="43.34568" lon="-1.53959">
        <ele>34</ele>
        <time>2026-03-06T16:04:45.000Z</time>
      </trkpt>
      <trkpt lat="43.34572" lon="-1.53997">
        <ele>34</ele>
        <time>2026-03-06T16:04:50.000Z</time>
      </trkpt>
      <trkpt lat="43.34579" lon="-1.54025">
        <ele>34</ele>
        <time>2026-03-06T16:04:54.000Z</time>
      </trkpt>
      <trkpt lat="43.3459" lon="-1.54058">
        <ele>34</ele>
        <time>2026-03-06T16:04:59.000Z</time>
      </trkpt>
      <trkpt lat="43.34639" lon="-1.54155">
        <ele>37</ele>
        <time>2026-03-06T16:05:14.000Z</time>
      </trkpt>
      <trkpt lat="43.3465" lon="-1.54178">
        <ele>38</ele>
        <time>2026-03-06T16:05:18.000Z</time>
      </trkpt>
      <trkpt lat="43.34661" lon="-1.5421">
        <ele>37</ele>
        <time>2026-03-06T16:05:22.000Z</time>
      </trkpt>
      <trkpt lat="43.34667" lon="-1.54235">
        <ele>36</ele>
        <time>2026-03-06T16:05:26.000Z</time>
      </trkpt>
      <trkpt lat="43.34673" lon="-1.54279">
        <ele>35</ele>
        <time>2026-03-06T16:05:32.000Z</time>
      </trkpt>
      <trkpt lat="43.34674" lon="-1.54364">
        <ele>32</ele>
        <time>2026-03-06T16:05:43.000Z</time>
      </trkpt>
      <trkpt lat="43.34678" lon="-1.54431">
        <ele>30</ele>
        <time>2026-03-06T16:05:51.000Z</time>
      </trkpt>
      <trkpt lat="43.3468" lon="-1.5445">
        <ele>29</ele>
        <time>2026-03-06T16:05:54.000Z</time>
      </trkpt>
      <trkpt lat="43.34688" lon="-1.54483">
        <ele>28</ele>
        <time>2026-03-06T16:05:58.000Z</time>
      </trkpt>
      <trkpt lat="43.347" lon="-1.54509">
        <ele>28</ele>
        <time>2026-03-06T16:06:02.000Z</time>
      </trkpt>
      <trkpt lat="43.34869" lon="-1.54775">
        <ele>25</ele>
        <time>2026-03-06T16:06:48.000Z</time>
      </trkpt>
      <trkpt lat="43.34888" lon="-1.548">
        <ele>25</ele>
        <time>2026-03-06T16:06:53.000Z</time>
      </trkpt>
      <trkpt lat="43.34909" lon="-1.54821">
        <ele>24</ele>
        <time>2026-03-06T16:06:57.000Z</time>
      </trkpt>
      <trkpt lat="43.34941" lon="-1.54841">
        <ele>23</ele>
        <time>2026-03-06T16:07:03.000Z</time>
      </trkpt>
      <trkpt lat="43.34973" lon="-1.54858">
        <ele>23</ele>
        <time>2026-03-06T16:07:10.000Z</time>
      </trkpt>
      <trkpt lat="43.35076" lon="-1.54912">
        <ele>20</ele>
        <time>2026-03-06T16:07:29.000Z</time>
      </trkpt>
      <trkpt lat="43.35106" lon="-1.54935">
        <ele>19</ele>
        <time>2026-03-06T16:07:35.000Z</time>
      </trkpt>
      <trkpt lat="43.35113" lon="-1.54934">
        <ele>19</ele>
        <time>2026-03-06T16:07:37.000Z</time>
      </trkpt>
      <trkpt lat="43.3512" lon="-1.54937">
        <ele>19</ele>
        <time>2026-03-06T16:07:38.000Z</time>
      </trkpt>
      <trkpt lat="43.35125" lon="-1.54942">
        <ele>19</ele>
        <time>2026-03-06T16:07:39.000Z</time>
      </trkpt>
      <trkpt lat="43.35132" lon="-1.54956">
        <ele>18</ele>
        <time>2026-03-06T16:07:41.000Z</time>
      </trkpt>
      <trkpt lat="43.35133" lon="-1.54964">
        <ele>18</ele>
        <time>2026-03-06T16:07:42.000Z</time>
      </trkpt>
      <trkpt lat="43.35132" lon="-1.54974">
        <ele>18</ele>
        <time>2026-03-06T16:07:43.000Z</time>
      </trkpt>
      <trkpt lat="43.35128" lon="-1.54983">
        <ele>18</ele>
        <time>2026-03-06T16:07:45.000Z</time>
      </trkpt>
      <trkpt lat="43.35123" lon="-1.5499">
        <ele>18</ele>
        <time>2026-03-06T16:07:46.000Z</time>
      </trkpt>
      <trkpt lat="43.35211" lon="-1.55188">
        <ele>16</ele>
        <time>2026-03-06T16:08:16.000Z</time>
      </trkpt>
      <trkpt lat="43.35241" lon="-1.55255">
        <ele>17</ele>
        <time>2026-03-06T16:08:26.000Z</time>
      </trkpt>
      <trkpt lat="43.35261" lon="-1.55301">
        <ele>17</ele>
        <time>2026-03-06T16:08:33.000Z</time>
      </trkpt>
      <trkpt lat="43.35274" lon="-1.55324">
        <ele>18</ele>
        <time>2026-03-06T16:08:37.000Z</time>
      </trkpt>
      <trkpt lat="43.35293" lon="-1.55347">
        <ele>17</ele>
        <time>2026-03-06T16:08:42.000Z</time>
      </trkpt>
      <trkpt lat="43.35313" lon="-1.55363">
        <ele>17</ele>
        <time>2026-03-06T16:08:46.000Z</time>
      </trkpt>
      <trkpt lat="43.35338" lon="-1.55377">
        <ele>16</ele>
        <time>2026-03-06T16:08:50.000Z</time>
      </trkpt>
      <trkpt lat="43.35369" lon="-1.55382">
        <ele>16</ele>
        <time>2026-03-06T16:08:56.000Z</time>
      </trkpt>
      <trkpt lat="43.35398" lon="-1.5538">
        <ele>16</ele>
        <time>2026-03-06T16:09:01.000Z</time>
      </trkpt>
      <trkpt lat="43.35456" lon="-1.55371">
        <ele>16</ele>
        <time>2026-03-06T16:09:12.000Z</time>
      </trkpt>
      <trkpt lat="43.35483" lon="-1.5537">
        <ele>16</ele>
        <time>2026-03-06T16:09:16.000Z</time>
      </trkpt>
      <trkpt lat="43.35496" lon="-1.55373">
        <ele>16</ele>
        <time>2026-03-06T16:09:19.000Z</time>
      </trkpt>
      <trkpt lat="43.35509" lon="-1.55378">
        <ele>16</ele>
        <time>2026-03-06T16:09:21.000Z</time>
      </trkpt>
      <trkpt lat="43.35523" lon="-1.55388">
        <ele>16</ele>
        <time>2026-03-06T16:09:24.000Z</time>
      </trkpt>
      <trkpt lat="43.35548" lon="-1.55396">
        <ele>16</ele>
        <time>2026-03-06T16:09:28.000Z</time>
      </trkpt>
      <trkpt lat="43.35554" lon="-1.55395">
        <ele>16</ele>
        <time>2026-03-06T16:09:30.000Z</time>
      </trkpt>
      <trkpt lat="43.35561" lon="-1.554">
        <ele>16</ele>
        <time>2026-03-06T16:09:31.000Z</time>
      </trkpt>
      <trkpt lat="43.35565" lon="-1.55409">
        <ele>16</ele>
        <time>2026-03-06T16:09:32.000Z</time>
      </trkpt>
      <trkpt lat="43.35564" lon="-1.55422">
        <ele>16</ele>
        <time>2026-03-06T16:09:34.000Z</time>
      </trkpt>
      <trkpt lat="43.35574" lon="-1.55455">
        <ele>15</ele>
        <time>2026-03-06T16:09:39.000Z</time>
      </trkpt>
      <trkpt lat="43.35574" lon="-1.55465">
        <ele>14</ele>
        <time>2026-03-06T16:09:40.000Z</time>
      </trkpt>
      <trkpt lat="43.35579" lon="-1.55487">
        <ele>14</ele>
        <time>2026-03-06T16:09:43.000Z</time>
      </trkpt>
      <trkpt lat="43.35581" lon="-1.55514">
        <ele>13</ele>
        <time>2026-03-06T16:09:46.000Z</time>
      </trkpt>
      <trkpt lat="43.35585" lon="-1.55731">
        <ele>16</ele>
        <time>2026-03-06T16:10:15.000Z</time>
      </trkpt>
      <trkpt lat="43.35588" lon="-1.55791">
        <ele>16</ele>
        <time>2026-03-06T16:10:22.000Z</time>
      </trkpt>
      <trkpt lat="43.35592" lon="-1.55814">
        <ele>15</ele>
        <time>2026-03-06T16:10:25.000Z</time>
      </trkpt>
      <trkpt lat="43.35606" lon="-1.55857">
        <ele>15</ele>
        <time>2026-03-06T16:10:31.000Z</time>
      </trkpt>
      <trkpt lat="43.35632" lon="-1.55899">
        <ele>15</ele>
        <time>2026-03-06T16:10:39.000Z</time>
      </trkpt>
      <trkpt lat="43.35646" lon="-1.55913">
        <ele>16</ele>
        <time>2026-03-06T16:10:42.000Z</time>
      </trkpt>
      <trkpt lat="43.35682" lon="-1.55941">
        <ele>16</ele>
        <time>2026-03-06T16:10:49.000Z</time>
      </trkpt>
      <trkpt lat="43.35718" lon="-1.5597">
        <ele>16</ele>
        <time>2026-03-06T16:10:56.000Z</time>
      </trkpt>
      <trkpt lat="43.35741" lon="-1.55983">
        <ele>17</ele>
        <time>2026-03-06T16:11:01.000Z</time>
      </trkpt>
      <trkpt lat="43.35745" lon="-1.55978">
        <ele>17</ele>
        <time>2026-03-06T16:11:02.000Z</time>
      </trkpt>
      <trkpt lat="43.35751" lon="-1.55976">
        <ele>17</ele>
        <time>2026-03-06T16:11:03.000Z</time>
      </trkpt>
      <trkpt lat="43.35756" lon="-1.55977">
        <ele>17</ele>
        <time>2026-03-06T16:11:04.000Z</time>
      </trkpt>
      <trkpt lat="43.35762" lon="-1.55982">
        <ele>18</ele>
        <time>2026-03-06T16:11:05.000Z</time>
      </trkpt>
      <trkpt lat="43.35766" lon="-1.55989">
        <ele>18</ele>
        <time>2026-03-06T16:11:06.000Z</time>
      </trkpt>
      <trkpt lat="43.35767" lon="-1.55997">
        <ele>18</ele>
        <time>2026-03-06T16:11:07.000Z</time>
      </trkpt>
      <trkpt lat="43.35764" lon="-1.56008">
        <ele>19</ele>
        <time>2026-03-06T16:11:09.000Z</time>
      </trkpt>
      <trkpt lat="43.3576" lon="-1.56015">
        <ele>19</ele>
        <time>2026-03-06T16:11:10.000Z</time>
      </trkpt>
      <trkpt lat="43.35753" lon="-1.56017">
        <ele>19</ele>
        <time>2026-03-06T16:11:11.000Z</time>
      </trkpt>
      <trkpt lat="43.35747" lon="-1.56016">
        <ele>19</ele>
        <time>2026-03-06T16:11:12.000Z</time>
      </trkpt>
      <trkpt lat="43.3573" lon="-1.56032">
        <ele>19</ele>
        <time>2026-03-06T16:11:16.000Z</time>
      </trkpt>
      <trkpt lat="43.35721" lon="-1.56041">
        <ele>19</ele>
        <time>2026-03-06T16:11:18.000Z</time>
      </trkpt>
      <trkpt lat="43.35652" lon="-1.56086">
        <ele>18</ele>
        <time>2026-03-06T16:11:32.000Z</time>
      </trkpt>
      <trkpt lat="43.35648" lon="-1.5608">
        <ele>17</ele>
        <time>2026-03-06T16:11:33.000Z</time>
      </trkpt>
      <trkpt lat="43.35642" lon="-1.56085">
        <ele>17</ele>
        <time>2026-03-06T16:11:34.000Z</time>
      </trkpt>
      <trkpt lat="43.35635" lon="-1.56094">
        <ele>18</ele>
        <time>2026-03-06T16:11:36.000Z</time>
      </trkpt>
      <trkpt lat="43.35618" lon="-1.56125">
        <ele>18</ele>
        <time>2026-03-06T16:11:41.000Z</time>
      </trkpt>
      <trkpt lat="43.35614" lon="-1.56149">
        <ele>19</ele>
        <time>2026-03-06T16:11:44.000Z</time>
      </trkpt>
      <trkpt lat="43.3561" lon="-1.56201">
        <ele>19</ele>
        <time>2026-03-06T16:11:51.000Z</time>
      </trkpt>
      <trkpt lat="43.3561" lon="-1.56265">
        <ele>18</ele>
        <time>2026-03-06T16:11:59.000Z</time>
      </trkpt>
      <trkpt lat="43.35616" lon="-1.56498">
        <ele>18</ele>
        <time>2026-03-06T16:12:29.000Z</time>
      </trkpt>
      <trkpt lat="43.35622" lon="-1.56509">
        <ele>19</ele>
        <time>2026-03-06T16:12:31.000Z</time>
      </trkpt>
      <trkpt lat="43.35622" lon="-1.56558">
        <ele>19</ele>
        <time>2026-03-06T16:12:37.000Z</time>
      </trkpt>
      <trkpt lat="43.35624" lon="-1.56587">
        <ele>19</ele>
        <time>2026-03-06T16:12:41.000Z</time>
      </trkpt>
      <trkpt lat="43.35627" lon="-1.56588">
        <ele>19</ele>
        <time>2026-03-06T16:12:41.000Z</time>
      </trkpt>
      <trkpt lat="43.35633" lon="-1.56592">
        <ele>19</ele>
        <time>2026-03-06T16:12:43.000Z</time>
      </trkpt>
      <trkpt lat="43.35635" lon="-1.56599">
        <ele>19</ele>
        <time>2026-03-06T16:12:44.000Z</time>
      </trkpt>
      <trkpt lat="43.35632" lon="-1.56611">
        <ele>19</ele>
        <time>2026-03-06T16:12:45.000Z</time>
      </trkpt>
      <trkpt lat="43.35624" lon="-1.56615">
        <ele>19</ele>
        <time>2026-03-06T16:12:47.000Z</time>
      </trkpt>
      <trkpt lat="43.35625" lon="-1.56642">
        <ele>19</ele>
        <time>2026-03-06T16:12:50.000Z</time>
      </trkpt>
      <trkpt lat="43.35617" lon="-1.56692">
        <ele>19</ele>
        <time>2026-03-06T16:12:57.000Z</time>
      </trkpt>
      <trkpt lat="43.35608" lon="-1.56729">
        <ele>18</ele>
        <time>2026-03-06T16:13:02.000Z</time>
      </trkpt>
      <trkpt lat="43.35589" lon="-1.56787">
        <ele>17</ele>
        <time>2026-03-06T16:13:10.000Z</time>
      </trkpt>
      <trkpt lat="43.35585" lon="-1.56813">
        <ele>17</ele>
        <time>2026-03-06T16:13:14.000Z</time>
      </trkpt>
      <trkpt lat="43.35586" lon="-1.56839">
        <ele>17</ele>
        <time>2026-03-06T16:13:17.000Z</time>
      </trkpt>
      <trkpt lat="43.35588" lon="-1.56851">
        <ele>17</ele>
        <time>2026-03-06T16:13:18.000Z</time>
      </trkpt>
      <trkpt lat="43.35597" lon="-1.56872">
        <ele>17</ele>
        <time>2026-03-06T16:13:22.000Z</time>
      </trkpt>
      <trkpt lat="43.35625" lon="-1.56922">
        <ele>17</ele>
        <time>2026-03-06T16:13:30.000Z</time>
      </trkpt>
      <trkpt lat="43.35723" lon="-1.57132">
        <ele>15</ele>
        <time>2026-03-06T16:14:02.000Z</time>
      </trkpt>
      <trkpt lat="43.35733" lon="-1.5716">
        <ele>15</ele>
        <time>2026-03-06T16:14:06.000Z</time>
      </trkpt>
      <trkpt lat="43.3574" lon="-1.57189">
        <ele>15</ele>
        <time>2026-03-06T16:14:10.000Z</time>
      </trkpt>
      <trkpt lat="43.35745" lon="-1.57225">
        <ele>14</ele>
        <time>2026-03-06T16:14:15.000Z</time>
      </trkpt>
      <trkpt lat="43.35763" lon="-1.57418">
        <ele>13</ele>
        <time>2026-03-06T16:14:40.000Z</time>
      </trkpt>
      <trkpt lat="43.35767" lon="-1.57433">
        <ele>13</ele>
        <time>2026-03-06T16:14:42.000Z</time>
      </trkpt>
      <trkpt lat="43.35781" lon="-1.57455">
        <ele>13</ele>
        <time>2026-03-06T16:14:46.000Z</time>
      </trkpt>
      <trkpt lat="43.35786" lon="-1.57459">
        <ele>13</ele>
        <time>2026-03-06T16:14:47.000Z</time>
      </trkpt>
      <trkpt lat="43.35788" lon="-1.57464">
        <ele>13</ele>
        <time>2026-03-06T16:14:48.000Z</time>
      </trkpt>
      <trkpt lat="43.35789" lon="-1.5747">
        <ele>13</ele>
        <time>2026-03-06T16:14:48.000Z</time>
      </trkpt>
      <trkpt lat="43.35784" lon="-1.57479">
        <ele>13</ele>
        <time>2026-03-06T16:14:50.000Z</time>
      </trkpt>
      <trkpt lat="43.35781" lon="-1.57496">
        <ele>13</ele>
        <time>2026-03-06T16:14:52.000Z</time>
      </trkpt>
      <trkpt lat="43.35779" lon="-1.57526">
        <ele>13</ele>
        <time>2026-03-06T16:14:56.000Z</time>
      </trkpt>
      <trkpt lat="43.35779" lon="-1.57552">
        <ele>13</ele>
        <time>2026-03-06T16:14:59.000Z</time>
      </trkpt>
      <trkpt lat="43.35782" lon="-1.57586">
        <ele>13</ele>
        <time>2026-03-06T16:15:04.000Z</time>
      </trkpt>
      <trkpt lat="43.35807" lon="-1.5772">
        <ele>12</ele>
        <time>2026-03-06T16:15:22.000Z</time>
      </trkpt>
      <trkpt lat="43.35838" lon="-1.57869">
        <ele>11</ele>
        <time>2026-03-06T16:15:42.000Z</time>
      </trkpt>
      <trkpt lat="43.35852" lon="-1.57913">
        <ele>12</ele>
        <time>2026-03-06T16:15:48.000Z</time>
      </trkpt>
      <trkpt lat="43.35882" lon="-1.57972">
        <ele>11</ele>
        <time>2026-03-06T16:15:57.000Z</time>
      </trkpt>
      <trkpt lat="43.35894" lon="-1.57993">
        <ele>11</ele>
        <time>2026-03-06T16:16:01.000Z</time>
      </trkpt>
      <trkpt lat="43.36003" lon="-1.58148">
        <ele>11</ele>
        <time>2026-03-06T16:16:29.000Z</time>
      </trkpt>
      <trkpt lat="43.36095" lon="-1.58283">
        <ele>12</ele>
        <time>2026-03-06T16:16:53.000Z</time>
      </trkpt>
      <trkpt lat="43.36109" lon="-1.58303">
        <ele>12</ele>
        <time>2026-03-06T16:16:56.000Z</time>
      </trkpt>
      <trkpt lat="43.36139" lon="-1.58363">
        <ele>12</ele>
        <time>2026-03-06T16:17:06.000Z</time>
      </trkpt>
      <trkpt lat="43.36164" lon="-1.58429">
        <ele>12</ele>
        <time>2026-03-06T16:17:15.000Z</time>
      </trkpt>
      <trkpt lat="43.36257" lon="-1.58723">
        <ele>14</ele>
        <time>2026-03-06T16:17:57.000Z</time>
      </trkpt>
      <trkpt lat="43.3628" lon="-1.58766">
        <ele>18</ele>
        <time>2026-03-06T16:18:04.000Z</time>
      </trkpt>
      <trkpt lat="43.36308" lon="-1.58801">
        <ele>19</ele>
        <time>2026-03-06T16:18:10.000Z</time>
      </trkpt>
      <trkpt lat="43.36402" lon="-1.58885">
        <ele>17</ele>
        <time>2026-03-06T16:18:30.000Z</time>
      </trkpt>
      <trkpt lat="43.36427" lon="-1.58913">
        <ele>13</ele>
        <time>2026-03-06T16:18:36.000Z</time>
      </trkpt>
      <trkpt lat="43.36444" lon="-1.58941">
        <ele>12</ele>
        <time>2026-03-06T16:18:41.000Z</time>
      </trkpt>
      <trkpt lat="43.3646" lon="-1.58976">
        <ele>11</ele>
        <time>2026-03-06T16:18:46.000Z</time>
      </trkpt>
      <trkpt lat="43.36482" lon="-1.59044">
        <ele>9</ele>
        <time>2026-03-06T16:18:56.000Z</time>
      </trkpt>
      <trkpt lat="43.36581" lon="-1.59376">
        <ele>9</ele>
        <time>2026-03-06T16:19:42.000Z</time>
      </trkpt>
      <trkpt lat="43.36589" lon="-1.5943">
        <ele>9</ele>
        <time>2026-03-06T16:19:49.000Z</time>
      </trkpt>
      <trkpt lat="43.36592" lon="-1.59482">
        <ele>9</ele>
        <time>2026-03-06T16:19:56.000Z</time>
      </trkpt>
      <trkpt lat="43.36588" lon="-1.59546">
        <ele>11</ele>
        <time>2026-03-06T16:20:04.000Z</time>
      </trkpt>
      <trkpt lat="43.36567" lon="-1.59809">
        <ele>18</ele>
        <time>2026-03-06T16:20:39.000Z</time>
      </trkpt>
      <trkpt lat="43.36562" lon="-1.59843">
        <ele>18</ele>
        <time>2026-03-06T16:20:43.000Z</time>
      </trkpt>
      <trkpt lat="43.36549" lon="-1.59873">
        <ele>17</ele>
        <time>2026-03-06T16:20:48.000Z</time>
      </trkpt>
      <trkpt lat="43.36533" lon="-1.59897">
        <ele>16</ele>
        <time>2026-03-06T16:20:52.000Z</time>
      </trkpt>
      <trkpt lat="43.36476" lon="-1.5994">
        <ele>14</ele>
        <time>2026-03-06T16:21:03.000Z</time>
      </trkpt>
      <trkpt lat="43.36447" lon="-1.59965">
        <ele>14</ele>
        <time>2026-03-06T16:21:09.000Z</time>
      </trkpt>
      <trkpt lat="43.36418" lon="-1.59996">
        <ele>13</ele>
        <time>2026-03-06T16:21:16.000Z</time>
      </trkpt>
      <trkpt lat="43.36404" lon="-1.60015">
        <ele>14</ele>
        <time>2026-03-06T16:21:19.000Z</time>
      </trkpt>
      <trkpt lat="43.36387" lon="-1.60042">
        <ele>15</ele>
        <time>2026-03-06T16:21:24.000Z</time>
      </trkpt>
      <trkpt lat="43.36371" lon="-1.60073">
        <ele>15</ele>
        <time>2026-03-06T16:21:29.000Z</time>
      </trkpt>
      <trkpt lat="43.36336" lon="-1.60166">
        <ele>16</ele>
        <time>2026-03-06T16:21:43.000Z</time>
      </trkpt>
      <trkpt lat="43.36316" lon="-1.60201">
        <ele>20</ele>
        <time>2026-03-06T16:21:48.000Z</time>
      </trkpt>
      <trkpt lat="43.36299" lon="-1.60225">
        <ele>21</ele>
        <time>2026-03-06T16:21:53.000Z</time>
      </trkpt>
      <trkpt lat="43.36264" lon="-1.60257">
        <ele>19</ele>
        <time>2026-03-06T16:22:00.000Z</time>
      </trkpt>
      <trkpt lat="43.36211" lon="-1.60302">
        <ele>16</ele>
        <time>2026-03-06T16:22:11.000Z</time>
      </trkpt>
      <trkpt lat="43.36173" lon="-1.60338">
        <ele>13</ele>
        <time>2026-03-06T16:22:19.000Z</time>
      </trkpt>
      <trkpt lat="43.36153" lon="-1.60362">
        <ele>14</ele>
        <time>2026-03-06T16:22:24.000Z</time>
      </trkpt>
      <trkpt lat="43.36138" lon="-1.60384">
        <ele>15</ele>
        <time>2026-03-06T16:22:28.000Z</time>
      </trkpt>
      <trkpt lat="43.36126" lon="-1.60409">
        <ele>15</ele>
        <time>2026-03-06T16:22:32.000Z</time>
      </trkpt>
      <trkpt lat="43.36109" lon="-1.60462">
        <ele>16</ele>
        <time>2026-03-06T16:22:39.000Z</time>
      </trkpt>
      <trkpt lat="43.36103" lon="-1.60494">
        <ele>17</ele>
        <time>2026-03-06T16:22:44.000Z</time>
      </trkpt>
      <trkpt lat="43.36102" lon="-1.60518">
        <ele>17</ele>
        <time>2026-03-06T16:22:47.000Z</time>
      </trkpt>
      <trkpt lat="43.36102" lon="-1.60551">
        <ele>17</ele>
        <time>2026-03-06T16:22:51.000Z</time>
      </trkpt>
      <trkpt lat="43.36104" lon="-1.60585">
        <ele>18</ele>
        <time>2026-03-06T16:22:55.000Z</time>
      </trkpt>
      <trkpt lat="43.36118" lon="-1.60724">
        <ele>18</ele>
        <time>2026-03-06T16:23:14.000Z</time>
      </trkpt>
      <trkpt lat="43.36119" lon="-1.6075">
        <ele>18</ele>
        <time>2026-03-06T16:23:17.000Z</time>
      </trkpt>
      <trkpt lat="43.36113" lon="-1.60838">
        <ele>16</ele>
        <time>2026-03-06T16:23:28.000Z</time>
      </trkpt>
      <trkpt lat="43.36105" lon="-1.61018">
        <ele>17</ele>
        <time>2026-03-06T16:23:52.000Z</time>
      </trkpt>
      <trkpt lat="43.36101" lon="-1.61078">
        <ele>15</ele>
        <time>2026-03-06T16:24:00.000Z</time>
      </trkpt>
      <trkpt lat="43.36091" lon="-1.61139">
        <ele>13</ele>
        <time>2026-03-06T16:24:08.000Z</time>
      </trkpt>
      <trkpt lat="43.36075" lon="-1.61188">
        <ele>12</ele>
        <time>2026-03-06T16:24:15.000Z</time>
      </trkpt>
      <trkpt lat="43.36058" lon="-1.61226">
        <ele>11</ele>
        <time>2026-03-06T16:24:20.000Z</time>
      </trkpt>
      <trkpt lat="43.36033" lon="-1.61268">
        <ele>11</ele>
        <time>2026-03-06T16:24:27.000Z</time>
      </trkpt>
      <trkpt lat="43.35934" lon="-1.61396">
        <ele>16</ele>
        <time>2026-03-06T16:24:52.000Z</time>
      </trkpt>
      <trkpt lat="43.35913" lon="-1.61419">
        <ele>16</ele>
        <time>2026-03-06T16:24:56.000Z</time>
      </trkpt>
      <trkpt lat="43.35815" lon="-1.61503">
        <ele>12</ele>
        <time>2026-03-06T16:25:17.000Z</time>
      </trkpt>
      <trkpt lat="43.35787" lon="-1.61535">
        <ele>14</ele>
        <time>2026-03-06T16:25:23.000Z</time>
      </trkpt>
      <trkpt lat="43.35745" lon="-1.61601">
        <ele>16</ele>
        <time>2026-03-06T16:25:35.000Z</time>
      </trkpt>
      <trkpt lat="43.35515" lon="-1.61963">
        <ele>18</ele>
        <time>2026-03-06T16:26:37.000Z</time>
      </trkpt>
      <trkpt lat="43.35486" lon="-1.62001">
        <ele>18</ele>
        <time>2026-03-06T16:26:44.000Z</time>
      </trkpt>
      <trkpt lat="43.35432" lon="-1.62045">
        <ele>21</ele>
        <time>2026-03-06T16:26:55.000Z</time>
      </trkpt>
      <trkpt lat="43.35407" lon="-1.6206">
        <ele>21</ele>
        <time>2026-03-06T16:27:00.000Z</time>
      </trkpt>
      <trkpt lat="43.3524" lon="-1.62126">
        <ele>14</ele>
        <time>2026-03-06T16:27:31.000Z</time>
      </trkpt>
      <trkpt lat="43.35214" lon="-1.62143">
        <ele>12</ele>
        <time>2026-03-06T16:27:36.000Z</time>
      </trkpt>
      <trkpt lat="43.35201" lon="-1.62157">
        <ele>12</ele>
        <time>2026-03-06T16:27:39.000Z</time>
      </trkpt>
      <trkpt lat="43.35181" lon="-1.62185">
        <ele>11</ele>
        <time>2026-03-06T16:27:44.000Z</time>
      </trkpt>
      <trkpt lat="43.35127" lon="-1.62289">
        <ele>11</ele>
        <time>2026-03-06T16:28:01.000Z</time>
      </trkpt>
      <trkpt lat="43.35149" lon="-1.62344">
        <ele>17</ele>
        <time>2026-03-06T16:28:09.000Z</time>
      </trkpt>
      <trkpt lat="43.3515" lon="-1.6235">
        <ele>18</ele>
        <time>2026-03-06T16:28:10.000Z</time>
      </trkpt>
      <trkpt lat="43.35138" lon="-1.62408">
        <ele>18</ele>
        <time>2026-03-06T16:28:17.000Z</time>
      </trkpt>
      <trkpt lat="43.35141" lon="-1.62443">
        <ele>18</ele>
        <time>2026-03-06T16:28:22.000Z</time>
      </trkpt>
      <trkpt lat="43.3515" lon="-1.62462">
        <ele>20</ele>
        <time>2026-03-06T16:28:25.000Z</time>
      </trkpt>
      <trkpt lat="43.35169" lon="-1.62465">
        <ele>23</ele>
        <time>2026-03-06T16:28:28.000Z</time>
      </trkpt>
      <trkpt lat="43.35173" lon="-1.62474">
        <ele>23</ele>
        <time>2026-03-06T16:28:30.000Z</time>
      </trkpt>
      <trkpt lat="43.35213" lon="-1.62484">
        <ele>27</ele>
        <time>2026-03-06T16:28:37.000Z</time>
      </trkpt>
      <trkpt lat="43.35255" lon="-1.62457">
        <ele>33</ele>
        <time>2026-03-06T16:28:45.000Z</time>
      </trkpt>
      <trkpt lat="43.35294" lon="-1.62423">
        <ele>36</ele>
        <time>2026-03-06T16:28:53.000Z</time>
      </trkpt>
      <trkpt lat="43.35318" lon="-1.62399">
        <ele>38</ele>
        <time>2026-03-06T16:28:59.000Z</time>
      </trkpt>
      <trkpt lat="43.35335" lon="-1.62378">
        <ele>40</ele>
        <time>2026-03-06T16:29:03.000Z</time>
      </trkpt>
      <trkpt lat="43.35394" lon="-1.62329">
        <ele>45</ele>
        <time>2026-03-06T16:29:15.000Z</time>
      </trkpt>
      <trkpt lat="43.35451" lon="-1.62287">
        <ele>47</ele>
        <time>2026-03-06T16:29:26.000Z</time>
      </trkpt>
      <trkpt lat="43.35524" lon="-1.62224">
        <ele>47</ele>
        <time>2026-03-06T16:29:42.000Z</time>
      </trkpt>
      <trkpt lat="43.35545" lon="-1.62214">
        <ele>47</ele>
        <time>2026-03-06T16:29:46.000Z</time>
      </trkpt>
      <trkpt lat="43.35559" lon="-1.62216">
        <ele>47</ele>
        <time>2026-03-06T16:29:48.000Z</time>
      </trkpt>
      <trkpt lat="43.35571" lon="-1.62202">
        <ele>47</ele>
        <time>2026-03-06T16:29:51.000Z</time>
      </trkpt>
      <trkpt lat="43.35652" lon="-1.6215">
        <ele>48</ele>
        <time>2026-03-06T16:30:07.000Z</time>
      </trkpt>
      <trkpt lat="43.35754" lon="-1.62068">
        <ele>46</ele>
        <time>2026-03-06T16:30:28.000Z</time>
      </trkpt>
      <trkpt lat="43.35872" lon="-1.6197">
        <ele>46</ele>
        <time>2026-03-06T16:30:52.000Z</time>
      </trkpt>
      <trkpt lat="43.35905" lon="-1.61949">
        <ele>48</ele>
        <time>2026-03-06T16:30:59.000Z</time>
      </trkpt>
      <trkpt lat="43.35962" lon="-1.61912">
        <ele>52</ele>
        <time>2026-03-06T16:31:10.000Z</time>
      </trkpt>
      <trkpt lat="43.3599" lon="-1.6186">
        <ele>56</ele>
        <time>2026-03-06T16:31:19.000Z</time>
      </trkpt>
      <trkpt lat="43.36032" lon="-1.61833">
        <ele>58</ele>
        <time>2026-03-06T16:31:27.000Z</time>
      </trkpt>
      <trkpt lat="43.36041" lon="-1.6183">
        <ele>58</ele>
        <time>2026-03-06T16:31:28.000Z</time>
      </trkpt>
      <trkpt lat="43.36072" lon="-1.61835">
        <ele>58</ele>
        <time>2026-03-06T16:31:34.000Z</time>
      </trkpt>
      <trkpt lat="43.36107" lon="-1.6183">
        <ele>59</ele>
        <time>2026-03-06T16:31:40.000Z</time>
      </trkpt>
      <trkpt lat="43.36191" lon="-1.61783">
        <ele>63</ele>
        <time>2026-03-06T16:31:56.000Z</time>
      </trkpt>
      <trkpt lat="43.36201" lon="-1.61773">
        <ele>63</ele>
        <time>2026-03-06T16:31:59.000Z</time>
      </trkpt>
      <trkpt lat="43.3621" lon="-1.61751">
        <ele>64</ele>
        <time>2026-03-06T16:32:02.000Z</time>
      </trkpt>
      <trkpt lat="43.36239" lon="-1.61723">
        <ele>64</ele>
        <time>2026-03-06T16:32:08.000Z</time>
      </trkpt>
      <trkpt lat="43.36296" lon="-1.61691">
        <ele>65</ele>
        <time>2026-03-06T16:32:19.000Z</time>
      </trkpt>
      <trkpt lat="43.36334" lon="-1.61641">
        <ele>68</ele>
        <time>2026-03-06T16:32:28.000Z</time>
      </trkpt>
      <trkpt lat="43.36341" lon="-1.61617">
        <ele>69</ele>
        <time>2026-03-06T16:32:32.000Z</time>
      </trkpt>
      <trkpt lat="43.36345" lon="-1.61596">
        <ele>69</ele>
        <time>2026-03-06T16:32:35.000Z</time>
      </trkpt>
      <trkpt lat="43.36354" lon="-1.61555">
        <ele>70</ele>
        <time>2026-03-06T16:32:40.000Z</time>
      </trkpt>
      <trkpt lat="43.3637" lon="-1.61514">
        <ele>74</ele>
        <time>2026-03-06T16:32:46.000Z</time>
      </trkpt>
      <trkpt lat="43.36398" lon="-1.61479">
        <ele>79</ele>
        <time>2026-03-06T16:32:53.000Z</time>
      </trkpt>
      <trkpt lat="43.36412" lon="-1.61409">
        <ele>82</ele>
        <time>2026-03-06T16:33:02.000Z</time>
      </trkpt>
      <trkpt lat="43.36429" lon="-1.61347">
        <ele>78</ele>
        <time>2026-03-06T16:33:11.000Z</time>
      </trkpt>
      <trkpt lat="43.36427" lon="-1.61254">
        <ele>77</ele>
        <time>2026-03-06T16:33:23.000Z</time>
      </trkpt>
      <trkpt lat="43.36478" lon="-1.61169">
        <ele>84</ele>
        <time>2026-03-06T16:33:37.000Z</time>
      </trkpt>
      <trkpt lat="43.36494" lon="-1.61129">
        <ele>88</ele>
        <time>2026-03-06T16:33:43.000Z</time>
      </trkpt>
      <trkpt lat="43.36508" lon="-1.6107">
        <ele>91</ele>
        <time>2026-03-06T16:33:51.000Z</time>
      </trkpt>
      <trkpt lat="43.36549" lon="-1.60957">
        <ele>94</ele>
        <time>2026-03-06T16:34:07.000Z</time>
      </trkpt>
      <trkpt lat="43.36558" lon="-1.60915">
        <ele>96</ele>
        <time>2026-03-06T16:34:13.000Z</time>
      </trkpt>
      <trkpt lat="43.36598" lon="-1.60923">
        <ele>96</ele>
        <time>2026-03-06T16:34:20.000Z</time>
      </trkpt>
      <trkpt lat="43.36648" lon="-1.60954">
        <ele>91</ele>
        <time>2026-03-06T16:34:30.000Z</time>
      </trkpt>
      <trkpt lat="43.36655" lon="-1.60955">
        <ele>90</ele>
        <time>2026-03-06T16:34:31.000Z</time>
      </trkpt>
      <trkpt lat="43.36659" lon="-1.60953">
        <ele>90</ele>
        <time>2026-03-06T16:34:32.000Z</time>
      </trkpt>
      <trkpt lat="43.36721" lon="-1.60867">
        <ele>86</ele>
        <time>2026-03-06T16:34:48.000Z</time>
      </trkpt>
      <trkpt lat="43.36757" lon="-1.60828">
        <ele>83</ele>
        <time>2026-03-06T16:34:56.000Z</time>
      </trkpt>
      <trkpt lat="43.36787" lon="-1.608">
        <ele>82</ele>
        <time>2026-03-06T16:35:02.000Z</time>
      </trkpt>
      <trkpt lat="43.36808" lon="-1.6079">
        <ele>81</ele>
        <time>2026-03-06T16:35:06.000Z</time>
      </trkpt>
      <trkpt lat="43.36862" lon="-1.60773">
        <ele>78</ele>
        <time>2026-03-06T16:35:16.000Z</time>
      </trkpt>
      <trkpt lat="43.36933" lon="-1.60668">
        <ele>80</ele>
        <time>2026-03-06T16:35:35.000Z</time>
      </trkpt>
      <trkpt lat="43.37027" lon="-1.60608">
        <ele>78</ele>
        <time>2026-03-06T16:35:53.000Z</time>
      </trkpt>
      <trkpt lat="43.37098" lon="-1.60573">
        <ele>80</ele>
        <time>2026-03-06T16:36:07.000Z</time>
      </trkpt>
      <trkpt lat="43.37119" lon="-1.60555">
        <ele>82</ele>
        <time>2026-03-06T16:36:11.000Z</time>
      </trkpt>
      <trkpt lat="43.37125" lon="-1.60523">
        <ele>82</ele>
        <time>2026-03-06T16:36:15.000Z</time>
      </trkpt>
      <trkpt lat="43.37121" lon="-1.60481">
        <ele>81</ele>
        <time>2026-03-06T16:36:21.000Z</time>
      </trkpt>
      <trkpt lat="43.371" lon="-1.60356">
        <ele>80</ele>
        <time>2026-03-06T16:36:37.000Z</time>
      </trkpt>
      <trkpt lat="43.37111" lon="-1.60364">
        <ele>80</ele>
        <time>2026-03-06T16:36:39.000Z</time>
      </trkpt>
      <trkpt lat="43.37159" lon="-1.60437">
        <ele>87</ele>
        <time>2026-03-06T16:36:52.000Z</time>
      </trkpt>
      <trkpt lat="43.37197" lon="-1.6048">
        <ele>86</ele>
        <time>2026-03-06T16:37:01.000Z</time>
      </trkpt>
      <trkpt lat="43.37256" lon="-1.60529">
        <ele>87</ele>
        <time>2026-03-06T16:37:13.000Z</time>
      </trkpt>
      <trkpt lat="43.37291" lon="-1.60568">
        <ele>86</ele>
        <time>2026-03-06T16:37:21.000Z</time>
      </trkpt>
      <trkpt lat="43.37391" lon="-1.60695">
        <ele>77</ele>
        <time>2026-03-06T16:37:45.000Z</time>
      </trkpt>
      <trkpt lat="43.37433" lon="-1.6075">
        <ele>75</ele>
        <time>2026-03-06T16:37:56.000Z</time>
      </trkpt>
      <trkpt lat="43.37467" lon="-1.60688">
        <ele>72</ele>
        <time>2026-03-06T16:38:06.000Z</time>
      </trkpt>
      <trkpt lat="43.37483" lon="-1.60666">
        <ele>71</ele>
        <time>2026-03-06T16:38:10.000Z</time>
      </trkpt>
      <trkpt lat="43.37502" lon="-1.6065">
        <ele>68</ele>
        <time>2026-03-06T16:38:14.000Z</time>
      </trkpt>
      <trkpt lat="43.37523" lon="-1.60639">
        <ele>67</ele>
        <time>2026-03-06T16:38:18.000Z</time>
      </trkpt>
      <trkpt lat="43.37598" lon="-1.60619">
        <ele>66</ele>
        <time>2026-03-06T16:38:31.000Z</time>
      </trkpt>
      <trkpt lat="43.37627" lon="-1.60615">
        <ele>67</ele>
        <time>2026-03-06T16:38:37.000Z</time>
      </trkpt>
      <trkpt lat="43.3768" lon="-1.60613">
        <ele>68</ele>
        <time>2026-03-06T16:38:46.000Z</time>
      </trkpt>
      <trkpt lat="43.37739" lon="-1.60611">
        <ele>67</ele>
        <time>2026-03-06T16:38:57.000Z</time>
      </trkpt>
      <trkpt lat="43.37757" lon="-1.60617">
        <ele>67</ele>
        <time>2026-03-06T16:39:00.000Z</time>
      </trkpt>
      <trkpt lat="43.37782" lon="-1.60629">
        <ele>68</ele>
        <time>2026-03-06T16:39:05.000Z</time>
      </trkpt>
      <trkpt lat="43.37807" lon="-1.60648">
        <ele>69</ele>
        <time>2026-03-06T16:39:10.000Z</time>
      </trkpt>
      <trkpt lat="43.37826" lon="-1.60653">
        <ele>70</ele>
        <time>2026-03-06T16:39:13.000Z</time>
      </trkpt>
      <trkpt lat="43.37842" lon="-1.60648">
        <ele>70</ele>
        <time>2026-03-06T16:39:16.000Z</time>
      </trkpt>
      <trkpt lat="43.37858" lon="-1.60636">
        <ele>70</ele>
        <time>2026-03-06T16:39:19.000Z</time>
      </trkpt>
      <trkpt lat="43.37885" lon="-1.6063">
        <ele>71</ele>
        <time>2026-03-06T16:39:24.000Z</time>
      </trkpt>
      <trkpt lat="43.37948" lon="-1.60619">
        <ele>75</ele>
        <time>2026-03-06T16:39:35.000Z</time>
      </trkpt>
      <trkpt lat="43.37972" lon="-1.60619">
        <ele>76</ele>
        <time>2026-03-06T16:39:40.000Z</time>
      </trkpt>
      <trkpt lat="43.37985" lon="-1.60617">
        <ele>77</ele>
        <time>2026-03-06T16:39:42.000Z</time>
      </trkpt>
      <trkpt lat="43.38067" lon="-1.60559">
        <ele>84</ele>
        <time>2026-03-06T16:39:58.000Z</time>
      </trkpt>
      <trkpt lat="43.38082" lon="-1.60559">
        <ele>85</ele>
        <time>2026-03-06T16:40:01.000Z</time>
      </trkpt>
      <trkpt lat="43.3807" lon="-1.60651">
        <ele>84</ele>
        <time>2026-03-06T16:40:13.000Z</time>
      </trkpt>
      <trkpt lat="43.38074" lon="-1.60737">
        <ele>83</ele>
        <time>2026-03-06T16:40:24.000Z</time>
      </trkpt>
      <trkpt lat="43.38072" lon="-1.60794">
        <ele>80</ele>
        <time>2026-03-06T16:40:32.000Z</time>
      </trkpt>
      <trkpt lat="43.38065" lon="-1.60831">
        <ele>79</ele>
        <time>2026-03-06T16:40:37.000Z</time>
      </trkpt>
      <trkpt lat="43.38051" lon="-1.60873">
        <ele>79</ele>
        <time>2026-03-06T16:40:43.000Z</time>
      </trkpt>
      <trkpt lat="43.3805" lon="-1.60899">
        <ele>78</ele>
        <time>2026-03-06T16:40:46.000Z</time>
      </trkpt>
      <trkpt lat="43.38055" lon="-1.6092">
        <ele>77</ele>
        <time>2026-03-06T16:40:49.000Z</time>
      </trkpt>
      <trkpt lat="43.38098" lon="-1.60992">
        <ele>78</ele>
        <time>2026-03-06T16:41:01.000Z</time>
      </trkpt>
      <trkpt lat="43.38114" lon="-1.61112">
        <ele>78</ele>
        <time>2026-03-06T16:41:17.000Z</time>
      </trkpt>
      <trkpt lat="43.38096" lon="-1.61353">
        <ele>78</ele>
        <time>2026-03-06T16:41:48.000Z</time>
      </trkpt>
      <trkpt lat="43.38084" lon="-1.61464">
        <ele>78</ele>
        <time>2026-03-06T16:42:02.000Z</time>
      </trkpt>
      <trkpt lat="43.38082" lon="-1.61527">
        <ele>78</ele>
        <time>2026-03-06T16:42:11.000Z</time>
      </trkpt>
      <trkpt lat="43.38088" lon="-1.61593">
        <ele>76</ele>
        <time>2026-03-06T16:42:19.000Z</time>
      </trkpt>
      <trkpt lat="43.38102" lon="-1.61637">
        <ele>74</ele>
        <time>2026-03-06T16:42:25.000Z</time>
      </trkpt>
      <trkpt lat="43.38131" lon="-1.61673">
        <ele>74</ele>
        <time>2026-03-06T16:42:32.000Z</time>
      </trkpt>
      <trkpt lat="43.38303" lon="-1.6184">
        <ele>79</ele>
        <time>2026-03-06T16:43:10.000Z</time>
      </trkpt>
      <trkpt lat="43.38335" lon="-1.61855">
        <ele>78</ele>
        <time>2026-03-06T16:43:16.000Z</time>
      </trkpt>
      <trkpt lat="43.38354" lon="-1.61859">
        <ele>78</ele>
        <time>2026-03-06T16:43:19.000Z</time>
      </trkpt>
      <trkpt lat="43.38452" lon="-1.61846">
        <ele>78</ele>
        <time>2026-03-06T16:43:37.000Z</time>
      </trkpt>
      <trkpt lat="43.38468" lon="-1.61846">
        <ele>78</ele>
        <time>2026-03-06T16:43:40.000Z</time>
      </trkpt>
      <trkpt lat="43.38487" lon="-1.6185">
        <ele>78</ele>
        <time>2026-03-06T16:43:43.000Z</time>
      </trkpt>
      <trkpt lat="43.38521" lon="-1.61862">
        <ele>77</ele>
        <time>2026-03-06T16:43:49.000Z</time>
      </trkpt>
      <trkpt lat="43.38555" lon="-1.61875">
        <ele>76</ele>
        <time>2026-03-06T16:43:56.000Z</time>
      </trkpt>
      <trkpt lat="43.38566" lon="-1.61881">
        <ele>75</ele>
        <time>2026-03-06T16:43:58.000Z</time>
      </trkpt>
      <trkpt lat="43.38584" lon="-1.61895">
        <ele>75</ele>
        <time>2026-03-06T16:44:01.000Z</time>
      </trkpt>
      <trkpt lat="43.3862" lon="-1.61929">
        <ele>73</ele>
        <time>2026-03-06T16:44:09.000Z</time>
      </trkpt>
      <trkpt lat="43.38636" lon="-1.61948">
        <ele>71</ele>
        <time>2026-03-06T16:44:13.000Z</time>
      </trkpt>
      <trkpt lat="43.3865" lon="-1.61967">
        <ele>69</ele>
        <time>2026-03-06T16:44:16.000Z</time>
      </trkpt>
      <trkpt lat="43.38666" lon="-1.61994">
        <ele>67</ele>
        <time>2026-03-06T16:44:21.000Z</time>
      </trkpt>
      <trkpt lat="43.38687" lon="-1.62043">
        <ele>64</ele>
        <time>2026-03-06T16:44:28.000Z</time>
      </trkpt>
      <trkpt lat="43.38697" lon="-1.62075">
        <ele>63</ele>
        <time>2026-03-06T16:44:33.000Z</time>
      </trkpt>
      <trkpt lat="43.3871" lon="-1.62133">
        <ele>61</ele>
        <time>2026-03-06T16:44:41.000Z</time>
      </trkpt>
      <trkpt lat="43.3874" lon="-1.62345">
        <ele>60</ele>
        <time>2026-03-06T16:45:09.000Z</time>
      </trkpt>
      <trkpt lat="43.38744" lon="-1.62391">
        <ele>61</ele>
        <time>2026-03-06T16:45:15.000Z</time>
      </trkpt>
      <trkpt lat="43.3875" lon="-1.6242">
        <ele>62</ele>
        <time>2026-03-06T16:45:18.000Z</time>
      </trkpt>
      <trkpt lat="43.38756" lon="-1.62436">
        <ele>62</ele>
        <time>2026-03-06T16:45:21.000Z</time>
      </trkpt>
      <trkpt lat="43.38767" lon="-1.62445">
        <ele>62</ele>
        <time>2026-03-06T16:45:23.000Z</time>
      </trkpt>
      <trkpt lat="43.3878" lon="-1.62452">
        <ele>62</ele>
        <time>2026-03-06T16:45:26.000Z</time>
      </trkpt>
      <trkpt lat="43.3882" lon="-1.62464">
        <ele>61</ele>
        <time>2026-03-06T16:45:33.000Z</time>
      </trkpt>
      <trkpt lat="43.38852" lon="-1.62477">
        <ele>60</ele>
        <time>2026-03-06T16:45:39.000Z</time>
      </trkpt>
      <trkpt lat="43.38864" lon="-1.62491">
        <ele>61</ele>
        <time>2026-03-06T16:45:42.000Z</time>
      </trkpt>
      <trkpt lat="43.38873" lon="-1.62537">
        <ele>63</ele>
        <time>2026-03-06T16:45:48.000Z</time>
      </trkpt>
      <trkpt lat="43.3887" lon="-1.6261">
        <ele>67</ele>
        <time>2026-03-06T16:45:57.000Z</time>
      </trkpt>
      <trkpt lat="43.38875" lon="-1.62634">
        <ele>67</ele>
        <time>2026-03-06T16:46:00.000Z</time>
      </trkpt>
      <trkpt lat="43.38886" lon="-1.62651">
        <ele>66</ele>
        <time>2026-03-06T16:46:03.000Z</time>
      </trkpt>
      <trkpt lat="43.38901" lon="-1.62664">
        <ele>64</ele>
        <time>2026-03-06T16:46:06.000Z</time>
      </trkpt>
      <trkpt lat="43.38986" lon="-1.62714">
        <ele>60</ele>
        <time>2026-03-06T16:46:23.000Z</time>
      </trkpt>
      <trkpt lat="43.39069" lon="-1.62811">
        <ele>65</ele>
        <time>2026-03-06T16:46:42.000Z</time>
      </trkpt>
      <trkpt lat="43.39102" lon="-1.62869">
        <ele>64</ele>
        <time>2026-03-06T16:46:52.000Z</time>
      </trkpt>
      <trkpt lat="43.39171" lon="-1.63087">
        <ele>56</ele>
        <time>2026-03-06T16:47:23.000Z</time>
      </trkpt>
      <trkpt lat="43.39176" lon="-1.63124">
        <ele>58</ele>
        <time>2026-03-06T16:47:27.000Z</time>
      </trkpt>
      <trkpt lat="43.39173" lon="-1.63182">
        <ele>61</ele>
        <time>2026-03-06T16:47:35.000Z</time>
      </trkpt>
      <trkpt lat="43.39176" lon="-1.63221">
        <ele>62</ele>
        <time>2026-03-06T16:47:40.000Z</time>
      </trkpt>
      <trkpt lat="43.39199" lon="-1.63367">
        <ele>57</ele>
        <time>2026-03-06T16:47:59.000Z</time>
      </trkpt>
      <trkpt lat="43.39211" lon="-1.63432">
        <ele>59</ele>
        <time>2026-03-06T16:48:08.000Z</time>
      </trkpt>
      <trkpt lat="43.39235" lon="-1.63583">
        <ele>61</ele>
        <time>2026-03-06T16:48:28.000Z</time>
      </trkpt>
      <trkpt lat="43.39233" lon="-1.63599">
        <ele>61</ele>
        <time>2026-03-06T16:48:30.000Z</time>
      </trkpt>
      <trkpt lat="43.39229" lon="-1.63618">
        <ele>61</ele>
        <time>2026-03-06T16:48:33.000Z</time>
      </trkpt>
      <trkpt lat="43.39208" lon="-1.63665">
        <ele>60</ele>
        <time>2026-03-06T16:48:40.000Z</time>
      </trkpt>
      <trkpt lat="43.39191" lon="-1.63689">
        <ele>59</ele>
        <time>2026-03-06T16:48:44.000Z</time>
      </trkpt>
      <trkpt lat="43.38936" lon="-1.63916">
        <ele>45</ele>
        <time>2026-03-06T16:49:38.000Z</time>
      </trkpt>
      <trkpt lat="43.38919" lon="-1.63936">
        <ele>44</ele>
        <time>2026-03-06T16:49:42.000Z</time>
      </trkpt>
      <trkpt lat="43.38907" lon="-1.63955">
        <ele>44</ele>
        <time>2026-03-06T16:49:45.000Z</time>
      </trkpt>
      <trkpt lat="43.38899" lon="-1.63974">
        <ele>43</ele>
        <time>2026-03-06T16:49:48.000Z</time>
      </trkpt>
      <trkpt lat="43.38889" lon="-1.64006">
        <ele>43</ele>
        <time>2026-03-06T16:49:53.000Z</time>
      </trkpt>
      <trkpt lat="43.38886" lon="-1.64034">
        <ele>41</ele>
        <time>2026-03-06T16:49:56.000Z</time>
      </trkpt>
      <trkpt lat="43.38889" lon="-1.6413">
        <ele>40</ele>
        <time>2026-03-06T16:50:09.000Z</time>
      </trkpt>
      <trkpt lat="43.38888" lon="-1.64153">
        <ele>41</ele>
        <time>2026-03-06T16:50:12.000Z</time>
      </trkpt>
      <trkpt lat="43.38886" lon="-1.64171">
        <ele>41</ele>
        <time>2026-03-06T16:50:14.000Z</time>
      </trkpt>
      <trkpt lat="43.38878" lon="-1.64198">
        <ele>39</ele>
        <time>2026-03-06T16:50:18.000Z</time>
      </trkpt>
      <trkpt lat="43.38836" lon="-1.6431">
        <ele>34</ele>
        <time>2026-03-06T16:50:34.000Z</time>
      </trkpt>
      <trkpt lat="43.38832" lon="-1.64332">
        <ele>34</ele>
        <time>2026-03-06T16:50:37.000Z</time>
      </trkpt>
      <trkpt lat="43.38833" lon="-1.64343">
        <ele>34</ele>
        <time>2026-03-06T16:50:39.000Z</time>
      </trkpt>
      <trkpt lat="43.3884" lon="-1.64361">
        <ele>35</ele>
        <time>2026-03-06T16:50:41.000Z</time>
      </trkpt>
      <trkpt lat="43.38898" lon="-1.64454">
        <ele>30</ele>
        <time>2026-03-06T16:50:57.000Z</time>
      </trkpt>
      <trkpt lat="43.38902" lon="-1.64498">
        <ele>30</ele>
        <time>2026-03-06T16:51:03.000Z</time>
      </trkpt>
      <trkpt lat="43.38866" lon="-1.64741">
        <ele>19</ele>
        <time>2026-03-06T16:51:35.000Z</time>
      </trkpt>
      <trkpt lat="43.38857" lon="-1.64804">
        <ele>13</ele>
        <time>2026-03-06T16:51:43.000Z</time>
      </trkpt>
      <trkpt lat="43.38856" lon="-1.64828">
        <ele>10</ele>
        <time>2026-03-06T16:51:46.000Z</time>
      </trkpt>
      <trkpt lat="43.38868" lon="-1.64904">
        <ele>9</ele>
        <time>2026-03-06T16:51:56.000Z</time>
      </trkpt>
      <trkpt lat="43.38876" lon="-1.64932">
        <ele>10</ele>
        <time>2026-03-06T16:52:00.000Z</time>
      </trkpt>
      <trkpt lat="43.38882" lon="-1.64942">
        <ele>10</ele>
        <time>2026-03-06T16:52:02.000Z</time>
      </trkpt>
      <trkpt lat="43.38892" lon="-1.6495">
        <ele>11</ele>
        <time>2026-03-06T16:52:04.000Z</time>
      </trkpt>
      <trkpt lat="43.38912" lon="-1.64958">
        <ele>11</ele>
        <time>2026-03-06T16:52:08.000Z</time>
      </trkpt>
      <trkpt lat="43.38908" lon="-1.64982">
        <ele>12</ele>
        <time>2026-03-06T16:52:11.000Z</time>
      </trkpt>
      <trkpt lat="43.38905" lon="-1.64994">
        <ele>12</ele>
        <time>2026-03-06T16:52:13.000Z</time>
      </trkpt>
      <trkpt lat="43.38899" lon="-1.65008">
        <ele>13</ele>
        <time>2026-03-06T16:52:15.000Z</time>
      </trkpt>
      <trkpt lat="43.38881" lon="-1.65041">
        <ele>15</ele>
        <time>2026-03-06T16:52:20.000Z</time>
      </trkpt>
      <trkpt lat="43.38863" lon="-1.65065">
        <ele>17</ele>
        <time>2026-03-06T16:52:24.000Z</time>
      </trkpt>
      <trkpt lat="43.38839" lon="-1.65118">
        <ele>21</ele>
        <time>2026-03-06T16:52:32.000Z</time>
      </trkpt>
      <trkpt lat="43.38831" lon="-1.6514">
        <ele>21</ele>
        <time>2026-03-06T16:52:36.000Z</time>
      </trkpt>
      <trkpt lat="43.38822" lon="-1.65167">
        <ele>22</ele>
        <time>2026-03-06T16:52:40.000Z</time>
      </trkpt>
      <trkpt lat="43.38815" lon="-1.65198">
        <ele>23</ele>
        <time>2026-03-06T16:52:44.000Z</time>
      </trkpt>
      <trkpt lat="43.38815" lon="-1.65213">
        <ele>23</ele>
        <time>2026-03-06T16:52:46.000Z</time>
      </trkpt>
      <trkpt lat="43.38784" lon="-1.65217">
        <ele>22</ele>
        <time>2026-03-06T16:52:51.000Z</time>
      </trkpt>
      <trkpt lat="43.38772" lon="-1.65221">
        <ele>22</ele>
        <time>2026-03-06T16:52:53.000Z</time>
      </trkpt>
      <trkpt lat="43.38754" lon="-1.65231">
        <ele>22</ele>
        <time>2026-03-06T16:52:57.000Z</time>
      </trkpt>
      <trkpt lat="43.38738" lon="-1.6525">
        <ele>21</ele>
        <time>2026-03-06T16:53:01.000Z</time>
      </trkpt>
      <trkpt lat="43.38722" lon="-1.65273">
        <ele>19</ele>
        <time>2026-03-06T16:53:05.000Z</time>
      </trkpt>
      <trkpt lat="43.38716" lon="-1.65302">
        <ele>18</ele>
        <time>2026-03-06T16:53:09.000Z</time>
      </trkpt>
      <trkpt lat="43.38712" lon="-1.6534">
        <ele>16</ele>
        <time>2026-03-06T16:53:14.000Z</time>
      </trkpt>
      <trkpt lat="43.38708" lon="-1.65381">
        <ele>14</ele>
        <time>2026-03-06T16:53:19.000Z</time>
      </trkpt>
      <trkpt lat="43.38699" lon="-1.65432">
        <ele>10</ele>
        <time>2026-03-06T16:53:26.000Z</time>
      </trkpt>
      <trkpt lat="43.38682" lon="-1.65473">
        <ele>7</ele>
        <time>2026-03-06T16:53:32.000Z</time>
      </trkpt>
      <trkpt lat="43.38401" lon="-1.65855">
        <ele>4</ele>
        <time>2026-03-06T16:54:42.000Z</time>
      </trkpt>
      <trkpt lat="43.38395" lon="-1.6586">
        <ele>4</ele>
        <time>2026-03-06T16:54:43.000Z</time>
      </trkpt>
      <trkpt lat="43.38349" lon="-1.6592">
        <ele>5</ele>
        <time>2026-03-06T16:54:55.000Z</time>
      </trkpt>
      <trkpt lat="43.38342" lon="-1.65926">
        <ele>6</ele>
        <time>2026-03-06T16:54:56.000Z</time>
      </trkpt>
      <trkpt lat="43.38344" lon="-1.65934">
        <ele>6</ele>
        <time>2026-03-06T16:54:57.000Z</time>
      </trkpt>
      <trkpt lat="43.38342" lon="-1.65941">
        <ele>6</ele>
        <time>2026-03-06T16:54:58.000Z</time>
      </trkpt>
      <trkpt lat="43.38336" lon="-1.65944">
        <ele>6</ele>
        <time>2026-03-06T16:54:59.000Z</time>
      </trkpt>
      <trkpt lat="43.3833" lon="-1.65941">
        <ele>6</ele>
        <time>2026-03-06T16:55:00.000Z</time>
      </trkpt>
      <trkpt lat="43.38328" lon="-1.65932">
        <ele>6</ele>
        <time>2026-03-06T16:55:02.000Z</time>
      </trkpt>
      <trkpt lat="43.3833" lon="-1.65928">
        <ele>6</ele>
        <time>2026-03-06T16:55:02.000Z</time>
      </trkpt>
      <trkpt lat="43.38324" lon="-1.65923">
        <ele>6</ele>
        <time>2026-03-06T16:55:04.000Z</time>
      </trkpt>
      <trkpt lat="43.38307" lon="-1.65898">
        <ele>4</ele>
        <time>2026-03-06T16:55:08.000Z</time>
      </trkpt>
    </trkseg>
  </trk>
</gpx>